GFSCGP_250_rhum_000.txt.gz
RH
19 17 16 16 18 19 22 28 36 39 39 44 46 46 58 70 78 80 76 82 74 70 58 57 73 69 87 86 83 72 73 81 84 50 74 51 54 58 68 49 42 52 45 61
19 16 20 21 23 29 36 34 39 38 33 37 42 57 61 80 82 80 94 86 81 95 96 88 76 88 72 89 98 84 87 96 100 100 96 94 84 88 74 80 62 74 73 77
23 32 32 25 23 19 22 23 24 30 37 43 53 76 64 75 74 86 88 96 100 100 100 100 98 88 90 98 100 100 98 100 97 94 94 77 86 94 90 86 86 70 79 81
30 33 28 29 32 32 25 25 17 26 35 40 54 46 38 39 71 76 84 94 99 85 81 80 100 100 100 100 100 100 100 100 82 80 100 98 99 100 100 100 99 86 84 98
25 29 26 26 25 26 25 30 28 24 25 25 29 36 34 49 53 57 64 80 100 100 100 100 100 100 100 100 100 100 87 91 83 85 90 100 100 100 100 100 100 100 100 93
28 25 29 36 39 42 46 35 38 48 50 33 46 35 37 24 31 42 72 99 100 100 100 100 92 70 94 97 98 96 63 85 95 91 100 100 100 100 100 100 100 100 100 99
35 42 43 42 42 43 34 38 35 36 38 57 45 68 63 47 47 44 75 100 100 100 100 100 100 89 43 68 67 54 63 78 97 100 100 100 100 100 100 100 100 100 100 100
44 58 51 45 45 41 36 39 38 32 39 57 84 76 86 71 53 46 60 79 100 100 100 100 65 32 40 52 54 65 74 74 91 100 100 100 100 100 100 100 100 100 100 97
46 40 44 35 39 40 32 32 36 38 37 42 52 62 81 75 44 48 61 54 65 73 95 70 68 42 44 54 59 54 69 78 100 100 100 100 100 100 100 100 99 100 100 99
42 36 35 40 43 44 42 30 29 29 30 31 39 45 72 52 61 72 83 78 72 83 73 47 50 38 53 51 63 60 67 85 100 100 100 100 100 100 100 98 100 99 100 98
35 40 39 40 46 42 37 46 40 33 34 31 25 47 60 51 66 82 90 84 75 64 36 50 48 46 61 49 59 64 78 98 100 100 99 100 100 100 93 98 100 100 100 95
32 33 43 37 40 37 39 39 44 29 32 43 22 47 41 54 52 57 55 37 61 56 85 81 60 63 72 62 70 86 89 91 100 100 100 100 100 100 97 92 100 100 100 74
30 32 33 33 27 29 27 31 37 34 26 32 28 48 58 63 58 62 57 60 92 96 76 83 53 61 74 70 69 89 96 95 96 95 100 100 98 95 97 81 77 96 76 42
26 30 32 34 31 24 25 29 33 37 46 40 46 26 40 34 35 47 54 57 72 75 94 72 56 75 74 91 98 100 86 75 81 88 100 98 100 95 72 74 76 70 48 33
19 22 24 25 30 29 26 29 29 34 45 46 32 26 38 42 51 46 53 86 95 100 91 78 84 75 78 82 94 90 74 82 95 96 100 98 92 82 63 54 58 46 38 26
25 30 27 25 35 25 27 34 45 54 53 61 64 81 100 100 63 58 86 87 77 69 75 58 46 52 54 61 65 73 74 76 90 91 87 96 84 67 40 44 40 37 29 16
32 28 27 29 38 42 52 68 94 93 96 96 80 64 54 55 53 68 68 63 66 46 43 40 45 55 69 77 86 81 75 74 78 77 87 70 48 33 32 34 34 30 17 9
49 54 56 46 48 40 44 58 57 40 48 50 50 64 63 52 49 51 52 53 52 45 47 52 57 68 91 95 99 92 90 84 95 97 86 60 29 27 29 29 26 18 9 8
66 59 53 44 39 36 48 84 54 47 48 52 58 53 47 47 38 43 49 44 42 51 60 65 76 86 94 95 85 93 87 86 98 88 79 37 23 24 24 20 16 9 8 8
98 89 74 84 60 55 70 59 59 52 49 53 53 57 62 66 70 67 67 75 76 93 100 100 100 97 98 89 81 83 73 59 64 55 42 22 20 23 17 14 10 8 8 8
58 60 62 58 68 66 71 66 53 58 57 59 62 66 66 76 90 100 100 100 100 100 100 95 92 87 83 72 78 67 59 52 41 30 18 18 20 17 14 9 8 8 9 8
54 45 46 65 63 59 52 50 68 89 83 77 93 100 100 100 100 100 100 96 91 92 76 68 64 67 65 64 60 50 37 28 20 15 14 17 16 14 10 8 8 8 8 6
89 96 86 82 69 71 77 96 100 95 82 94 100 94 69 66 73 73 70 57 54 56 59 60 63 56 52 44 38 26 18 15 13 12 15 14 13 11 7 7 8 9 7 6
82 99 92 74 93 78 84 90 92 96 92 78 74 68 67 68 70 68 55 56 58 65 57 48 39 34 27 18 15 15 13 11 12 14 12 12 10 8 7 8 8 8 7 6
53 52 50 53 64 60 68 72 70 63 58 57 61 71 67 62 60 55 54 55 47 37 34 19 13 11 12 13 13 10 10 13 12 11 11 10 7 6 8 8 8 7 6 6
60 58 60 53 63 71 70 64 62 72 68 64 63 72 74 69 62 61 47 40 30 16 11 10 11 13 12 10 8 10 13 11 10 11 8 7 6 7 8 8 7 6 6 5

GFSCGP_250_rhum_003.txt.gz
RH
16 16 18 24 23 22 23 25 29 29 30 35 47 54 68 70 72 76 80 100 100 100 94 88 100 100 98 91 98 95 78 79 78 60 63 79 90 100 90 86 91 100 100 92
16 16 15 15 17 19 22 24 25 25 27 32 36 40 55 57 88 90 90 98 94 98 98 100 100 100 87 66 60 56 63 67 71 66 67 81 84 90 99 100 94 82 87 91
18 17 15 17 17 20 21 18 17 19 26 29 28 52 59 62 55 52 61 88 100 100 98 100 100 100 98 83 74 42 43 42 39 48 59 67 75 96 98 90 88 99 100 99
23 22 22 22 21 20 19 17 22 19 26 25 26 26 27 44 48 56 54 73 86 91 100 100 100 91 96 90 78 72 45 47 57 64 57 58 68 79 80 86 99 100 100 100
26 25 22 25 32 33 33 23 22 28 23 25 41 28 18 26 27 37 65 66 77 100 100 100 100 100 98 92 59 56 78 80 86 66 53 51 66 75 78 92 97 100 100 100
34 32 36 34 38 39 39 40 32 33 29 24 38 59 45 19 21 28 38 42 55 86 96 100 100 99 100 100 100 100 55 51 67 54 56 68 96 93 89 97 93 91 88 90
32 40 37 51 54 52 38 35 37 38 38 41 45 50 53 45 37 39 51 40 56 71 80 86 76 100 91 84 82 56 40 53 60 60 66 72 79 78 83 86 95 96 100 97
38 45 54 56 49 52 50 42 32 35 35 53 76 82 81 55 45 47 46 41 50 61 64 48 34 29 28 33 40 40 39 52 56 66 67 78 80 74 80 85 89 85 100 100
42 47 55 44 40 51 49 45 36 29 33 32 43 60 65 63 58 42 30 31 29 37 26 26 29 33 43 47 53 56 58 56 59 71 76 71 67 66 76 76 82 94 91 92
40 36 34 32 41 44 43 35 29 26 28 24 33 48 36 39 35 29 27 19 39 53 51 56 44 52 41 50 62 70 68 50 43 52 62 63 73 81 88 88 90 94 95 90
41 47 29 30 33 36 41 46 32 31 31 28 23 36 33 21 18 20 29 30 38 28 24 25 37 37 48 60 83 89 51 52 55 68 56 57 69 87 93 95 100 100 88 70
30 24 23 24 28 30 31 32 30 23 21 23 15 28 30 30 29 35 38 38 39 43 54 70 71 78 91 94 87 71 58 67 66 59 55 61 76 98 100 100 100 89 82 64
24 22 22 22 23 24 29 29 29 25 22 20 18 21 29 35 40 38 42 54 71 72 92 83 84 93 87 82 80 89 99 86 67 50 75 88 100 100 100 96 82 74 67 50
20 19 20 20 20 22 26 34 38 46 47 38 54 42 53 54 55 60 67 81 81 75 83 99 98 90 95 100 100 84 62 57 58 76 90 98 99 91 83 71 63 55 36 25
25 29 26 34 35 38 40 48 57 68 71 61 72 78 74 76 82 94 90 86 89 95 89 96 100 100 99 73 60 54 55 83 98 92 70 69 65 60 54 54 44 30 27 19
35 39 39 48 62 60 68 91 84 66 62 74 73 63 68 88 85 75 99 88 80 79 66 55 47 48 64 88 94 90 83 65 52 48 52 52 45 36 32 29 22 20 17 12
49 42 48 63 81 83 100 100 93 75 72 63 47 44 42 48 41 36 42 54 64 60 52 62 87 96 86 68 49 44 45 45 47 47 46 42 29 23 18 15 15 12 11 13
71 64 64 55 57 53 69 49 36 37 40 45 46 46 47 49 66 95 78 57 67 85 88 74 62 60 53 50 51 52 51 51 44 34 26 18 13 13 15 14 11 11 13 12
69 65 57 54 48 46 61 53 49 47 47 56 70 68 66 60 56 61 67 73 70 64 56 56 56 54 52 48 47 49 44 34 27 15 10 10 14 13 10 12 12 11 11 11
80 68 62 51 47 52 89 84 84 82 90 78 76 77 75 75 66 74 73 65 59 62 64 52 50 47 48 39 34 28 22 16 11 11 12 12 9 9 12 12 11 11 11 8
72 75 99 100 94 87 86 78 72 65 56 59 65 70 69 66 64 59 60 70 63 58 58 63 56 48 31 27 21 15 13 12 12 12 9 8 9 12 11 10 10 11 8 6
61 63 69 66 59 53 49 46 54 51 46 57 54 63 67 57 59 73 72 58 67 68 58 56 46 31 25 19 17 14 13 13 12 10 8 10 12 11 10 10 10 7 6 7
56 62 60 55 46 42 44 47 52 64 71 68 64 62 63 61 78 83 72 73 79 66 53 47 31 22 20 18 16 15 13 12 10 11 13 13 11 10 10 8 6 6 6 8
43 53 60 46 47 48 64 86 92 83 76 74 77 67 70 83 88 65 82 81 70 45 40 31 22 21 19 17 17 16 14 13 13 13 12 10 10 10 8 6 6 6 8 7
54 70 55 50 66 63 94 91 77 72 83 76 71 81 95 98 97 99 97 77 55 35 30 22 20 19 18 18 18 16 15 14 14 12 10 10 10 7 6 5 6 7 7 7
75 77 75 51 60 63 64 69 78 96 85 70 72 80 95 93 91 85 85 63 39 28 21 19 18 17 16 17 16 14 13 13 11 10 10 8 6 5 5 6 7 6 6 6

GFSCGP_250_rhum_006.txt.gz
RH
15 14 15 16 22 24 25 26 24 23 26 29 40 47 44 71 91 82 82 91 82 100 100 98 100 100 98 94 91 93 62 46 47 48 54 63 62 59 52 44 49 55 63 70
16 16 17 20 26 24 22 22 24 21 23 29 39 38 38 44 59 60 49 54 60 63 74 60 77 97 90 90 80 66 46 37 37 41 42 40 41 44 46 47 53 54 64 70
18 16 17 17 17 20 22 21 18 16 17 34 26 25 27 34 33 41 51 50 65 87 100 72 76 75 81 75 70 59 45 30 32 42 53 44 56 63 68 68 72 73 80 87
19 19 19 18 18 21 25 20 18 16 22 20 27 26 32 42 42 47 62 62 70 82 88 89 74 71 69 79 78 78 69 47 53 61 59 50 65 63 57 56 55 54 56 63
19 21 23 21 25 28 29 27 32 21 20 25 25 24 25 31 42 44 38 34 39 55 63 65 59 51 63 79 81 78 71 91 100 100 100 100 100 100 87 74 64 58 55 57
20 24 27 27 29 37 42 31 26 29 32 30 26 24 22 17 15 20 26 19 21 34 36 34 39 41 52 57 59 54 92 100 99 100 99 100 100 86 64 57 58 63 60 66
22 23 26 34 46 60 48 45 32 22 28 32 32 33 32 24 19 16 15 16 16 23 25 31 31 36 38 32 58 94 70 65 60 56 62 72 82 76 72 69 61 53 55 54
25 23 34 34 47 38 38 37 39 45 42 43 39 35 29 24 22 24 27 28 30 33 31 30 32 28 35 56 63 55 48 43 50 59 68 68 57 50 48 49 45 44 54 65
23 31 36 37 41 41 45 46 43 42 42 44 41 36 30 29 26 27 26 28 34 48 45 44 58 68 56 64 68 61 50 57 64 65 63 51 52 64 70 58 61 77 87 90
26 25 32 42 40 38 28 30 32 32 28 27 29 34 39 31 27 26 28 49 60 61 62 58 50 48 56 62 63 66 71 62 54 53 58 72 82 82 78 70 61 52 47 48
22 23 26 28 25 21 21 22 24 25 27 27 24 41 47 38 28 28 43 44 44 46 47 46 42 39 39 45 52 59 61 63 78 96 99 92 74 57 49 42 41 43 42 41
21 24 24 24 22 22 23 22 21 20 25 31 29 52 51 52 46 68 59 51 48 50 46 34 33 43 54 68 66 76 97 100 86 79 67 57 47 44 45 44 43 41 44 37
20 22 22 19 20 20 22 30 36 44 47 45 40 33 35 33 39 45 52 50 47 50 50 65 83 96 89 99 99 82 70 76 89 66 48 48 51 52 46 42 39 36 27 19
18 18 18 20 26 38 71 84 82 79 94 78 86 62 57 58 60 66 61 59 81 93 96 92 90 99 84 63 62 82 88 71 54 52 50 55 50 42 29 24 20 16 12 10
34 32 36 48 49 50 64 59 69 83 82 64 72 82 75 71 65 61 76 93 81 70 74 80 74 65 61 60 72 67 56 52 54 56 51 43 35 24 19 15 13 12 11 12
61 56 56 100 71 72 94 80 86 86 88 81 66 65 68 72 80 89 79 66 85 82 68 56 50 60 62 66 66 56 58 62 57 45 35 30 19 16 14 13 11 11 11 9
58 52 58 82 88 78 96 82 83 70 64 61 64 69 80 88 76 65 56 73 76 65 58 49 61 71 75 62 54 54 63 53 38 32 27 17 15 16 15 14 12 10 10 10
66 64 63 54 50 54 65 48 50 47 46 54 67 58 46 44 53 64 84 79 61 87 85 77 72 63 56 59 54 54 50 32 25 23 18 17 17 17 17 15 14 14 14 13
58 60 56 57 47 53 83 61 60 54 60 58 53 48 49 62 67 65 55 65 87 100 98 87 68 58 62 54 59 55 32 26 21 19 19 18 18 17 16 17 16 15 14 12
75 66 65 56 53 54 64 54 48 46 44 43 44 47 50 48 53 62 64 62 65 70 69 73 61 64 72 64 52 37 24 22 18 18 18 17 16 15 14 13 13 12 11 11
76 59 62 57 66 54 51 41 39 41 40 44 48 45 48 59 65 64 56 57 62 76 67 69 70 72 63 56 38 26 20 18 16 15 15 15 14 12 12 11 10 10 10 9
46 45 53 56 43 38 36 34 41 44 42 45 46 57 70 67 68 66 68 83 91 78 88 86 79 68 62 44 24 19 18 16 14 14 14 13 11 11 10 10 9 9 7 6
55 68 59 49 41 37 38 49 52 48 53 54 61 76 71 74 82 78 80 82 75 71 78 67 56 54 36 22 18 17 15 14 13 13 12 10 10 10 9 9 8 6 5 6
63 76 80 48 69 52 65 72 78 100 100 100 92 77 78 80 88 94 70 67 67 68 65 60 49 28 20 19 17 15 13 12 12 12 11 10 10 9 8 6 5 5 5 6
78 80 52 42 59 55 84 95 100 97 81 71 74 87 100 99 100 81 77 69 66 61 52 40 26 19 15 13 12 12 11 12 11 10 10 10 9 7 5 5 5 5 6 6
95 74 66 62 79 82 100 100 84 77 81 90 99 98 96 86 83 78 72 72 61 44 33 21 17 14 12 11 10 10 10 10 10 10 9 8 5 5 5 5 5 6 5 6

GFSCGP_250_rhum_012.txt.gz
RH
14 13 13 12 14 17 21 21 26 30 30 36 33 31 29 28 34 39 28 27 35 48 37 42 38 36 39 30 26 29 32 32 27 26 28 31 36 46 45 47 52 52 53 55
17 16 15 14 14 15 20 22 22 25 25 24 23 20 18 19 22 24 23 22 22 27 28 29 29 35 35 34 29 30 31 29 31 38 45 50 56 67 77 75 82 88 87 76
17 17 17 15 14 15 16 17 19 24 25 23 22 21 19 18 17 17 18 19 20 24 31 27 26 26 24 27 30 28 30 38 53 80 99 100 100 92 81 87 91 80 73 76
20 19 19 17 16 16 17 20 20 19 20 24 21 21 21 20 18 24 26 24 28 28 28 30 28 25 29 30 32 56 69 87 99 96 90 82 72 68 68 61 56 54 51 51
21 21 21 18 19 18 19 18 18 19 20 23 27 23 22 23 25 26 25 27 30 34 37 38 32 31 32 43 65 81 78 73 77 69 64 64 60 51 43 41 40 40 38 40
37 22 21 20 21 21 20 20 21 22 26 25 27 30 38 36 33 30 31 34 34 35 35 35 43 47 51 56 56 67 70 68 63 63 60 62 48 41 45 43 40 37 37 39
64 47 22 22 22 24 22 23 26 24 23 24 26 26 27 29 31 30 27 28 30 30 32 38 41 46 50 55 63 62 63 64 62 55 52 46 46 48 47 46 49 50 44 45
34 44 33 20 22 24 20 23 19 19 22 24 24 29 21 21 21 23 28 30 35 46 57 60 60 62 61 60 63 62 58 48 45 46 50 50 53 58 58 57 60 49 44 43
31 36 31 22 20 21 22 24 24 23 25 31 30 24 20 23 30 40 48 55 63 63 57 51 51 57 60 63 55 49 46 43 42 51 51 54 68 71 65 58 50 46 49 51
22 27 26 20 16 16 18 19 20 24 25 23 23 28 27 35 44 58 68 61 59 59 59 63 64 63 59 54 48 41 40 44 51 59 68 64 71 62 61 60 55 48 46 44
21 21 23 18 16 16 16 17 17 17 19 20 24 48 38 57 67 72 68 81 78 64 56 52 50 44 38 38 40 46 51 54 62 73 83 75 66 66 58 53 50 39 40 36
18 18 19 18 16 16 16 17 18 19 19 25 40 67 63 64 64 61 67 56 48 44 36 33 32 35 40 45 55 63 71 84 89 88 84 77 74 63 57 55 51 45 37 28
30 30 32 31 27 25 24 25 28 33 42 49 64 58 61 47 45 35 33 38 39 38 35 40 49 55 59 80 87 92 99 91 87 93 74 68 76 64 59 58 49 33 22 19
40 33 36 38 39 54 54 44 47 50 51 43 47 40 37 39 42 54 54 42 46 46 52 58 73 75 72 77 89 97 99 100 94 78 71 73 68 65 53 41 26 19 17 15
53 48 42 39 41 71 84 51 44 41 40 35 34 42 44 59 66 60 57 52 56 73 78 85 74 70 84 95 100 100 96 85 74 77 71 55 54 42 29 20 16 14 12 11
48 49 50 66 49 52 78 51 43 44 43 42 47 60 66 71 62 56 61 65 73 69 69 65 70 84 97 98 85 87 84 80 71 58 52 47 40 23 15 14 11 9 8 8
47 45 59 92 89 95 95 64 45 41 53 60 64 72 67 71 64 72 68 68 63 54 67 88 90 89 87 83 83 77 74 69 63 52 42 28 19 14 12 10 8 8 8 8
54 49 50 50 50 54 84 52 45 55 79 87 74 69 69 64 57 56 54 56 60 84 99 98 100 100 100 89 93 88 71 66 59 40 28 18 14 11 9 8 8 8 8 9
52 54 54 54 43 45 79 63 53 63 89 89 82 78 62 51 58 72 65 72 92 100 100 100 91 92 99 79 84 64 53 46 32 24 16 12 9 8 7 8 8 8 8 9
65 56 55 48 43 42 82 44 55 84 93 69 60 51 49 63 71 76 82 81 100 99 100 98 92 99 86 74 61 53 36 27 20 15 12 9 8 8 8 9 9 8 8 8
67 77 70 52 50 58 76 78 99 93 58 51 50 54 77 76 79 90 95 89 100 100 99 96 93 89 67 58 48 25 19 15 12 10 8 8 8 9 9 9 9 8 6 4
62 63 65 65 65 86 89 91 94 66 66 63 58 74 80 89 98 86 93 100 94 97 81 81 88 81 60 49 26 16 14 14 10 8 7 8 8 9 9 9 6 5 4 4
81 92 72 62 85 96 78 91 74 74 66 57 66 77 90 85 93 100 99 96 95 83 74 97 85 67 40 25 19 15 13 9 7 7 8 8 9 8 6 5 4 4 4 5
100 100 75 71 98 82 74 66 66 62 63 70 90 94 98 100 100 93 69 66 64 71 83 82 62 37 21 20 14 13 9 8 8 8 8 8 6 4 4 4 4 5 6 6
100 88 64 60 69 65 70 74 83 92 98 100 100 100 99 98 79 65 76 67 68 77 73 59 36 21 17 13 12 8 7 7 8 7 6 4 4 4 4 4 5 6 6 6
98 73 70 75 84 76 75 85 98 100 100 100 100 90 73 69 72 67 67 64 72 80 62 31 16 14 12 9 7 7 7 8 7 4 4 4 4 4 4 6 6 5 6 6

GFSCGP_250_rhum_015.txt.gz
RH
14 14 13 13 13 14 17 19 22 26 27 28 29 33 38 32 21 17 16 16 18 22 26 24 22 22 24 27 24 23 23 25 28 30 44 53 47 46 47 54 59 60 56 63
17 15 14 14 14 15 16 18 21 22 23 23 28 24 24 21 20 19 18 18 26 35 34 28 26 23 27 25 21 22 25 27 35 57 57 57 56 58 68 84 97 92 85 83
18 18 16 16 15 16 17 18 19 18 17 14 18 19 20 22 22 24 26 31 36 35 31 29 24 26 29 27 32 38 50 64 73 67 68 76 87 89 88 88 84 91 80 64
22 21 20 20 19 18 18 16 15 16 17 17 18 20 23 30 32 31 34 36 38 36 30 27 27 31 30 32 44 76 79 78 81 95 94 84 74 63 60 57 60 61 58 56
36 26 23 22 23 20 18 17 18 17 17 19 19 24 30 27 32 33 28 27 30 30 29 26 26 28 34 57 92 96 89 80 80 79 70 59 56 54 52 51 48 53 61 58
36 47 35 24 24 20 17 19 20 21 21 25 25 25 25 25 25 23 22 23 23 24 29 36 45 63 82 91 79 68 62 62 62 56 58 58 53 52 53 56 58 47 42 42
33 30 41 48 28 21 18 18 20 24 26 24 22 21 20 20 19 20 23 25 29 47 62 75 84 83 75 72 65 53 52 52 52 49 45 47 56 60 61 59 46 46 53 60
28 32 30 29 36 22 19 18 16 19 23 21 21 19 20 19 20 24 31 38 56 66 69 64 66 66 61 48 39 37 39 46 50 49 46 43 44 48 50 56 62 66 68 67
20 22 29 29 30 29 19 17 17 19 20 21 24 23 21 18 24 37 51 64 70 61 51 42 56 62 44 42 45 46 43 43 40 48 52 61 69 73 78 85 92 93 77 69
18 19 20 23 25 24 19 16 15 16 17 17 19 20 17 24 40 61 67 68 57 48 50 55 52 47 53 59 51 43 43 50 60 60 76 80 79 83 93 100 99 90 71 66
24 20 18 20 20 19 18 16 15 15 16 17 18 29 30 46 62 70 60 54 53 56 55 63 62 59 60 53 42 45 59 73 82 96 95 100 94 97 100 93 83 70 62 52
32 32 32 31 28 25 22 21 20 21 25 35 45 48 60 61 66 61 69 64 64 58 51 55 51 51 47 47 52 70 72 87 99 100 100 100 100 100 90 81 62 53 46 35
44 37 36 39 37 36 36 33 31 39 50 60 58 55 59 55 64 61 61 48 41 44 54 52 54 63 61 60 64 76 82 95 100 100 100 100 100 97 81 66 51 33 21 16
52 48 54 44 37 48 41 35 35 42 46 46 64 57 57 57 56 54 52 55 61 59 56 65 64 62 72 77 85 97 100 100 100 100 100 94 86 78 57 36 20 15 13 11
58 57 51 50 47 50 68 48 40 41 44 48 49 47 47 68 71 71 75 70 56 59 68 71 69 81 81 96 100 98 100 100 100 97 84 81 60 40 27 21 17 13 9 8
48 59 67 71 54 50 56 50 46 50 47 46 46 46 54 68 72 74 71 59 59 63 75 79 85 100 100 95 100 100 100 100 88 77 70 52 28 17 14 12 10 8 7 7
35 45 53 64 63 61 68 62 55 55 59 65 71 69 79 83 81 84 64 62 63 66 81 93 94 96 98 100 100 100 85 83 74 66 43 18 13 12 10 8 7 7 7 8
37 44 48 54 49 74 88 66 63 55 61 61 80 80 82 64 62 63 63 65 70 86 100 91 88 100 100 96 98 71 80 66 55 50 16 14 12 9 7 7 7 7 7 8
40 48 45 45 49 53 59 59 56 54 57 59 70 75 70 63 61 69 78 90 97 89 83 81 94 91 97 75 65 69 62 54 42 15 14 12 9 7 7 7 7 7 6 6
48 49 47 47 46 50 51 56 56 46 42 44 49 57 63 73 86 91 88 80 78 72 83 87 90 86 74 66 52 52 44 32 14 12 12 9 7 7 7 7 6 5 4 4
54 51 57 47 44 56 56 47 44 44 53 61 73 84 90 70 73 84 80 79 79 77 74 88 90 72 53 51 50 36 25 14 11 11 8 7 7 7 7 4 4 4 4 4
63 53 58 50 43 52 50 57 61 70 82 98 92 74 73 81 74 66 61 80 86 81 93 76 59 55 50 43 33 19 12 11 11 8 7 7 7 5 4 3 4 4 4 4
98 63 47 41 65 62 63 77 84 90 85 85 86 86 76 66 60 72 91 99 82 77 64 48 48 51 40 28 14 11 11 11 8 7 7 7 5 4 4 4 5 4 4 5
78 70 53 55 74 69 83 86 95 88 89 87 74 69 67 67 89 100 92 72 61 52 51 45 41 36 26 12 11 11 9 7 7 7 7 5 4 4 4 5 5 5 6 6
75 68 71 71 84 86 96 87 93 94 92 77 67 71 83 74 82 82 66 56 50 43 32 31 31 21 12 12 11 8 6 7 7 6 5 4 5 5 6 5 5 6 5 5
97 85 80 76 83 95 89 88 96 80 68 67 80 88 89 81 75 69 65 43 26 22 23 17 13 12 11 10 8 7 7 7 6 5 5 5 5 6 6 6 6 5 4 4

GFSCGP_250_rhum_021.txt.gz
RH
14 14 14 14 13 13 13 12 12 12 13 13 14 16 18 20 22 22 28 30 26 21 20 19 22 24 27 26 25 24 27 29 36 50 55 53 56 66 67 55 45 37 38 41
16 16 15 15 14 14 14 12 12 13 16 19 24 28 28 26 26 26 27 23 20 20 20 23 26 25 24 23 24 40 47 49 48 52 57 64 73 63 46 40 39 41 51 51
18 17 17 16 16 15 14 14 13 14 17 20 22 22 22 23 21 18 19 20 20 22 26 24 22 23 25 33 47 58 59 59 55 55 66 66 54 46 44 46 48 52 53 51
21 18 18 17 16 16 16 14 14 15 15 16 18 16 21 18 17 18 18 20 21 24 22 21 23 25 35 48 66 68 66 60 68 76 59 56 54 49 50 49 54 58 57 61
26 25 26 21 18 18 17 17 16 15 16 16 18 17 16 17 17 16 18 21 23 23 24 27 24 32 54 69 72 74 70 73 67 60 53 56 48 47 52 52 64 74 84 93
22 25 30 35 34 26 20 20 19 19 16 15 16 18 14 20 16 18 21 23 25 26 28 27 24 41 70 77 70 73 66 54 52 58 56 52 53 58 62 72 79 86 95 93
25 21 19 21 28 32 36 38 26 21 20 16 17 17 15 17 17 17 19 22 25 27 24 24 32 54 78 80 82 87 69 62 63 64 57 52 55 67 75 78 89 99 90 84
20 19 20 21 20 25 28 29 31 40 27 19 18 17 17 16 18 21 23 26 23 22 28 36 60 75 75 65 61 56 54 54 49 49 58 64 71 79 88 96 99 96 96 88
30 30 30 28 23 21 22 23 26 27 33 30 22 20 17 18 19 21 21 21 30 48 60 67 67 62 56 53 52 53 60 51 54 66 73 83 89 96 100 99 92 77 83 87
45 52 56 53 44 34 29 24 23 22 23 23 20 22 16 18 18 22 37 57 65 81 73 65 65 57 49 51 58 52 44 56 72 87 92 96 99 83 77 95 100 96 93 84
58 59 58 54 51 45 40 38 38 36 37 35 38 51 40 35 43 53 62 68 61 64 59 51 44 39 40 45 45 53 62 77 88 91 90 84 90 100 98 73 67 70 70 67
53 50 46 48 52 46 42 41 44 44 50 52 45 62 63 50 49 66 64 58 54 49 47 43 37 42 50 54 59 68 77 91 87 100 100 100 78 75 68 60 63 65 56 38
44 43 40 37 36 36 36 43 49 46 47 52 57 72 60 73 69 55 48 49 44 42 42 43 51 56 62 75 84 90 100 100 99 89 82 83 76 49 56 57 53 35 18 18
42 36 33 30 28 27 28 30 37 48 52 61 62 57 56 44 37 39 37 38 45 47 46 51 60 65 81 98 100 100 100 92 85 75 67 58 51 49 52 38 17 16 14 13
39 37 42 43 47 41 29 27 30 34 43 46 45 39 37 39 44 42 44 48 49 48 58 69 83 100 100 100 100 93 76 67 59 48 48 50 51 46 24 16 14 13 13 12
52 61 59 58 49 46 36 30 29 31 37 42 38 38 42 43 45 48 46 50 64 82 89 100 100 100 88 84 78 67 60 52 48 51 46 39 32 18 15 14 13 13 12 8
64 68 63 67 58 54 35 32 34 38 39 41 39 40 43 44 41 42 50 70 73 86 97 86 84 82 76 66 54 65 62 50 46 33 28 19 15 14 13 13 12 9 7 6
68 66 65 64 60 63 43 43 49 59 46 46 40 43 43 44 47 52 58 66 86 94 89 91 84 74 65 64 66 59 50 42 33 18 15 15 14 13 12 10 7 6 6 5
66 64 64 60 57 55 44 42 47 49 42 47 42 43 46 52 57 75 85 87 92 96 94 89 74 71 74 62 58 49 38 26 19 15 14 12 11 10 7 6 6 6 4 4
75 75 64 55 62 52 49 47 55 49 51 50 54 61 68 72 81 88 100 100 100 97 84 74 70 57 54 52 41 28 24 18 13 12 12 10 8 6 5 6 5 4 4 5
86 74 70 66 59 56 48 47 49 51 45 45 50 54 60 69 81 97 99 90 78 66 66 61 55 52 43 36 27 19 16 13 12 10 8 6 5 5 6 4 4 4 5 5
80 70 74 78 65 48 52 46 45 52 48 49 57 69 71 85 90 89 82 72 68 62 51 50 54 43 35 28 17 14 12 12 11 8 6 5 5 4 4 4 5 5 6 5
91 81 88 63 84 55 45 42 39 43 48 65 74 87 87 87 88 81 71 61 54 53 60 56 42 33 28 17 14 12 11 11 8 6 5 5 4 4 4 5 5 6 5 6
87 76 88 66 74 55 60 61 55 74 84 88 89 94 94 86 75 64 58 58 67 73 57 46 34 25 20 13 11 10 10 7 6 5 5 4 4 4 5 5 5 6 6 5
88 86 77 70 66 66 65 59 65 90 93 98 93 92 88 80 70 64 71 77 74 68 49 39 25 17 12 11 10 9 7 6 5 4 4 4 4 5 5 6 6 5 5 5
100 94 63 57 56 65 50 66 88 97 100 95 88 84 85 80 77 82 82 76 67 57 41 30 18 13 10 10 8 6 5 4 4 4 4 5 5 6 6 6 5 5 6 6

GFSCGP_250_rhum_024.txt.gz
RH
59 57 61 56 43 34 26 25 18 15 14 13 12 12 12 15 18 19 20 21 20 21 21 19 19 19 19 24 24 21 22 26 36 45 46 52 47 40 40 38 36 41 43 44
27 18 17 14 14 14 13 13 13 12 12 13 15 17 22 24 25 29 25 25 22 22 18 18 19 24 23 20 21 23 28 36 45 53 58 59 50 40 38 38 41 42 42 46
16 16 16 16 15 15 14 14 14 13 13 14 16 14 23 22 22 19 23 23 19 18 18 20 21 22 20 20 22 24 30 51 69 60 55 49 42 45 44 47 49 46 48 53
19 18 18 18 17 17 17 15 14 14 14 14 18 14 15 25 18 17 16 17 17 17 21 23 21 20 20 23 24 24 29 50 73 72 61 51 51 52 51 53 56 59 60 60
24 25 29 28 23 20 19 17 17 16 15 15 16 16 13 16 18 17 16 19 20 22 21 20 20 21 22 24 25 27 46 66 62 63 58 52 53 58 62 55 59 67 71 71
26 26 27 27 27 30 28 23 21 19 18 17 16 23 15 14 15 16 18 19 20 20 19 19 20 21 22 25 37 63 68 57 52 51 54 64 77 76 79 82 74 67 72 88
21 21 18 18 19 22 28 28 30 37 43 27 23 25 18 18 16 15 16 18 19 20 18 18 20 22 35 66 76 70 68 66 70 67 62 61 69 82 71 65 73 82 83 76
18 19 20 23 21 20 20 22 25 29 32 30 40 35 24 21 19 16 15 16 17 18 19 20 25 57 80 81 71 65 66 50 42 45 57 64 62 64 67 74 81 95 99 76
47 51 57 54 47 41 37 40 35 31 26 28 26 28 27 25 27 21 19 19 21 25 34 52 74 81 76 58 54 49 46 49 58 59 60 66 86 100 100 100 84 59 52 50
64 62 58 52 45 50 52 48 50 50 53 52 37 34 30 32 39 40 40 38 49 47 65 75 65 51 50 50 51 46 42 53 68 79 94 100 100 88 75 61 54 50 51 55
58 54 51 47 47 53 52 55 58 57 59 56 63 58 35 40 36 43 48 46 71 57 56 50 48 49 46 44 46 57 73 76 82 95 99 88 77 67 56 48 43 49 51 54
49 46 45 43 38 36 34 35 35 36 39 46 57 84 54 57 44 47 48 40 44 43 40 40 42 40 48 56 64 60 61 80 92 88 78 68 57 49 49 44 44 48 47 31
52 49 43 38 36 36 36 40 46 46 39 38 33 49 66 60 64 62 53 49 53 51 50 54 57 55 60 68 71 68 88 86 82 78 65 61 52 42 48 41 40 41 30 19
50 44 41 39 39 43 43 43 39 31 32 38 36 37 40 50 44 44 40 44 44 43 46 47 45 48 46 48 68 96 85 82 82 70 58 51 44 45 44 33 26 20 16 13
54 55 54 51 55 55 53 45 44 38 37 31 38 38 38 43 46 48 44 51 45 44 41 43 48 55 78 99 91 86 90 75 58 54 53 56 40 36 26 16 14 12 11 10
59 63 64 64 65 61 65 61 55 47 41 38 35 35 39 43 46 40 43 46 48 48 50 63 81 91 76 76 80 78 65 56 59 55 53 40 33 24 15 12 11 10 9 7
63 63 62 61 58 60 65 71 64 60 49 41 42 40 44 43 45 44 47 46 44 62 68 62 69 72 85 89 72 64 62 64 62 55 40 28 16 15 10 9 9 8 6 5
66 68 71 71 67 72 63 66 64 60 54 50 43 41 39 40 46 40 42 54 59 60 71 88 95 94 81 72 74 81 70 69 52 41 33 19 9 9 10 8 7 5 5 4
64 68 71 69 67 69 63 70 83 67 54 51 47 43 42 42 41 51 54 57 68 79 90 97 88 78 84 83 67 58 61 46 36 23 16 10 9 7 6 4 5 4 4 4
82 78 79 74 64 66 61 54 69 74 61 59 56 56 56 57 62 81 92 95 100 100 100 86 79 78 75 63 60 63 50 34 29 17 11 9 8 5 5 5 4 4 4 4
68 66 84 84 86 82 63 62 64 64 52 47 52 62 56 51 64 79 84 95 92 89 72 70 68 76 83 78 68 57 38 30 19 10 9 8 6 5 4 4 4 4 4 5
70 60 62 72 75 64 58 56 53 58 47 51 56 57 53 51 64 74 78 80 85 79 67 73 84 92 79 71 62 44 27 15 10 9 8 6 5 5 4 4 4 4 5 5
65 65 58 50 56 56 53 43 42 41 46 46 44 45 51 62 76 81 80 86 86 73 72 84 87 87 79 63 48 26 15 10 9 7 6 6 5 4 4 5 5 5 5 6
80 78 68 54 63 56 61 55 43 44 45 44 50 59 78 88 88 91 98 92 68 78 91 84 87 74 66 48 27 15 10 8 6 6 5 4 4 4 5 5 5 6 6 6
100 94 83 81 76 72 48 56 50 46 50 53 63 84 87 96 96 100 96 80 80 98 95 85 72 65 48 28 16 10 8 6 6 5 4 4 4 5 5 6 6 6 6 6
100 100 99 76 64 65 60 60 56 60 66 78 89 92 100 97 99 98 83 82 93 95 78 72 65 54 35 18 10 9 7 5 5 4 4 4 5 5 6 6 6 6 6 6

GFSCGP_250_rhum_027.txt.gz
RH
29 29 32 38 44 49 55 56 55 58 48 43 41 36 25 22 19 18 16 16 16 18 22 22 22 21 17 16 19 22 20 19 21 22 23 24 32 40 46 44 46 46 45 46
64 69 54 53 57 53 46 35 26 20 20 18 16 14 14 13 14 15 17 13 15 17 19 20 16 16 18 18 19 21 22 21 22 23 20 20 27 38 46 48 49 47 45 47
49 40 32 25 19 16 16 15 14 14 14 13 14 12 17 20 14 15 18 21 18 18 17 16 15 16 16 19 23 25 24 23 22 22 20 29 45 52 53 54 54 53 55 54
19 18 18 18 18 17 17 16 16 15 15 14 14 14 15 18 17 14 17 16 18 17 18 19 19 18 19 21 20 20 21 23 22 23 45 56 57 59 60 57 48 48 49 48
24 23 22 21 21 21 22 19 20 18 17 17 16 16 16 15 18 23 22 15 15 17 17 18 19 20 22 22 22 21 20 19 28 74 81 68 62 57 47 44 53 60 67 66
29 24 23 23 22 24 28 29 29 28 26 24 24 23 20 19 20 21 26 22 19 18 18 17 18 19 20 21 20 20 26 50 64 68 58 54 48 48 62 80 94 87 76 60
22 21 22 20 19 19 19 20 26 28 33 32 37 25 20 20 19 18 18 20 20 21 17 16 16 16 18 22 33 68 76 73 55 49 46 46 45 46 47 44 40 39 41 54
18 18 25 43 37 35 36 36 40 38 34 32 25 28 27 26 21 18 16 15 18 21 21 22 35 46 42 46 50 50 49 44 44 45 46 48 50 52 50 58 63 80 86 75
40 52 57 53 50 51 54 58 52 53 51 49 36 55 63 68 47 33 26 31 33 36 32 37 46 42 46 48 46 40 38 45 54 52 51 52 59 66 93 100 100 93 78 62
55 56 56 50 46 46 45 47 49 49 50 49 43 42 43 49 50 57 48 58 68 50 57 51 46 53 48 44 42 44 46 40 43 52 55 66 87 97 91 86 80 60 54 52
60 57 49 46 43 40 38 37 42 42 43 43 50 37 31 29 29 31 44 54 60 65 56 56 54 44 42 44 53 55 54 53 56 76 95 88 76 77 79 74 59 52 51 49
49 48 46 46 42 38 38 41 36 36 37 40 41 44 34 31 30 28 28 35 36 48 42 36 37 48 64 61 50 46 54 69 74 78 84 89 86 76 66 63 58 48 34 26
54 51 49 45 40 32 34 53 67 67 72 58 43 43 41 45 52 48 62 47 55 49 52 66 71 64 52 46 53 61 65 72 85 92 92 82 71 60 59 52 48 31 24 20
54 48 47 58 73 74 69 57 53 52 53 62 61 56 39 42 51 47 44 42 42 36 34 37 36 35 41 50 60 72 84 98 99 80 66 61 54 49 41 42 34 21 20 19
58 62 59 60 63 61 59 57 54 52 50 48 52 42 45 63 50 45 42 48 45 41 42 44 45 50 60 68 77 96 100 83 76 64 64 64 50 40 35 19 13 9 9 10
60 71 70 61 64 64 67 60 59 56 58 63 58 58 48 42 42 43 43 40 39 40 42 48 57 64 71 84 91 79 80 74 63 73 65 51 42 39 25 11 8 6 6 5
52 65 72 74 69 64 63 67 59 59 57 64 55 56 60 57 43 42 43 44 48 45 45 52 67 76 78 73 70 69 67 67 86 78 60 47 34 28 13 8 7 5 4 4
56 61 66 71 75 73 60 67 71 75 60 78 64 57 54 51 43 41 44 48 54 55 54 60 70 72 79 76 77 86 87 91 98 61 49 32 22 14 8 7 5 4 4 4
66 76 84 79 67 65 59 68 83 87 82 73 64 56 47 42 37 42 46 47 47 56 71 82 91 98 98 86 88 76 88 89 57 46 32 24 17 10 8 6 5 4 4 4
100 88 76 67 64 66 64 61 67 66 59 53 55 53 48 41 52 56 56 65 68 83 92 99 95 86 92 86 82 80 75 59 49 36 31 27 11 8 6 5 4 4 4 4
66 66 61 57 68 63 62 69 83 68 60 53 48 45 42 48 53 55 60 68 77 81 85 81 79 79 83 81 85 74 69 50 37 29 25 12 8 6 5 4 4 4 4 4
68 59 62 60 61 57 66 82 89 68 65 55 48 46 49 51 61 70 74 74 70 73 77 78 87 86 79 89 86 61 56 40 30 26 11 8 7 5 4 4 4 4 5 5
76 85 65 78 77 53 60 76 73 68 48 43 48 59 55 61 61 63 66 64 67 74 81 87 86 81 94 89 64 52 40 28 24 11 8 7 6 4 4 4 5 5 6 6
100 93 80 68 85 60 66 67 67 59 48 52 64 60 62 61 62 68 71 73 79 84 80 77 82 83 91 64 50 46 33 24 13 8 7 6 5 4 4 5 5 6 6 6
100 92 86 75 63 56 54 61 68 54 54 61 66 67 66 69 75 76 77 83 80 82 86 82 85 74 59 57 45 36 27 16 9 8 6 5 5 5 5 6 6 6 6 6
100 100 99 71 82 86 76 78 62 66 69 80 76 73 78 83 77 80 85 75 82 89 84 85 64 61 59 51 37 29 17 9 8 7 6 5 5 5 6 6 6 7 7 6

GFSCGP_250_rhum_030.txt.gz
RH
20 22 25 30 31 34 32 34 33 36 38 39 39 48 47 48 46 42 36 29 26 21 21 18 21 21 20 23 20 15 17 17 20 24 23 21 19 19 18 19 20 33 53 57
22 20 29 32 30 34 46 55 54 52 52 48 42 36 31 28 24 19 16 16 16 17 17 23 24 23 22 18 16 15 16 16 17 18 19 19 19 20 20 20 35 49 54 48
61 59 62 60 55 49 47 44 36 27 21 17 15 14 13 14 14 20 26 26 20 16 17 18 17 16 16 17 19 19 19 18 18 20 22 21 21 20 33 58 62 53 47 44
42 43 34 27 20 18 16 16 16 16 16 16 18 16 15 16 17 17 16 17 16 16 16 16 16 15 16 17 18 18 18 18 20 20 18 18 36 59 59 52 48 46 38 34
19 19 19 18 19 19 18 19 18 18 19 19 17 16 17 17 18 18 18 17 18 20 22 18 16 17 18 17 17 16 17 18 18 21 48 67 59 54 59 50 40 36 46 60
21 22 23 23 26 29 26 24 23 24 25 24 21 20 24 25 27 31 39 34 28 34 31 22 24 21 20 25 19 21 27 41 54 57 53 58 65 53 43 45 50 54 51 51
31 27 25 23 20 19 19 19 21 23 22 22 29 28 27 25 26 29 30 30 31 32 32 30 20 21 43 43 52 54 62 60 55 56 59 50 40 37 38 42 48 50 54 56
24 24 23 33 46 43 52 53 54 55 50 43 48 49 42 28 30 31 38 51 61 64 60 44 39 50 54 61 57 53 46 52 62 59 48 45 52 55 50 54 55 71 79 73
38 52 57 57 58 55 51 52 53 51 46 43 45 44 42 40 34 32 33 34 34 32 32 29 28 29 28 36 39 38 38 44 52 59 57 43 38 43 53 68 92 90 64 66
56 61 59 48 46 48 47 43 43 44 41 37 38 36 36 36 36 38 32 28 27 27 28 34 34 36 44 48 48 44 44 43 34 32 40 48 54 69 83 80 68 61 58 53
67 61 54 50 49 46 44 40 40 52 60 46 34 31 33 36 31 32 37 38 35 34 34 33 35 42 40 37 34 35 37 43 49 47 54 65 73 72 63 62 62 66 55 46
60 58 55 50 47 46 49 58 56 38 32 46 51 46 46 43 40 42 40 43 44 44 42 41 40 38 41 44 46 49 53 48 53 64 66 64 61 69 61 60 67 53 49 42
57 55 55 50 48 50 53 56 59 66 68 57 52 48 48 47 51 47 43 42 41 42 43 43 43 43 44 47 46 43 43 51 57 62 64 68 65 61 67 74 65 55 43 30
66 58 54 51 47 50 58 62 68 66 64 59 52 60 55 50 56 60 54 50 45 40 39 39 39 38 39 40 46 50 59 69 72 75 71 68 75 75 73 50 41 33 23 18
65 57 52 66 70 72 74 71 61 54 47 43 41 45 54 66 62 59 59 54 50 45 38 39 43 44 47 53 60 67 72 74 75 76 76 74 71 71 48 40 34 30 15 7
60 50 48 53 63 68 67 63 54 50 53 47 48 52 51 52 55 53 50 48 44 39 41 49 51 50 58 62 69 76 69 77 84 88 83 86 77 57 36 26 21 11 7 5
57 54 56 60 66 70 71 68 52 57 68 73 66 55 51 52 50 50 45 42 40 44 53 54 55 61 67 74 70 65 84 84 90 93 91 77 53 42 26 18 12 7 6 5
56 58 64 77 84 85 73 63 56 62 73 71 73 74 76 75 68 65 58 48 45 54 60 64 69 73 70 68 74 80 84 96 99 97 69 48 36 29 22 16 8 7 5 4
66 93 98 92 76 66 57 60 52 59 68 61 66 62 61 63 65 65 57 52 60 66 68 71 68 68 74 82 85 82 84 99 79 61 45 43 40 25 18 9 6 5 5 4
96 83 68 67 61 57 56 60 73 73 73 72 72 59 69 78 79 61 58 60 61 67 69 67 74 76 77 82 78 90 93 78 67 52 43 41 28 18 11 7 6 5 4 4
68 64 77 61 58 62 56 68 72 71 63 75 65 63 73 78 71 69 67 63 72 75 73 73 72 76 78 89 94 90 66 61 52 43 36 30 17 11 7 6 5 5 4 5
100 100 100 94 88 74 65 72 80 67 73 78 63 70 74 76 70 72 76 78 70 66 66 66 73 84 88 93 74 59 56 57 49 42 36 19 14 8 7 6 5 5 5 5
100 100 99 99 99 88 80 83 73 68 77 82 77 67 72 72 74 71 68 64 64 64 67 81 93 97 90 71 60 58 51 51 45 35 21 14 8 7 6 6 5 5 5 6
100 100 100 87 83 78 85 92 76 70 88 100 86 76 78 68 57 58 58 62 70 80 98 98 93 91 78 64 59 54 49 47 31 21 13 8 8 7 5 6 5 6 6 7
100 85 82 72 76 82 90 88 75 82 94 81 72 75 66 58 63 65 70 84 95 97 98 95 91 76 65 62 61 52 44 31 20 13 8 8 7 6 6 5 5 6 7 6
99 87 72 69 79 77 79 69 66 74 72 76 79 77 73 80 75 80 85 92 89 92 96 95 86 67 56 53 41 41 25 19 13 9 8 7 6 6 6 5 6 7 7 7

GFSCGP_250_rhum_033.txt.gz
RH
67 46 41 44 49 65 72 73 67 77 84 92 88 78 58 60 64 55 52 44 47 44 40 33 32 32 33 29 39 73 100 84 82 76 33 16 15 16 16 17 18 18 18 19
16 18 26 31 33 37 41 36 39 41 42 40 38 40 42 41 40 40 35 29 24 21 18 20 24 23 25 53 30 46 29 20 16 17 17 18 17 17 18 18 19 20 26 43
17 24 26 31 33 34 37 38 44 49 49 46 45 41 29 22 17 15 16 16 14 15 18 21 24 25 26 25 22 19 18 17 17 17 16 17 17 17 18 21 30 40 41 37
38 39 47 56 59 56 48 36 34 34 28 22 19 16 16 19 20 17 16 15 15 16 16 17 18 17 17 17 16 15 16 17 18 18 19 20 26 34 39 38 36 33 32 34
61 48 44 43 43 31 19 20 18 18 16 16 16 18 19 19 19 19 20 22 22 21 20 19 18 19 20 18 17 18 17 18 20 28 34 42 48 49 44 40 43 47 47 45
28 25 21 21 21 20 19 19 20 21 20 18 20 23 30 28 28 29 30 30 31 33 31 29 26 25 22 22 30 32 34 43 47 54 57 55 51 48 48 46 50 54 45 42
22 21 22 22 21 20 19 18 17 20 26 28 28 32 38 45 54 57 60 59 55 61 68 62 55 44 41 43 53 56 58 61 65 68 69 65 55 48 45 42 41 50 53 50
25 22 22 22 21 20 25 38 42 43 54 48 46 42 41 38 38 36 34 32 31 33 29 30 34 38 36 40 45 47 48 46 49 50 50 48 49 53 54 59 60 47 45 50
21 23 38 51 58 64 63 51 43 41 40 38 42 41 33 33 32 31 31 30 38 50 56 49 42 39 39 43 43 43 51 54 53 55 58 53 51 53 52 43 44 51 56 61
46 68 72 67 52 46 44 42 41 40 40 44 48 50 47 44 43 40 39 38 37 38 42 44 44 44 44 44 44 44 44 47 48 48 48 48 44 42 42 48 56 60 60 53
74 65 57 50 50 50 49 45 46 50 48 50 49 40 39 42 41 40 40 38 35 34 36 38 40 42 40 41 40 41 42 40 39 37 37 37 39 46 59 60 58 59 49 45
69 64 57 53 52 52 52 56 61 62 59 48 38 43 48 42 41 41 44 48 49 52 57 55 52 48 44 37 34 35 39 39 41 40 40 49 61 66 62 60 55 46 47 53
64 60 56 56 55 54 55 62 65 60 53 44 47 45 42 39 37 36 36 36 38 39 42 43 42 41 38 34 35 40 43 44 46 54 60 68 67 67 69 59 53 57 46 40
65 64 66 61 59 57 68 72 68 65 60 57 52 44 42 37 35 36 43 49 48 45 46 43 38 36 37 43 48 50 54 56 58 64 67 68 68 70 68 63 54 44 36 24
76 75 68 62 53 53 60 61 61 62 62 55 46 47 46 50 50 49 46 44 50 55 56 50 44 47 53 54 53 52 55 60 66 68 77 69 80 82 67 52 42 32 20 14
89 84 74 64 52 55 62 59 62 69 56 45 46 47 57 61 57 57 52 54 61 68 68 54 52 55 51 52 57 62 61 62 70 73 82 89 80 68 49 40 25 20 14 11
84 72 69 69 60 66 79 69 71 59 49 42 48 55 62 61 62 72 62 59 63 68 58 56 52 52 58 57 58 61 66 75 78 92 92 85 72 49 40 30 25 15 10 9
73 69 67 68 80 82 88 79 59 49 50 44 56 63 55 60 75 84 71 71 73 63 63 63 63 62 58 59 63 72 72 87 91 91 84 81 55 48 36 30 17 12 9 8
72 73 84 100 91 78 82 68 48 45 54 58 68 80 75 78 80 76 65 60 67 72 68 62 62 62 64 73 88 90 86 90 93 93 74 62 55 32 25 18 14 10 8 7
92 100 91 70 66 59 100 62 51 57 78 80 78 94 86 77 78 74 64 70 76 72 71 70 70 73 82 89 90 87 94 94 86 82 60 45 31 26 17 13 10 9 7 6
70 75 60 56 88 100 99 65 74 95 86 80 90 91 93 85 77 68 70 71 74 81 82 80 82 87 88 90 87 96 91 82 76 62 57 38 31 25 13 11 9 8 6 6
86 60 64 92 100 99 98 93 99 97 82 85 87 98 93 83 72 70 76 80 91 95 89 86 86 90 91 93 99 86 69 75 70 58 44 38 32 17 11 10 8 6 6 6
91 79 92 100 100 97 83 92 98 83 87 89 93 90 85 93 93 99 99 88 98 94 90 83 95 94 94 98 84 67 63 56 50 49 41 30 18 12 10 8 7 6 6 5
86 95 100 100 100 95 74 87 85 92 86 84 86 88 98 99 96 94 92 95 93 88 86 100 95 99 95 88 69 64 57 54 45 41 23 16 12 10 8 7 6 6 6 5
99 100 100 92 91 80 100 99 99 100 92 88 78 86 79 84 97 93 92 94 90 96 100 100 99 93 92 72 63 60 53 50 37 28 15 12 11 8 7 5 6 5 5 5
100 94 74 73 92 94 98 98 100 100 93 77 78 76 89 91 88 98 98 100 99 94 100 98 96 88 67 64 62 49 45 37 32 23 13 11 8 6 5 5 5 5 5 6

GFSCGP_250_rhum_036.txt.gz
RH
89 84 89 94 100 98 95 91 88 92 94 96 99 100 100 100 97 94 88 90 71 67 64 66 56 40 32 27 27 59 100 100 100 100 100 100 100 95 76 55 16 18 18 18
72 77 77 77 78 80 79 78 77 75 72 72 69 62 62 74 72 65 59 58 48 40 31 21 23 34 44 78 62 58 52 72 72 61 74 58 68 34 18 17 19 19 20 25
57 43 46 36 26 35 46 51 43 38 33 36 39 42 45 44 42 42 40 31 20 16 17 25 28 30 31 28 29 29 25 23 21 21 21 20 18 18 19 20 20 31 41 41
14 13 14 17 26 33 32 36 40 47 52 50 50 36 25 24 24 21 18 16 15 16 17 18 16 16 16 16 17 17 17 18 21 27 24 21 20 23 31 46 47 41 37 38
48 52 46 42 40 44 51 51 51 45 39 25 18 18 18 16 17 17 18 19 19 19 20 20 21 25 26 28 29 30 34 47 47 33 38 47 48 44 39 34 33 34 37 38
59 57 51 47 47 43 38 29 22 19 18 19 22 22 21 24 25 25 24 25 35 41 41 37 36 35 33 33 32 31 33 34 34 31 30 29 29 30 33 35 36 37 37 35
45 37 32 26 22 21 21 22 24 23 20 21 24 31 28 33 40 38 38 36 34 31 31 31 29 30 32 30 30 34 36 36 36 37 37 38 39 38 37 37 37 39 47 55
23 22 23 24 24 23 20 18 22 36 38 40 37 41 40 36 35 36 38 40 43 44 43 42 40 41 43 43 43 41 39 37 39 40 39 40 41 41 42 46 52 57 61 60
31 33 28 22 20 20 31 45 48 41 36 32 33 36 40 45 48 52 51 48 45 43 42 46 48 49 45 44 45 48 48 46 45 42 38 36 44 54 65 68 68 64 58 59
23 21 22 34 46 50 46 38 37 39 40 44 47 50 49 52 48 43 41 39 36 37 38 40 42 42 46 49 48 46 44 42 40 39 42 51 60 58 56 58 60 59 58 58
24 34 48 58 48 41 39 44 44 42 49 55 54 55 53 47 41 38 36 35 36 37 41 45 49 53 54 56 56 52 47 46 48 53 57 56 54 54 56 58 54 49 52 50
52 63 59 51 47 48 47 49 50 52 54 56 59 57 51 43 40 38 37 38 38 43 41 39 39 44 50 54 55 51 49 50 50 48 49 51 51 52 50 48 54 54 52 51
63 62 59 58 56 55 57 58 56 55 55 57 57 52 45 40 39 43 44 47 46 46 41 36 34 41 45 45 47 47 48 47 45 46 47 48 50 50 58 64 63 62 61 55
65 64 58 61 65 63 64 62 65 65 60 56 49 52 45 41 41 46 44 47 46 47 46 51 50 50 50 51 53 49 45 43 43 47 52 55 56 66 73 73 68 64 57 49
62 68 74 73 70 67 62 59 56 58 59 61 62 52 43 39 45 40 39 51 52 52 55 59 61 59 62 58 51 46 48 50 55 58 59 65 75 79 84 80 81 65 54 37
85 86 85 85 80 71 67 59 64 60 65 70 58 42 43 45 64 54 51 53 60 67 72 74 58 55 52 52 49 52 55 58 61 68 71 85 90 91 97 85 66 54 35 26
98 100 98 92 72 68 85 64 65 70 74 58 48 46 46 74 86 72 64 62 67 77 77 69 54 56 56 59 62 63 68 71 79 81 84 95 99 99 81 66 53 39 24 19
99 100 100 94 75 77 96 100 71 66 67 64 44 50 58 94 93 85 72 67 61 79 88 69 65 65 66 73 78 81 85 82 85 91 100 100 96 92 68 56 33 24 19 14
87 88 79 80 84 90 100 100 68 64 90 67 68 59 90 94 89 91 71 72 69 94 84 68 70 82 88 93 94 94 85 87 94 100 100 96 81 67 48 38 24 18 12 10
78 72 72 83 91 93 100 87 77 82 100 89 74 83 95 100 100 94 83 79 83 87 81 79 92 96 96 96 96 86 83 100 100 98 99 88 73 55 29 22 17 12 10 10
70 74 81 99 80 87 94 73 82 100 95 94 84 86 98 100 97 99 100 100 91 87 78 89 92 88 92 86 76 86 98 100 95 96 90 74 51 34 23 16 11 10 11 9
78 72 82 75 82 76 74 79 94 99 100 84 83 89 100 99 94 99 100 98 82 76 84 85 80 85 79 74 86 94 96 89 94 82 65 56 43 30 22 12 10 10 9 7
88 91 91 99 91 78 82 100 100 100 89 86 88 100 96 89 89 94 96 96 84 76 72 70 73 74 79 85 94 84 79 82 76 57 48 39 28 20 14 11 10 10 7 6
98 97 100 90 100 100 100 100 99 79 80 82 92 97 97 97 100 98 100 91 64 66 70 74 82 85 84 84 80 74 76 70 54 52 45 34 28 16 12 11 10 8 6 6
95 96 80 88 100 100 100 94 84 74 71 87 99 100 98 100 100 100 90 65 72 74 85 91 87 84 82 81 73 71 66 62 50 48 44 31 18 12 11 11 9 6 6 5
100 100 100 100 100 92 94 87 69 75 84 94 100 100 100 100 99 87 67 75 82 86 87 89 85 82 77 76 67 58 50 45 41 33 26 21 14 11 11 9 6 6 5 6

GFSCGP_250_rhum_039.txt.gz
RH
100 100 100 100 100 100 100 100 100 97 96 94 96 93 94 93 99 94 96 88 95 87 87 91 84 77 72 57 45 45 42 88 77 93 92 100 100 98 92 100 100 100 100 100
100 100 100 100 100 100 93 97 96 100 100 97 93 93 89 90 84 79 74 77 76 77 67 52 52 36 25 21 17 18 30 48 65 79 67 46 56 100 96 100 100 71 30 20
99 100 100 100 100 95 100 100 100 97 82 74 74 73 68 61 61 62 58 48 43 38 29 19 17 17 16 17 18 19 20 23 23 21 22 23 28 28 20 28 25 30 36 42
94 95 90 87 79 68 47 39 35 39 50 53 48 48 48 46 44 41 36 28 18 17 18 18 20 27 33 38 41 44 50 53 47 48 48 47 38 41 46 43 39 37 36 38
41 39 21 15 20 23 26 29 32 36 50 53 47 38 42 40 26 18 18 19 21 26 34 41 43 42 39 36 34 34 34 34 34 34 35 34 35 39 39 41 41 41 37 34
17 20 22 22 29 32 32 40 47 50 43 35 27 20 18 20 23 25 28 38 47 46 40 37 36 39 40 39 38 37 36 37 39 41 42 42 42 40 38 37 36 34 32 31
55 56 54 52 53 54 50 42 31 23 20 21 21 22 24 30 44 48 45 41 39 40 43 42 41 38 37 36 35 36 37 39 38 39 38 37 37 37 36 36 34 33 40 46
58 52 42 33 24 21 20 20 22 22 21 26 42 52 53 46 43 41 41 40 44 44 40 37 34 32 32 33 35 37 38 39 41 42 42 40 38 36 35 37 42 46 51 59
27 24 22 24 29 30 28 24 22 30 47 55 48 39 39 44 47 51 50 48 42 38 34 34 35 38 39 38 38 40 46 53 54 50 42 38 40 45 47 49 54 58 58 59
26 29 28 33 29 24 30 45 48 42 40 36 36 38 44 52 52 51 47 41 37 38 43 43 42 41 40 38 34 34 35 38 44 46 50 54 55 54 52 53 56 56 60 73
33 25 25 31 38 51 47 44 44 44 42 44 44 52 53 55 52 50 42 39 43 44 42 38 44 51 51 51 52 54 53 51 57 64 61 52 48 47 49 49 56 67 72 76
26 30 48 59 51 45 48 49 49 50 52 56 59 57 58 56 55 48 42 43 42 46 49 52 57 63 73 75 70 68 66 66 65 56 45 41 42 48 50 59 66 75 78 67
41 61 60 54 50 51 54 55 55 55 56 62 65 62 58 63 56 47 41 40 49 45 51 54 54 59 74 72 68 62 57 51 45 44 43 43 52 56 58 68 72 75 65 65
63 65 63 58 52 58 63 63 61 58 58 58 53 66 64 69 54 43 35 40 53 62 59 56 51 52 59 54 51 50 48 45 45 43 46 53 56 64 73 81 80 79 80 74
68 70 62 62 70 72 72 71 68 65 61 62 62 67 61 62 57 46 42 44 50 61 62 74 74 66 59 48 45 49 51 51 48 54 52 57 65 74 78 81 84 88 85 76
74 70 69 81 81 86 88 82 80 78 69 65 73 82 59 68 55 49 45 42 57 76 79 80 82 78 69 59 58 54 56 55 54 49 56 65 76 81 87 94 96 87 77 71
84 84 88 92 92 100 100 76 84 74 72 66 73 68 74 76 69 60 45 50 70 82 89 95 89 83 79 69 64 57 55 51 48 59 66 81 87 90 92 90 87 71 58 40
91 93 100 97 92 100 100 98 70 57 65 68 69 75 88 87 85 77 64 77 85 91 100 93 84 84 82 76 71 55 56 56 64 72 91 90 90 92 80 76 59 48 35 24
89 92 95 99 90 98 100 100 89 60 73 69 75 85 97 98 100 90 73 84 89 88 97 87 93 82 82 78 64 61 64 70 78 95 97 90 87 80 67 50 40 27 20 15
80 82 87 100 93 99 100 100 86 78 96 100 96 95 100 100 99 88 85 72 73 96 94 98 87 85 83 81 70 72 75 81 91 97 91 86 81 81 52 38 26 18 14 12
59 72 88 85 76 91 92 86 96 100 100 100 100 100 100 100 90 82 73 68 88 98 97 92 84 87 93 78 75 76 88 95 97 90 87 83 82 56 38 30 24 16 13 11
54 54 64 67 90 82 81 88 90 91 90 90 100 99 97 94 90 84 63 77 99 100 94 89 100 98 82 75 76 87 91 97 94 86 82 78 51 34 28 28 16 12 11 9
71 61 65 66 70 64 61 71 79 77 98 100 100 95 97 94 82 65 67 92 99 97 95 100 95 82 76 78 92 92 98 91 86 83 74 42 35 32 30 20 13 10 9 9
82 84 79 74 81 76 77 78 88 100 100 100 95 91 73 68 70 73 92 93 95 91 97 91 83 74 75 85 86 91 90 93 81 68 45 37 37 31 17 13 12 10 10 10
95 88 80 85 94 99 100 100 100 99 92 86 74 79 79 77 81 79 81 86 90 96 86 76 69 76 82 83 86 90 94 76 57 37 27 32 27 22 14 12 10 9 10 10
100 100 100 100 100 100 100 100 97 83 77 73 74 75 77 76 78 78 79 92 94 86 76 75 82 85 84 88 94 98 76 59 36 28 21 22 18 13 12 10 9 9 10 7

GFSCGP_250_rhum_045.txt.gz
RH
100 100 100 100 100 100 98 100 98 98 100 100 100 100 100 100 100 100 100 100 100 99 91 100 100 100 100 98 98 79 82 80 94 83 75 33 21 57 52 84 65 79 98 100
100 100 100 100 100 98 99 100 100 100 100 100 100 100 100 100 100 100 100 100 100 100 100 100 97 87 70 69 83 88 87 68 35 19 26 34 31 37 45 35 35 60 51 43
100 97 100 100 92 98 100 100 100 100 100 100 100 100 100 100 100 100 100 100 100 88 81 78 79 72 68 62 43 24 21 25 28 29 28 28 29 29 29 29 31 33 32 32
96 90 100 98 100 100 100 100 100 100 100 100 100 100 100 88 77 79 81 82 86 86 79 70 60 38 22 24 31 33 31 30 28 27 27 27 28 28 31 33 36 37 40 37
100 99 100 100 100 100 100 100 100 100 100 100 96 99 90 94 91 78 79 74 57 48 37 21 21 35 35 34 33 32 32 30 30 32 32 32 32 31 29 27 27 29 28 28
100 100 100 100 100 100 100 100 100 95 88 81 80 84 79 66 64 49 43 37 23 20 27 35 34 36 36 37 35 32 32 31 30 33 36 41 43 45 50 55 53 51 48 49
93 95 98 100 100 97 91 91 94 96 82 57 44 42 42 43 35 24 21 25 32 35 35 38 40 40 38 36 34 33 32 34 38 47 52 54 54 58 60 55 51 49 49 48
88 97 99 96 91 80 51 40 41 43 50 49 49 43 29 24 23 34 38 36 37 39 44 45 40 38 37 37 38 38 38 48 60 69 70 66 67 63 56 46 48 51 52 50
38 39 41 46 41 55 63 60 47 41 34 30 26 23 26 43 43 40 43 45 50 52 51 43 40 38 37 35 39 45 49 54 54 52 52 59 59 63 63 62 62 64 58 53
24 46 60 55 58 52 44 34 27 24 24 25 31 51 49 39 42 48 52 57 57 57 52 46 42 36 36 38 40 46 41 41 44 45 47 59 68 70 70 69 71 74 67 57
63 54 46 38 30 26 25 27 32 29 31 55 59 45 44 52 58 61 65 64 64 62 56 49 44 37 36 37 44 46 43 44 44 44 50 56 75 77 75 73 77 77 68 62
46 31 26 25 30 38 35 28 28 56 66 55 51 59 59 61 63 68 70 66 67 67 65 55 49 46 44 46 46 45 47 53 56 54 49 51 80 82 76 74 82 72 64 63
30 28 33 38 33 29 27 49 60 54 51 50 58 54 69 69 72 74 62 60 66 70 64 57 56 54 48 43 42 49 62 66 68 60 52 60 79 80 73 73 74 68 69 68
39 32 32 27 29 63 68 60 55 60 65 61 67 61 69 71 69 62 58 64 64 69 64 70 64 59 65 64 67 70 75 74 69 54 60 76 86 82 78 84 79 71 67 67
31 26 26 42 74 68 56 57 62 68 61 76 64 74 57 67 82 82 86 78 69 79 73 73 72 78 79 73 76 79 79 79 62 55 77 85 89 82 86 84 74 70 73 77
31 33 53 72 61 58 60 72 63 62 69 74 73 81 54 64 69 84 78 68 59 56 61 66 73 89 87 85 85 85 79 62 54 72 81 84 81 88 89 80 73 76 73 93
35 45 74 70 65 67 70 66 67 73 78 79 85 90 89 90 82 74 69 64 66 63 67 73 95 98 88 77 74 76 62 50 71 78 81 81 89 94 76 71 73 78 96 100
44 64 91 83 79 76 78 71 74 78 83 81 90 91 99 98 81 79 66 73 65 65 72 98 99 80 77 78 72 58 52 70 77 82 81 86 93 79 69 76 83 100 100 100
57 68 90 92 85 84 83 84 78 82 87 81 86 86 76 66 64 56 63 59 60 66 89 80 72 81 74 61 51 61 73 79 82 82 87 82 72 69 81 92 100 100 100 75
64 69 86 97 90 87 95 83 83 79 68 94 84 67 59 60 58 57 61 65 79 100 91 88 80 67 55 51 66 72 81 80 79 84 82 73 78 83 87 92 100 92 64 40
58 77 90 89 88 92 93 90 91 91 94 86 80 77 70 61 58 66 77 99 100 100 88 65 63 51 51 66 69 83 78 79 88 90 79 76 83 96 98 97 84 69 44 29
51 69 88 91 84 88 94 93 96 90 89 90 76 66 70 75 83 98 100 100 94 66 59 57 52 57 64 73 84 80 80 78 64 70 78 87 96 95 90 70 59 34 29 25
63 58 70 77 71 70 68 66 74 83 81 76 77 78 80 95 100 100 85 64 57 61 64 62 63 66 78 81 74 72 68 68 80 84 81 88 83 75 65 56 31 26 25 14
67 66 70 82 77 72 69 77 82 82 82 82 89 100 100 90 62 63 67 67 62 63 65 66 75 80 74 67 63 63 73 81 80 79 88 89 96 76 41 27 28 20 14 13
64 67 76 86 86 90 81 87 80 90 100 100 94 79 75 89 84 69 59 64 71 73 77 77 72 61 60 64 66 76 80 79 80 90 91 77 54 37 33 23 17 13 12 11
80 85 91 89 98 96 97 100 100 95 91 87 86 95 90 83 63 65 70 76 78 72 74 66 60 63 73 83 82 71 72 81 87 80 58 41 36 33 25 15 12 10 10 9

GFSCGP_250_rhum_048.txt.gz
RH
94 100 100 100 100 100 98 100 89 80 99 95 99 100 100 100 96 100 100 96 67 100 100 100 100 100 100 100 100 100 100 100 96 88 64 70 81 52 37 25 23 28 34 46
94 99 99 100 100 100 89 99 81 74 90 100 100 100 100 100 100 100 100 100 100 100 100 100 100 100 88 66 79 100 93 80 70 69 65 40 24 26 31 30 30 31 30 33
98 100 98 100 100 100 85 83 91 100 100 95 99 100 100 100 100 100 97 100 100 100 100 100 100 100 100 87 84 87 73 57 37 27 26 28 26 25 24 25 26 26 27 29
100 100 100 100 100 100 84 97 88 98 99 100 100 100 100 100 90 100 100 100 100 98 96 89 76 74 77 72 61 36 24 30 31 28 25 24 25 27 26 27 34 44 48 48
75 74 74 87 97 82 88 79 96 94 100 94 100 82 98 100 100 100 98 77 73 76 83 80 64 51 40 25 26 34 34 29 25 25 25 27 32 36 41 44 48 54 59 66
82 77 84 82 100 99 100 94 100 100 100 100 99 76 84 95 91 100 74 93 72 55 44 39 29 25 34 37 34 30 29 28 27 28 35 41 44 41 44 47 49 54 64 67
93 90 82 100 100 100 100 100 100 100 100 100 100 100 100 90 98 89 84 54 40 24 21 30 38 36 36 33 32 31 31 32 34 38 41 42 39 38 41 43 46 49 54 63
79 90 100 100 100 100 100 100 100 100 97 93 100 99 83 65 65 51 35 23 27 40 38 34 36 38 35 36 34 32 34 37 36 36 40 39 37 40 46 50 53 59 68 71
91 99 89 98 96 100 91 99 100 90 88 85 66 50 67 45 30 23 29 43 38 33 33 38 39 42 41 38 37 35 34 37 37 36 37 37 36 39 48 57 52 59 71 75
66 94 74 72 77 83 86 73 53 46 48 50 42 35 26 24 27 44 43 37 35 37 43 46 50 51 47 45 45 45 40 38 44 42 36 34 39 45 56 57 54 73 78 75
42 39 34 38 38 37 66 68 56 40 37 35 26 24 26 43 52 44 41 42 43 47 55 52 55 60 58 52 52 53 49 46 43 44 45 44 48 57 65 50 56 73 76 74
39 59 67 50 80 65 49 42 36 31 26 28 28 36 44 52 45 45 47 51 54 68 63 58 56 59 70 64 50 49 61 58 67 59 51 51 60 68 62 54 76 84 76 76
95 70 50 50 40 41 32 28 31 33 31 33 52 54 50 48 49 55 52 54 64 63 58 55 61 61 60 62 56 55 76 76 86 75 74 73 67 62 60 73 82 74 75 76
50 46 37 32 28 34 36 36 35 32 60 51 62 44 66 58 66 69 72 66 54 59 59 52 51 52 46 44 54 61 78 98 97 82 70 68 53 58 69 78 75 72 75 69
50 40 30 35 35 35 33 32 52 74 57 52 50 55 57 61 76 81 79 72 83 63 58 62 51 56 59 64 72 81 84 92 71 68 64 48 52 68 76 74 69 70 72 75
36 34 41 36 27 28 38 77 73 57 48 53 58 64 60 64 79 76 90 80 75 80 66 73 72 67 70 74 78 88 79 68 65 62 47 56 68 75 75 71 72 74 73 71
35 41 35 31 31 48 83 67 59 54 56 59 66 77 74 74 82 88 72 59 78 66 61 61 65 69 72 85 91 85 68 59 58 51 59 67 76 78 72 72 73 71 72 83
45 41 40 35 37 75 67 58 57 62 62 61 75 86 86 84 90 74 72 86 67 67 66 59 60 66 94 92 76 65 57 53 53 65 70 78 72 74 75 76 73 72 82 84
47 49 45 44 49 71 68 66 64 70 60 69 85 80 72 79 77 71 77 75 74 60 54 58 71 99 92 70 62 55 56 62 69 72 79 72 73 76 75 71 70 77 84 90
48 52 52 54 51 68 71 79 66 66 62 85 80 78 72 74 77 76 67 67 57 61 66 82 94 78 64 59 64 65 69 71 80 82 75 70 77 84 78 74 74 80 78 66
46 54 59 62 61 68 82 84 79 83 84 83 87 89 91 86 77 73 63 72 75 80 97 94 87 72 69 69 70 74 79 80 79 78 78 71 67 68 72 77 81 84 71 52
48 52 50 52 55 69 81 81 95 90 91 89 90 78 72 76 74 83 92 90 100 100 100 99 84 78 73 65 75 87 85 79 78 72 70 75 71 71 74 78 70 53 40 28
48 51 49 47 47 59 70 77 96 98 86 80 80 87 90 90 96 97 100 100 93 97 95 85 72 68 63 76 87 87 77 72 66 72 69 67 74 72 72 72 62 47 33 18
49 52 51 53 52 62 63 58 88 84 92 94 98 100 100 100 100 100 98 91 86 87 71 67 64 68 78 87 78 62 63 62 69 71 74 71 74 82 75 53 37 30 20 17
57 62 63 77 66 67 58 79 78 87 94 97 100 100 100 98 96 85 74 74 75 81 69 64 68 80 86 75 63 65 68 71 70 76 76 83 71 58 41 30 24 19 13 10
72 76 80 76 83 66 63 75 94 96 100 100 98 89 82 76 80 84 88 81 69 58 63 71 80 82 75 63 65 69 74 79 86 73 68 57 47 37 26 18 16 11 9 9

GFSCGP_250_rhum_051.txt.gz
RH
67 84 89 89 96 100 100 100 100 100 87 87 82 87 90 86 100 100 100 100 100 100 100 100 100 100 100 100 100 100 99 84 100 100 100 100 100 100 86 65 42 33 25 25
76 64 80 100 99 99 93 100 100 100 99 98 96 85 100 100 100 100 100 100 100 100 100 83 99 100 98 74 88 100 100 100 100 96 96 82 73 51 39 32 26 25 23 25
74 78 82 99 98 89 97 91 90 85 86 100 100 100 100 100 100 100 100 100 89 87 96 88 74 94 100 100 100 100 100 100 95 84 65 49 37 27 27 25 24 29 36 41
65 60 68 88 88 89 78 68 84 91 90 100 100 95 89 86 81 70 100 100 100 100 99 97 100 98 100 92 86 83 82 64 56 41 30 30 31 25 24 28 35 38 34 36
66 59 64 78 87 72 69 83 90 82 85 100 100 100 99 99 74 62 85 90 100 100 100 99 86 68 66 62 55 52 42 31 28 33 33 28 24 26 36 36 35 38 37 36
73 96 88 73 89 84 82 82 88 100 100 100 84 81 79 82 84 96 100 93 90 88 67 69 64 52 49 34 29 26 30 35 33 30 26 25 26 29 34 31 30 28 26 28
72 90 88 88 77 99 100 87 88 91 100 88 79 87 78 99 95 86 98 79 72 66 83 47 46 35 30 37 39 37 36 34 30 28 28 27 27 28 28 28 28 30 35 38
86 100 99 89 83 100 100 100 99 100 92 94 100 100 100 100 97 100 100 73 64 58 44 31 48 55 44 40 38 36 36 36 36 32 31 34 36 32 32 31 33 39 42 40
98 100 100 86 92 100 100 100 100 99 96 100 89 60 74 86 83 74 65 52 38 28 28 48 42 44 43 42 42 41 42 42 42 45 45 44 42 40 40 47 61 63 53 45
100 100 100 81 80 83 80 67 93 100 96 100 90 70 82 64 38 41 41 36 26 44 44 40 41 40 46 42 42 44 46 52 49 53 56 50 56 59 67 91 84 59 49 45
76 95 78 47 51 88 80 84 69 78 75 65 45 60 56 36 35 29 26 32 47 45 40 40 39 46 49 46 49 50 50 51 51 53 50 53 59 69 87 72 53 52 46 56
79 79 90 66 57 40 44 57 53 37 55 77 46 41 28 28 26 27 40 58 47 42 44 40 35 39 44 45 51 54 58 62 61 61 67 72 66 69 57 53 53 47 59 64
58 66 65 85 92 55 47 44 49 51 43 36 30 28 27 26 32 48 53 48 52 53 51 50 46 42 45 50 48 51 60 64 65 64 63 68 68 63 55 51 51 64 66 72
47 45 65 82 83 58 53 49 40 31 28 29 31 24 27 36 43 54 61 51 56 56 59 57 51 51 48 52 60 66 66 66 69 76 80 80 69 56 54 60 65 67 71 71
87 96 92 80 55 44 35 30 30 35 36 35 26 31 37 48 53 64 66 71 48 48 50 39 54 72 66 61 63 63 59 61 72 72 82 65 55 58 63 64 71 72 70 66
88 77 62 40 44 39 43 35 31 28 26 30 38 57 49 46 53 71 76 67 80 88 79 80 73 68 65 68 67 62 69 77 80 78 62 58 61 60 66 74 80 70 65 71
95 87 57 48 44 38 52 26 26 29 29 51 62 56 58 52 55 64 65 73 74 63 76 75 74 79 74 69 66 75 81 87 74 65 58 66 66 72 81 80 67 70 75 78
94 89 66 55 38 60 34 29 29 42 50 65 60 62 56 61 63 58 70 82 75 82 99 100 98 80 74 74 75 77 66 59 61 60 67 68 74 86 83 70 72 73 69 63
90 80 65 42 43 51 36 43 37 63 62 62 69 66 70 74 69 68 74 82 89 95 92 79 77 83 84 87 68 69 65 61 64 63 67 77 83 90 74 71 73 66 66 71
90 75 68 41 47 48 47 56 56 54 65 74 73 76 71 72 73 81 84 84 81 70 69 82 76 81 74 61 77 68 67 72 72 79 79 84 94 78 76 74 74 72 70 72
85 81 75 52 50 55 56 57 53 60 60 68 71 75 79 82 83 86 76 71 81 93 89 92 98 85 84 88 77 79 81 84 80 79 89 96 88 75 76 73 72 71 70 67
89 80 80 60 51 56 53 64 70 69 70 72 79 86 90 87 79 78 84 93 96 98 98 90 86 92 88 80 86 84 82 75 78 88 89 84 70 69 70 68 73 72 63 53
92 83 86 68 49 50 52 59 90 59 60 73 87 85 71 72 78 80 99 100 100 100 95 97 93 78 83 88 81 73 71 75 78 76 80 70 66 70 76 77 63 56 47 32
100 87 89 79 58 52 57 64 57 57 58 75 85 81 83 83 85 100 100 100 100 100 100 94 79 90 88 85 72 69 71 72 79 76 65 64 71 76 68 55 46 34 29 19
100 91 93 79 67 58 52 54 59 66 71 76 82 81 78 86 100 100 100 100 100 100 97 85 93 89 81 69 67 70 72 81 68 67 70 73 70 61 57 42 33 26 17 11
96 97 93 82 75 66 60 66 84 83 81 85 84 83 88 100 100 100 98 97 97 94 88 88 82 72 68 70 67 69 71 65 69 75 67 63 57 50 34 28 18 14 12 10

GFSCGP_250_rhum_057.txt.gz
RH
32 44 65 93 83 83 70 74 90 87 96 84 100 100 100 100 100 96 89 99 100 100 100 100 100 100 100 100 100 100 100 100 100 100 100 100 100 88 100 100 100 99 89 88
37 46 74 99 96 85 74 80 100 88 88 93 99 100 100 100 100 100 100 96 87 100 100 100 100 100 100 100 95 100 100 100 100 100 100 100 100 100 97 99 89 88 90 83
35 37 68 88 96 88 83 93 85 80 94 100 100 100 100 100 93 98 100 100 100 100 100 100 99 100 100 100 100 100 100 100 100 100 100 89 82 73 59 63 71 61 44 38
34 49 55 72 93 96 92 82 80 82 85 100 100 100 92 100 100 100 100 100 100 100 100 100 95 100 99 91 83 92 99 84 77 73 62 57 55 64 58 48 39 34 35 36
38 54 43 70 100 97 95 83 82 85 92 89 78 99 100 100 100 100 100 100 100 100 100 100 100 74 60 62 52 51 69 78 77 74 66 55 68 61 33 35 40 40 38 35
40 48 54 61 88 97 100 88 84 83 88 91 99 100 100 94 88 94 94 99 84 74 65 64 61 64 67 74 75 65 63 62 63 79 99 87 64 44 42 43 42 41 39 38
48 38 73 67 70 98 100 94 85 82 99 92 84 89 78 100 96 99 96 83 68 61 63 61 65 58 65 63 58 64 68 77 96 100 100 89 49 46 48 50 44 40 34 38
40 44 47 87 66 72 91 95 86 95 93 77 80 97 79 72 64 65 69 78 85 78 73 59 67 60 51 63 52 88 99 99 99 99 91 76 58 50 52 42 38 35 40 46
37 45 43 72 76 55 81 97 100 98 95 97 93 100 69 60 52 52 49 53 57 62 65 66 60 58 55 43 41 84 100 100 100 99 83 50 62 57 40 40 41 51 49 41
38 43 43 47 90 55 51 70 85 92 76 76 85 98 94 76 64 55 51 54 66 70 68 75 64 49 39 36 46 77 83 79 66 51 52 66 43 39 41 46 47 44 44 54
43 43 48 53 42 85 76 80 79 86 85 83 81 98 86 73 72 81 69 49 35 44 43 38 32 29 38 63 56 53 53 52 51 52 50 42 40 46 49 50 53 54 57 59
50 43 44 56 45 34 72 72 80 89 81 54 42 57 86 78 61 55 60 51 39 34 29 26 27 32 58 67 59 58 55 52 54 50 52 49 44 50 45 48 53 60 59 60
51 48 42 46 52 27 31 57 76 71 62 38 26 24 25 41 53 51 37 28 29 28 29 29 31 54 70 61 65 66 45 46 50 54 49 58 67 68 60 59 55 57 59 66
65 58 43 43 49 34 35 30 40 42 33 39 55 48 51 47 33 29 31 39 38 28 25 35 61 63 67 66 72 69 74 79 82 87 91 86 69 64 57 56 57 58 65 68
78 77 52 39 44 60 57 33 29 27 32 51 57 54 43 30 33 42 33 36 38 32 37 55 60 69 78 68 71 76 72 84 86 88 76 66 62 60 57 57 56 71 72 74
98 87 58 41 48 55 63 52 52 40 52 51 46 43 37 36 31 29 26 31 48 62 60 56 56 59 58 62 70 86 99 93 94 72 81 74 58 54 53 56 68 78 80 78
95 80 61 51 45 54 81 96 66 60 47 54 52 41 37 28 25 26 38 66 77 67 60 60 61 62 73 85 90 88 91 79 68 81 75 61 57 54 60 80 90 80 78 80
100 84 51 46 44 56 96 84 69 58 55 67 54 47 35 26 25 46 77 76 65 60 59 62 70 80 85 80 71 72 69 80 88 75 63 62 59 68 85 84 75 81 83 86
100 90 60 55 51 55 100 95 76 77 78 64 48 39 36 31 33 56 70 68 65 64 67 76 84 85 81 78 82 84 86 89 88 79 73 72 80 88 81 77 88 87 90 80
98 83 50 56 59 56 100 98 86 75 72 61 52 43 43 43 46 56 55 59 57 65 76 81 78 73 74 75 67 69 77 83 78 76 83 90 85 80 82 91 89 90 78 79
100 89 61 56 47 54 88 100 87 83 74 65 61 52 53 58 56 58 61 60 65 66 66 63 60 59 61 64 69 79 84 86 86 91 95 88 86 83 89 86 88 74 79 91
100 74 72 56 52 61 88 94 97 84 74 68 70 68 64 69 69 68 73 72 60 53 53 55 61 72 79 86 90 92 96 97 99 99 90 84 85 89 81 82 75 87 90 92
91 84 70 65 70 72 81 100 100 88 78 75 73 76 69 67 69 66 61 57 57 60 59 62 76 88 96 100 100 99 99 100 100 97 89 88 87 78 75 73 88 88 89 84
79 76 60 70 83 80 77 100 100 96 89 91 82 83 89 89 80 73 72 74 74 73 75 86 98 100 100 98 99 100 100 100 96 89 84 83 79 78 76 88 84 86 89 70
72 74 68 77 90 74 82 94 100 100 100 99 90 85 86 97 97 88 84 84 85 88 93 98 100 100 100 100 100 100 99 90 79 83 83 80 79 76 83 84 90 90 69 59
96 85 78 86 94 99 100 91 100 100 100 100 98 90 87 86 92 99 96 93 96 95 96 100 100 100 100 100 100 87 76 80 84 76 80 75 77 83 82 88 86 73 65 51

GFSCGP_250_rhum_060.txt.gz
RH
33 26 38 46 77 80 76 64 78 81 94 89 96 100 100 100 100 100 100 100 100 100 100 98 100 100 94 98 100 100 100 100 100 100 84 75 89 100 100 100 100 100 100 86
42 28 40 51 73 74 69 69 75 79 94 95 100 100 100 100 100 85 100 98 100 100 100 100 100 100 100 100 100 100 100 90 95 77 94 100 100 100 100 100 100 90 90 87
45 30 37 47 80 91 81 99 99 100 96 92 96 100 100 100 100 100 100 93 97 100 100 100 100 100 100 100 100 100 98 91 87 100 100 100 100 100 100 100 99 86 74 65
45 33 30 48 70 84 83 95 78 78 92 100 99 100 100 100 100 100 100 100 100 100 100 100 100 100 100 100 96 100 99 97 97 96 93 92 90 77 74 73 64 58 58 53
50 41 30 58 59 80 91 90 74 72 74 94 100 98 100 100 100 100 99 99 100 95 60 58 56 62 70 100 100 99 92 78 76 74 71 66 59 52 54 57 57 60 39 37
49 42 33 50 69 76 88 98 94 73 73 70 72 68 74 90 87 100 100 100 100 88 79 68 71 67 74 86 72 70 67 68 65 69 65 70 84 78 57 58 53 52 46 45
46 43 38 40 72 81 79 72 87 83 86 82 74 67 86 100 100 100 100 100 100 96 93 86 72 68 67 68 63 57 63 67 72 70 90 100 100 100 86 72 71 76 57 62
42 43 38 35 43 76 78 69 87 90 88 90 100 96 82 90 76 94 96 99 95 92 94 88 72 77 64 66 55 69 76 74 66 86 100 100 100 100 75 80 94 58 67 54
52 48 44 39 35 41 81 96 69 84 96 97 100 100 100 91 96 100 100 90 84 82 73 68 58 61 63 70 67 72 64 86 100 100 100 100 100 96 98 64 52 51 49 49
66 54 50 37 38 40 43 81 93 74 89 97 100 100 100 98 100 100 100 96 78 68 69 71 72 72 69 60 52 51 40 92 100 100 100 96 76 53 53 57 56 54 48 41
79 71 54 44 32 39 43 37 75 100 100 83 86 96 82 81 71 76 93 97 93 91 89 72 46 44 43 40 37 30 34 80 82 73 61 54 54 55 56 57 56 42 39 44
77 70 69 47 42 37 46 41 32 64 95 78 57 64 63 61 61 67 75 84 71 59 57 47 43 43 39 31 28 29 38 67 73 56 56 60 58 55 60 49 44 52 58 55
78 76 68 61 44 37 43 40 30 37 54 75 62 53 38 49 53 55 56 59 60 54 50 48 42 29 27 32 48 48 70 80 90 89 69 68 69 63 51 58 70 74 78 68
73 63 73 67 52 36 32 45 36 55 48 42 54 49 30 58 59 49 46 42 38 34 26 24 26 30 34 52 65 70 81 94 88 72 80 76 72 78 73 88 93 73 61 56
67 64 70 64 60 42 38 42 42 49 55 57 47 45 47 48 54 48 40 42 39 34 28 24 29 34 50 65 73 88 92 81 75 78 76 67 87 100 100 78 76 72 67 64
77 82 64 68 53 44 47 45 46 44 66 58 65 77 47 54 51 41 33 36 33 29 26 24 28 45 58 56 59 69 69 69 76 75 79 92 94 100 96 90 75 70 68 63
86 89 69 65 61 59 56 41 46 47 65 69 78 61 51 56 51 40 40 32 28 28 33 44 54 57 59 63 65 65 74 86 92 97 100 100 86 75 71 73 73 71 67 74
85 86 86 70 76 64 58 62 54 52 82 85 73 55 51 56 56 47 42 34 32 45 64 74 76 71 69 68 72 82 94 100 100 99 81 67 71 73 75 74 73 72 83 95
86 80 89 79 71 79 93 65 51 52 72 94 80 60 66 68 57 45 44 37 34 44 67 76 73 68 67 73 86 94 88 75 65 67 74 79 76 78 75 79 83 88 95 93
85 96 96 79 68 91 86 69 68 55 77 92 62 71 71 69 60 49 43 44 44 49 65 73 72 73 80 81 76 71 70 70 75 86 84 78 82 80 85 87 85 94 94 95
100 97 91 87 64 88 97 75 64 52 55 66 97 92 76 67 67 66 56 52 54 55 55 57 64 67 68 70 68 64 62 63 76 76 81 82 80 83 78 84 94 87 82 88
99 97 100 92 82 94 89 82 67 55 57 57 97 100 100 86 73 69 70 66 63 62 64 68 69 71 73 72 68 67 72 76 83 89 82 88 85 77 84 91 80 78 89 92
100 100 100 97 100 100 100 86 62 60 73 59 62 95 100 100 91 74 74 76 79 83 83 79 77 77 77 76 79 81 88 96 91 88 94 82 79 83 88 76 76 91 94 93
100 91 93 100 100 100 98 81 53 68 77 74 85 82 95 99 100 93 92 86 82 82 85 89 87 87 86 90 95 99 98 94 96 90 84 82 85 84 76 77 90 95 89 87
100 100 100 99 96 100 87 63 84 91 94 90 86 90 99 92 94 100 98 97 96 94 94 95 94 97 100 100 99 100 100 97 90 87 82 84 84 78 80 88 88 88 85 67
100 100 94 91 89 81 80 81 73 82 100 100 99 99 100 100 93 92 100 100 100 100 99 100 100 100 98 98 100 100 96 92 84 78 84 81 76 80 82 82 87 84 69 61

GFSCGP_250_rhum_063.txt.gz
RH
28 24 29 28 44 50 58 66 89 85 96 100 100 100 100 100 100 100 100 100 100 100 100 100 100 100 100 75 71 66 64 68 68 89 80 98 100 100 100 97 96 98 100 100
31 26 29 32 45 52 68 71 77 87 95 94 97 97 100 99 99 100 100 100 100 100 89 90 98 77 85 84 91 89 92 100 100 100 100 99 96 98 100 100 100 100 97 100
36 29 31 35 49 56 69 94 80 72 88 100 100 100 99 97 97 84 100 99 100 100 100 100 100 100 100 97 100 100 100 100 100 93 58 60 67 76 88 94 100 100 100 89
42 39 40 32 53 63 73 95 91 77 72 81 91 94 94 100 100 100 96 97 100 97 88 100 100 100 100 100 100 100 100 100 99 100 92 91 85 72 72 72 70 64 61 68
50 47 39 38 37 59 66 76 91 77 80 92 70 88 92 81 69 97 100 100 100 100 100 100 100 100 100 99 90 86 70 64 85 100 95 87 75 80 83 66 56 57 60 66
60 56 44 47 36 34 56 67 71 97 100 89 78 88 87 93 100 87 87 77 76 81 92 95 97 93 66 77 73 58 65 70 76 79 77 67 81 92 89 65 64 82 94 76
69 56 50 51 40 38 35 66 70 85 95 100 99 83 88 74 74 92 93 96 85 82 73 64 68 73 66 60 70 83 84 92 94 78 70 83 79 92 94 87 90 98 85 95
72 58 62 47 42 34 39 44 79 76 97 100 100 100 87 100 96 78 86 83 85 77 80 83 84 84 90 84 82 84 74 93 98 96 92 82 73 91 100 100 100 100 100 100
80 61 60 52 44 39 36 43 43 72 84 83 100 100 66 92 100 99 100 87 80 81 72 75 88 84 79 88 89 90 83 80 84 82 77 94 97 90 100 100 100 100 98 63
84 72 67 58 50 42 36 37 38 42 72 96 99 100 100 81 77 86 99 100 86 79 80 79 89 92 95 81 69 71 71 70 71 64 72 92 100 100 100 100 100 69 56 64
78 78 72 59 52 47 38 38 38 38 48 87 94 100 99 83 100 86 81 89 96 100 100 99 93 90 74 63 48 44 55 49 38 38 77 100 100 100 100 80 65 59 72 71
80 88 73 64 57 52 42 41 43 42 44 55 100 100 94 91 96 98 92 78 91 89 84 86 82 70 47 50 44 36 31 30 28 50 93 100 100 100 99 92 81 80 80 84
85 95 85 75 68 54 51 45 51 40 41 54 67 99 67 77 90 89 62 54 51 52 68 64 42 49 51 39 30 28 31 32 48 88 100 100 100 97 75 86 100 94 87 72
96 100 94 80 68 61 58 54 44 43 44 40 60 63 47 53 69 83 84 69 65 58 50 50 48 36 30 32 38 38 37 43 81 100 100 92 87 94 93 83 85 87 79 81
97 100 99 87 71 64 63 72 49 47 45 47 68 75 57 61 54 82 97 48 43 45 50 41 30 24 26 31 47 58 76 88 91 87 74 71 81 72 74 84 88 86 98 100
99 100 87 92 86 78 81 92 58 45 42 46 53 99 67 55 57 61 69 48 43 42 38 32 26 22 20 24 35 67 90 89 76 71 68 68 68 77 84 80 88 98 100 100
93 94 91 89 80 74 100 64 78 48 42 45 49 86 100 76 64 64 46 57 57 48 40 34 27 25 25 29 47 56 58 59 60 61 62 68 78 87 94 99 100 97 97 92
100 97 93 90 86 74 81 99 54 44 47 48 47 49 67 82 78 62 49 55 63 52 46 39 34 34 40 47 52 58 61 63 66 69 74 84 95 97 98 80 73 86 90 83
97 92 100 90 88 87 100 73 60 45 52 50 64 49 51 86 100 91 76 78 75 64 49 50 48 60 73 79 79 77 75 74 78 87 94 91 76 69 69 77 88 89 75 61
100 100 94 100 98 88 86 84 76 44 70 49 66 58 50 61 99 100 97 86 75 66 60 50 49 58 62 68 74 78 84 85 79 77 74 74 76 81 89 96 90 69 66 69
100 100 99 100 98 88 100 94 62 55 68 62 77 70 63 57 73 99 100 100 90 82 78 74 70 64 64 68 72 74 75 78 81 81 83 90 96 97 92 85 70 71 77 85
100 100 100 100 94 100 87 67 76 66 65 65 76 85 71 75 65 76 90 89 100 100 97 91 82 76 76 79 81 85 91 92 92 98 100 99 87 86 88 79 77 85 87 88
100 100 100 100 88 74 83 87 88 80 69 73 80 86 76 93 99 92 83 100 100 100 100 100 100 100 92 84 84 87 90 95 97 96 87 82 84 81 79 75 81 86 89 85
100 100 100 83 77 88 98 100 89 74 67 82 84 92 85 94 94 95 93 96 96 100 100 95 86 92 97 100 99 100 100 99 94 92 90 83 76 75 74 79 82 90 91 85
100 100 99 96 98 100 82 91 96 68 78 93 76 86 88 95 98 99 96 93 93 96 97 97 98 100 99 99 98 94 89 96 97 96 90 74 70 72 82 84 92 96 91 96
100 100 100 100 99 89 100 93 84 84 90 80 87 84 70 68 69 81 81 81 82 79 78 79 82 87 87 88 91 94 99 94 84 72 68 72 82 92 97 100 98 95 98 95

GFSCGP_250_rhum_069.txt.gz
RH
100 89 100 57 56 45 26 43 54 52 58 77 99 100 100 98 100 100 100 99 100 100 100 100 100 100 100 100 100 100 100 100 100 100 100 100 100 100 97 94 100 100 100 100
100 100 100 61 64 49 25 30 60 54 65 65 82 100 96 91 100 93 100 100 100 85 100 100 96 89 98 99 98 89 100 100 100 100 100 100 100 100 100 100 95 97 100 100
100 100 100 66 73 56 32 31 40 55 60 74 72 91 91 77 87 100 100 100 100 95 100 100 99 100 100 94 77 87 91 88 84 100 94 86 85 91 79 89 91 82 68 58
100 100 100 66 76 64 37 32 28 65 51 84 78 76 76 74 84 67 100 100 100 100 100 96 97 68 99 74 82 90 100 100 74 56 55 54 71 99 99 100 100 98 91 95
100 100 100 63 77 68 44 33 29 48 66 72 95 98 98 99 85 87 76 100 100 100 100 100 100 100 100 98 94 93 100 100 100 90 72 68 100 100 100 100 100 99 83 68
100 100 100 91 79 72 50 34 35 32 63 64 58 81 74 82 86 92 78 99 97 100 100 100 99 93 96 71 99 100 95 98 99 95 94 100 97 95 88 83 73 58 54 65
89 100 100 99 80 77 58 41 37 35 32 61 70 63 68 85 95 100 90 74 100 94 77 70 78 85 93 95 94 95 93 78 59 80 80 68 67 60 55 55 62 73 81 85
100 100 100 100 83 82 67 54 42 40 38 34 44 74 77 65 66 64 72 84 68 100 100 100 100 100 100 96 78 83 74 70 70 57 50 51 53 68 68 83 82 82 84 89
98 100 100 100 92 90 71 65 54 42 41 46 36 34 55 70 79 98 73 63 74 72 59 60 68 75 69 66 73 72 66 63 60 60 64 72 75 69 71 79 84 83 83 85
100 100 98 100 100 91 72 66 73 56 44 47 46 39 35 63 60 63 66 68 79 85 76 72 72 74 70 69 68 72 76 78 73 75 78 88 88 83 86 84 78 88 84 83
100 96 99 100 100 90 84 71 64 62 55 56 58 46 38 36 51 79 66 54 62 66 69 71 69 68 79 86 80 85 82 83 85 84 90 86 85 71 63 68 70 60 68 81
100 86 69 100 100 100 98 79 59 57 63 55 69 52 47 43 33 38 43 72 61 58 59 65 76 73 65 59 58 59 57 59 65 77 73 58 55 49 43 40 39 37 52 83
98 84 99 100 100 100 84 97 81 57 52 58 65 59 43 51 41 36 37 45 56 68 69 61 54 57 67 59 25 30 40 43 40 44 51 48 38 36 33 34 35 36 47 61
86 74 85 100 100 100 98 96 98 74 59 64 48 57 44 58 48 40 37 45 81 89 71 54 55 56 58 49 41 41 43 46 49 46 41 36 32 35 53 45 42 58 68 89
82 74 87 100 100 90 99 96 99 79 79 75 64 56 48 61 52 46 43 41 61 84 80 78 76 72 65 60 48 47 51 50 47 42 47 58 54 51 42 51 61 72 87 99
79 78 98 100 100 100 100 100 91 86 97 68 68 60 55 63 58 51 40 47 45 61 100 100 98 100 100 88 46 52 60 63 71 54 46 54 57 61 69 89 97 100 100 100
95 87 100 100 100 100 95 100 98 95 93 87 79 65 59 62 58 54 47 42 44 49 56 91 82 89 94 62 43 50 59 69 72 74 77 70 74 88 99 100 100 100 99 93
100 100 100 100 100 88 100 100 100 97 100 99 81 74 59 58 55 57 52 56 51 53 55 57 74 98 91 75 58 56 68 76 74 72 78 88 91 94 98 99 99 100 100 100
100 96 91 100 100 100 100 100 100 100 100 96 77 80 74 61 61 68 71 62 63 60 54 58 62 58 84 95 95 94 92 88 85 80 75 74 78 87 96 100 100 100 100 100
100 100 98 100 100 100 100 100 100 100 100 92 87 89 93 73 72 79 96 82 78 68 67 68 71 66 66 72 82 93 94 95 94 90 90 90 90 97 94 92 94 95 93 94
100 100 100 100 100 100 100 100 100 100 100 92 97 96 98 81 89 84 84 73 74 77 76 87 90 88 77 77 82 99 100 100 100 97 93 94 96 93 88 89 92 96 97 98
100 100 100 100 100 100 100 100 100 100 100 100 100 92 84 77 89 88 82 80 89 90 91 97 100 100 99 94 70 93 93 96 94 92 87 88 89 89 90 90 88 89 98 97
100 100 100 100 100 100 100 100 100 100 100 100 91 80 74 83 96 89 78 83 94 94 89 89 100 100 93 92 89 93 87 82 75 70 70 81 92 88 86 88 97 100 100 97
99 100 100 100 100 100 100 100 100 100 100 100 99 84 78 99 100 100 90 87 90 88 91 89 98 100 96 75 74 85 85 79 82 92 98 100 89 80 82 87 82 84 90 88
100 100 100 100 100 100 100 100 100 100 100 98 88 85 94 100 100 95 94 95 86 86 92 85 81 76 78 84 100 100 97 91 98 100 94 88 90 95 89 89 77 86 89 82
83 100 100 100 100 100 100 99 100 98 93 83 77 70 81 86 90 91 98 88 80 64 67 73 70 95 100 100 100 87 96 99 100 100 100 99 93 86 87 82 63 60 66 73

GFSCGP_250_rhum_072.txt.gz
RH
74 68 95 100 100 94 49 45 29 26 53 45 68 100 76 60 100 98 100 77 52 31 67 65 74 82 74 71 79 79 91 100 99 99 100 100 98 98 100 100 100 100 100 100
98 62 91 100 100 92 49 50 32 23 56 48 60 73 64 78 100 84 94 100 100 86 75 97 86 72 58 58 58 61 100 100 98 80 64 100 100 100 100 100 100 100 100 99
65 62 91 100 100 97 50 55 36 25 44 56 53 70 63 76 86 100 100 100 100 99 74 55 91 100 94 74 76 100 91 96 95 97 79 94 100 100 100 100 100 100 100 100
97 64 100 100 100 100 51 55 42 29 28 51 52 51 64 77 89 97 100 100 100 100 100 94 100 89 70 91 94 57 63 78 92 90 97 71 96 94 93 93 86 96 100 100
76 58 100 100 100 100 63 57 46 37 28 30 61 59 48 55 69 65 99 100 100 100 100 100 100 100 100 100 100 100 100 93 94 97 81 67 62 52 42 50 88 80 97 79
73 57 98 87 100 100 83 68 52 40 32 30 35 60 72 60 48 65 84 100 100 100 100 100 100 100 100 96 100 98 83 55 85 91 100 99 100 100 100 100 93 92 88 90
82 48 55 94 100 100 100 70 63 46 35 38 34 36 69 74 83 66 65 63 98 100 100 100 100 100 100 100 100 100 100 100 100 100 100 100 100 94 82 77 74 70 76 72
89 57 100 99 100 100 100 69 72 53 42 37 42 40 38 41 58 68 72 67 56 90 76 95 98 93 89 88 100 100 100 87 82 99 96 86 77 69 65 61 58 50 61 68
100 74 79 73 100 100 100 97 74 63 46 39 35 43 41 35 51 79 66 92 78 62 54 76 94 92 77 72 69 59 62 65 62 62 56 53 53 52 51 49 58 85 83 74
100 85 50 71 97 100 100 100 80 70 58 40 32 33 38 48 40 35 44 62 68 57 55 57 61 63 76 85 82 62 51 51 52 55 54 54 54 51 52 56 70 95 85 61
100 89 58 65 100 100 100 100 98 77 58 54 40 31 45 45 43 45 38 34 33 54 68 54 57 67 69 68 71 90 71 65 62 60 62 59 52 56 70 83 84 76 78 68
100 100 70 70 100 100 100 100 100 100 70 68 60 38 47 54 48 40 48 40 32 33 38 64 67 75 82 70 60 65 91 79 78 67 64 63 62 70 90 83 78 66 62 53
100 87 91 58 65 55 98 100 100 100 78 85 75 61 50 56 58 45 45 46 36 30 30 41 58 74 73 72 68 66 67 73 68 48 66 74 65 87 78 73 71 68 56 36
100 99 99 86 96 88 69 94 100 100 84 80 82 70 59 59 62 57 44 47 41 38 36 34 40 41 38 38 44 47 51 52 57 59 73 72 74 94 75 49 39 32 32 37
100 100 70 72 55 68 73 100 100 100 84 81 78 76 54 60 65 60 45 47 48 44 43 40 35 41 46 46 60 38 36 37 46 50 54 70 76 73 57 51 47 42 39 40
100 100 100 100 75 68 87 100 100 100 92 100 91 89 59 67 67 69 53 49 55 55 49 50 44 47 48 57 85 77 69 66 70 73 75 59 54 68 72 66 60 56 56 60
100 100 100 100 99 54 69 81 100 100 100 100 99 93 62 78 72 81 58 58 62 57 54 55 52 46 66 59 55 56 73 92 91 76 61 63 67 77 74 72 69 68 67 68
100 100 100 100 100 74 76 90 100 100 100 100 100 87 92 81 84 76 63 70 68 60 58 57 58 60 56 62 67 61 60 58 62 76 90 95 94 96 97 95 92 91 88 89
100 100 100 100 100 92 74 93 100 100 100 100 100 100 100 94 84 86 78 71 67 65 64 65 69 73 71 68 74 85 69 58 71 64 70 92 97 98 100 100 100 100 99 100
100 100 100 100 100 100 100 100 100 100 100 100 100 100 100 80 98 97 86 73 74 76 80 75 78 84 89 92 93 87 86 78 86 82 73 75 97 100 99 98 99 96 94 95
100 100 96 100 100 99 100 100 99 98 100 100 100 100 99 100 100 100 83 81 74 67 88 87 84 89 98 93 95 99 100 99 98 79 92 87 84 86 82 73 82 86 97 96
100 100 100 100 100 97 100 77 66 99 100 100 100 99 99 100 100 99 84 76 65 79 88 98 98 98 98 96 85 88 97 99 82 73 80 100 100 97 87 93 97 100 100 89
100 100 100 100 100 100 100 100 100 100 100 100 100 100 100 100 100 96 89 72 70 82 77 84 88 100 97 92 66 61 58 71 65 98 100 100 100 81 83 90 98 98 99 99
100 100 100 100 100 100 100 100 91 100 100 100 100 100 100 100 100 98 92 80 79 69 74 74 87 96 94 81 58 54 63 60 98 100 100 99 89 82 94 100 96 94 97 92
94 100 100 100 100 100 94 100 100 96 98 100 100 100 100 100 100 94 89 69 62 67 74 91 99 100 88 58 53 60 57 92 100 90 94 90 88 96 97 96 91 87 83 81
86 92 100 100 100 100 100 100 100 100 100 100 100 100 94 90 86 99 78 66 57 73 92 100 100 94 70 52 55 63 81 67 72 70 81 81 79 73 72 82 90 85 71 62

GFSCGP_250_rhum_075.txt.gz
RH
40 32 50 100 52 66 84 100 95 39 28 22 42 41 82 98 66 98 78 37 32 30 27 30 26 24 38 52 85 100 100 100 99 100 83 77 90 100 100 100 100 100 100 100
41 42 35 68 54 74 96 100 100 52 33 24 35 44 32 42 62 88 60 56 85 28 28 36 35 25 29 52 100 100 100 100 100 100 100 98 96 97 100 100 100 100 100 98
47 40 37 52 92 77 68 100 100 67 38 28 24 46 48 51 37 35 47 91 97 100 50 60 55 42 49 71 88 91 90 98 100 98 88 92 94 91 100 96 96 100 100 100
53 44 38 41 100 70 76 100 100 80 47 31 25 36 53 59 60 48 60 75 54 95 100 96 58 52 59 65 69 69 74 84 94 100 86 74 78 77 75 87 79 100 100 100
79 52 39 44 91 58 92 100 100 95 48 39 29 26 40 48 58 62 66 75 76 42 80 83 82 76 58 44 42 43 53 72 78 85 69 59 63 68 83 82 82 71 80 82
83 59 40 42 85 63 77 100 100 92 51 48 29 28 24 34 56 64 71 99 86 100 84 62 80 92 100 100 94 48 42 54 70 63 45 46 51 83 75 73 67 64 75 90
86 55 50 42 84 84 68 100 100 100 55 50 31 31 28 27 32 52 51 72 96 95 100 96 56 86 98 87 100 100 98 96 79 70 74 60 62 58 49 78 100 88 86 91
75 66 58 46 87 100 57 80 100 100 79 51 37 30 35 35 28 26 41 58 93 66 100 100 96 100 100 61 44 55 90 99 100 94 98 100 86 80 86 94 77 55 52 50
53 62 54 52 84 100 60 81 81 100 100 57 46 32 45 35 34 35 34 29 34 54 54 52 84 96 78 90 100 100 100 100 98 90 85 83 84 65 59 46 48 42 47 58
52 46 50 47 92 100 64 98 91 100 100 73 59 42 38 52 42 32 36 42 37 36 35 39 48 56 84 78 78 83 76 64 56 57 52 50 43 49 54 49 48 47 68 99
64 62 63 58 74 100 100 97 76 100 100 99 80 48 47 44 47 46 36 37 43 37 33 30 24 44 50 55 64 60 61 72 84 92 97 97 48 51 64 77 79 82 100 100
60 60 56 50 100 100 100 70 74 100 100 100 100 60 42 54 54 45 43 36 35 37 41 32 30 32 49 89 97 100 70 94 94 98 100 99 60 69 97 98 100 100 100 100
47 52 49 92 100 98 97 88 99 100 84 100 100 78 44 52 62 61 48 44 40 39 40 44 38 32 31 41 62 98 100 87 91 98 100 92 83 99 88 100 100 96 100 100
45 43 56 100 100 100 100 100 100 94 51 100 100 100 66 45 54 76 62 57 51 42 38 42 48 41 40 33 34 36 50 58 74 62 73 77 74 88 86 97 99 96 91 64
38 45 98 100 100 100 100 100 100 65 88 81 100 100 100 42 70 78 72 74 71 52 38 40 48 58 43 38 48 44 45 47 54 64 68 76 78 72 74 71 75 68 68 59
45 68 100 100 100 90 98 100 86 67 83 78 100 100 100 100 100 81 60 60 76 66 51 44 43 52 63 54 48 46 46 51 54 57 67 56 70 64 76 69 65 66 63 85
43 88 100 100 100 100 70 100 88 63 61 80 90 100 100 100 100 88 66 90 80 82 54 52 48 49 57 64 64 65 62 59 61 58 55 54 53 58 62 54 59 77 86 86
53 100 100 100 100 100 81 100 86 72 84 85 100 95 100 100 100 81 100 96 74 96 72 52 60 53 52 64 68 67 73 73 65 56 58 61 67 65 62 57 65 76 92 97
76 100 100 100 100 100 100 65 100 100 84 82 100 96 100 100 100 100 100 100 68 99 85 65 62 55 62 62 56 80 94 85 88 75 56 51 65 63 66 64 70 73 76 82
75 100 100 100 100 100 100 72 91 100 96 85 86 100 100 100 100 100 100 98 77 100 95 76 67 61 62 64 71 72 76 95 81 76 55 53 53 60 55 62 80 86 100 86
68 100 100 100 100 100 100 100 99 100 100 100 83 89 100 100 100 100 100 100 100 100 100 90 71 63 57 62 62 69 88 91 73 79 57 51 51 57 56 74 94 98 86 71
73 100 100 98 99 100 100 100 98 100 92 100 100 95 97 100 97 85 76 96 100 100 100 93 80 74 66 60 68 79 94 91 83 83 66 54 54 53 49 66 80 70 74 79
82 100 100 90 100 100 100 100 100 81 94 100 100 100 64 78 74 79 76 85 100 100 94 91 86 83 78 63 80 85 95 99 98 93 76 62 63 60 56 60 61 66 68 79
90 100 100 100 100 100 100 100 100 100 100 100 92 76 63 56 61 69 81 78 86 94 88 78 78 96 78 66 71 87 86 86 90 90 91 74 75 76 68 64 60 54 62 75
89 100 100 100 100 100 100 100 100 100 100 100 91 93 98 58 61 91 99 100 99 99 91 90 84 77 72 72 78 90 86 84 94 100 98 94 87 75 72 69 61 62 68 77
94 100 100 100 100 100 100 100 100 100 100 100 100 100 96 70 87 96 88 89 89 94 90 83 73 74 78 81 96 98 89 97 100 100 100 100 80 73 71 66 72 79 73 74

GFSCGP_250_rhum_078.txt.gz
RH
100 100 81 74 54 34 25 44 58 99 100 76 35 24 34 51 77 63 57 39 32 50 59 36 18 39 44 40 45 100 100 100 100 96 88 97 100 100 100 100 100 100 100 100
100 100 100 86 56 40 32 33 59 87 100 86 37 26 30 40 59 64 66 58 60 60 51 34 40 29 53 75 53 100 100 100 98 88 80 79 98 100 100 100 100 100 100 100
100 100 100 85 62 46 39 28 59 59 100 99 53 27 23 32 46 48 51 57 44 48 40 50 69 53 41 88 72 74 100 100 100 100 100 98 99 100 100 82 96 96 100 96
81 100 100 82 71 52 36 31 46 69 99 100 76 32 27 24 38 53 58 50 69 65 57 65 82 81 75 40 61 76 89 100 100 100 100 99 100 79 87 100 100 100 97 74
100 100 100 96 91 64 48 36 46 64 90 100 76 33 28 28 39 45 48 70 77 55 74 82 88 76 93 100 77 68 66 66 70 93 92 99 92 78 93 89 77 76 87 86
100 100 100 100 86 79 59 31 35 67 51 100 94 40 29 27 26 41 42 51 78 71 47 81 79 81 64 78 98 88 83 75 82 89 87 90 93 99 100 96 82 75 65 60
100 100 99 98 100 85 61 44 44 53 46 62 100 60 30 28 32 32 36 39 74 95 72 58 44 53 70 66 72 92 100 100 100 100 100 100 100 100 85 73 70 65 64 58
100 100 100 100 100 74 62 45 47 40 46 43 100 77 38 31 30 36 41 44 45 59 100 96 90 99 56 57 73 94 95 99 100 100 100 100 100 98 99 81 69 65 69 66
100 100 100 100 85 69 70 51 48 40 53 52 94 100 48 37 34 34 41 46 42 44 49 52 63 85 100 88 54 58 85 71 52 50 66 63 59 84 82 74 67 58 59 51
100 100 100 99 83 65 70 63 47 42 74 48 67 98 100 48 40 33 34 32 34 35 37 38 34 29 37 60 83 91 84 97 100 99 100 99 100 91 62 52 83 79 80 73
100 100 100 95 70 70 76 61 57 64 81 65 44 98 100 68 44 45 39 37 31 30 32 42 44 32 28 32 46 58 72 80 65 62 62 61 61 58 75 74 100 98 66 84
100 99 90 100 96 85 74 60 59 65 100 91 42 95 100 100 57 46 52 49 45 35 31 35 40 46 34 30 32 42 81 99 84 75 75 76 70 62 59 100 100 96 100 100
83 81 79 75 80 80 71 76 70 51 100 92 71 100 75 100 97 42 50 51 57 53 38 39 39 36 37 37 38 43 54 85 98 97 91 99 89 98 95 97 100 100 97 100
52 56 56 66 67 72 76 70 64 50 100 100 100 98 54 87 97 75 51 67 52 52 58 51 44 42 38 36 40 46 48 50 57 74 93 100 100 98 98 96 100 100 100 90
46 38 42 55 67 72 54 52 49 79 100 100 100 93 60 67 93 100 74 98 70 46 49 68 66 52 41 40 40 41 46 47 46 58 79 97 100 92 82 93 98 100 100 100
34 35 47 53 61 61 45 49 61 98 100 100 100 82 92 68 58 93 100 100 97 74 59 72 97 75 53 41 43 40 40 38 42 52 65 66 65 65 68 73 86 79 73 74
26 28 40 42 60 58 39 53 90 96 100 100 100 100 100 80 55 58 96 100 100 82 88 84 100 97 71 58 52 47 49 46 49 53 54 54 46 39 39 39 39 44 41 39
18 29 38 48 59 43 42 96 100 100 100 100 100 100 100 91 100 77 52 94 100 86 85 83 62 100 97 82 68 62 54 58 56 50 52 59 59 59 58 52 45 45 46 45
18 26 33 41 53 44 51 92 100 100 100 100 100 100 100 100 99 69 78 68 98 100 95 88 65 73 100 100 78 67 73 69 68 60 51 68 82 71 63 67 64 65 65 67
15 21 32 38 45 48 98 100 100 100 100 100 100 100 100 100 81 77 88 88 98 100 100 90 66 68 99 82 70 74 81 75 71 62 64 67 90 79 75 81 93 82 83 82
15 25 36 37 50 54 100 100 100 87 92 100 99 100 100 100 100 96 90 100 100 100 100 96 71 58 95 98 77 80 77 79 74 66 70 71 94 87 80 87 94 80 85 86
16 28 38 41 52 72 100 100 100 100 88 100 100 79 99 100 100 100 100 100 100 100 97 86 68 65 84 81 71 72 77 77 72 64 67 81 89 85 88 96 96 94 95 99
22 22 26 38 56 96 100 100 100 100 92 100 99 42 66 100 100 100 100 100 100 77 77 66 60 67 83 87 71 78 83 76 68 77 67 92 100 82 100 100 94 100 96 96
17 23 33 42 58 98 100 100 100 100 100 100 100 85 58 82 90 84 58 67 59 67 52 45 45 59 82 83 78 88 87 85 79 86 80 99 93 88 100 100 100 100 100 99
20 22 38 46 74 95 100 100 100 100 100 100 100 100 100 100 92 70 64 46 85 94 71 54 57 53 74 73 75 81 99 93 89 97 99 93 100 100 100 100 100 100 91 96
21 28 40 58 68 94 100 100 100 100 100 100 100 100 100 100 100 100 100 100 99 91 68 75 81 70 68 70 86 96 98 100 90 88 97 96 98 97 100 100 99 96 94 86

GFSCGP_250_rhum_081.txt.gz
RH
83 62 66 45 100 100 98 94 60 34 31 36 57 100 62 28 23 71 100 100 100 74 60 59 78 78 85 83 82 77 71 70 97 100 100 94 100 100 100 100 100 100 100 100
89 88 63 50 100 100 100 93 61 40 32 39 62 100 69 30 25 25 41 88 100 88 74 46 44 54 63 68 69 74 74 68 56 100 100 100 85 97 100 100 100 100 100 100
100 100 70 42 100 100 100 99 70 46 33 33 88 100 78 34 24 25 36 48 80 79 61 44 39 35 41 38 45 56 57 73 78 83 95 100 100 100 98 100 100 100 100 96
63 100 85 51 70 76 100 100 77 49 31 29 78 97 93 47 26 24 33 39 32 30 29 32 30 18 16 15 17 35 36 48 74 71 83 71 92 100 100 100 100 100 100 100
100 98 77 50 99 100 100 100 83 64 40 34 44 50 90 65 30 26 24 43 44 38 61 83 81 86 62 34 33 30 40 57 90 68 92 97 86 84 96 100 99 99 96 90
100 98 73 97 86 95 100 100 96 83 44 35 38 37 64 76 32 29 24 38 47 44 60 90 80 98 97 87 53 42 91 100 90 79 100 100 100 100 100 100 99 89 76 88
100 100 100 86 73 68 100 100 100 92 68 48 40 43 66 87 36 32 26 26 42 51 51 66 70 72 88 85 73 60 49 64 83 83 84 86 91 100 100 98 98 100 99 97
99 100 100 100 100 100 100 100 93 99 69 53 41 39 90 100 58 38 31 28 32 32 41 84 77 70 88 93 68 66 65 62 55 60 58 55 70 80 81 90 90 87 83 86
100 100 100 99 99 100 100 83 99 74 88 67 44 41 97 100 93 56 36 32 31 34 34 32 38 59 73 61 79 72 72 74 94 92 83 84 78 67 64 65 65 67 88 88
100 100 100 100 74 76 93 100 96 91 91 81 49 39 56 100 100 86 41 39 39 38 38 32 27 29 31 28 28 54 78 80 60 82 94 91 89 91 86 88 84 81 78 72
100 100 100 100 99 98 100 100 100 100 95 87 60 44 44 60 100 97 57 43 45 36 38 36 29 27 30 30 28 32 46 64 75 85 91 93 88 82 66 63 71 75 72 81
100 100 100 100 100 100 100 100 100 100 82 84 68 60 63 57 85 100 81 53 42 42 44 42 38 39 33 30 32 33 43 47 60 72 68 64 75 61 66 75 92 100 100 100
100 100 100 100 100 99 97 100 100 100 100 94 93 69 61 74 79 100 100 86 48 52 46 45 56 43 42 39 34 34 36 46 81 100 100 100 100 100 99 97 91 92 100 100
100 100 95 100 100 100 100 100 100 100 96 99 71 54 50 63 77 89 100 100 93 65 77 53 57 54 48 55 44 41 38 37 42 43 45 56 81 91 94 99 100 100 100 100
97 100 99 86 100 100 100 100 100 96 84 64 84 71 61 55 72 80 56 96 100 100 100 78 68 64 59 75 64 52 47 45 42 46 48 51 56 56 68 81 98 100 100 99
40 46 73 99 100 98 92 94 90 86 78 72 65 58 57 78 94 87 61 100 100 96 100 100 100 94 77 85 96 76 65 51 47 48 51 52 51 47 49 53 54 56 50 40
24 24 32 42 57 66 72 71 71 58 61 54 48 60 62 75 100 100 98 72 80 92 97 100 100 70 73 64 100 100 83 70 64 57 59 56 55 51 49 46 45 45 53 58
28 23 18 31 37 40 42 52 52 45 50 51 54 52 100 84 87 99 100 100 100 77 59 70 100 74 54 47 54 76 92 86 76 62 63 69 66 62 58 62 58 57 64 64
24 23 20 23 25 26 27 42 50 50 59 64 52 59 100 100 84 100 100 100 99 73 89 76 69 61 51 48 69 60 55 73 82 68 55 57 62 66 64 57 59 68 71 62
20 24 21 19 20 25 35 45 51 52 58 66 52 82 100 100 99 100 100 100 100 73 72 74 90 78 94 82 83 95 78 64 73 70 71 60 58 77 72 70 60 61 78 68
17 19 24 19 16 24 31 48 51 51 64 71 63 95 100 86 100 100 100 100 73 96 100 100 100 100 100 87 98 92 80 62 61 64 61 70 83 90 85 79 73 72 66 72
18 22 33 15 14 30 34 48 49 52 73 100 96 100 96 92 100 100 100 100 100 100 100 100 100 100 100 97 90 73 48 40 41 49 61 66 79 83 79 79 80 80 86 90
26 32 20 12 16 33 36 46 54 55 83 100 100 100 95 100 100 97 100 100 100 100 100 100 100 100 98 65 51 58 50 55 49 59 64 65 63 74 91 89 85 90 91 93
16 25 16 10 15 31 37 47 60 65 83 100 100 100 100 100 100 100 99 87 69 88 100 100 100 100 80 57 50 51 62 69 78 69 64 63 67 80 84 83 85 89 92 92
18 18 14 13 18 34 40 44 61 68 85 100 100 100 100 100 100 100 100 100 99 62 61 95 95 95 63 69 68 64 71 92 90 67 69 72 81 84 93 95 90 86 96 98
18 25 14 15 13 28 33 45 64 80 98 100 100 100 100 100 100 100 97 97 99 82 93 100 100 100 100 81 79 92 94 99 91 73 82 92 98 100 97 98 100 98 96 89

GFSCGP_250_rhum_084.txt.gz
RH
100 100 100 100 98 100 74 54 94 100 83 66 51 28 47 42 60 27 24 23 68 100 96 65 75 90 99 100 97 100 100 92 83 100 100 100 100 100 100 100 100 100 100 100
74 96 100 100 85 100 96 64 82 100 100 75 45 32 31 27 65 58 27 25 32 48 98 97 61 62 79 84 98 100 100 100 100 100 99 100 100 100 100 100 100 100 100 100
91 100 100 97 82 100 100 80 53 100 97 95 58 36 35 29 46 75 28 26 27 37 37 81 99 89 76 68 78 89 93 81 92 99 100 100 100 92 86 100 100 100 100 100
81 100 100 99 88 85 90 68 61 83 100 100 83 47 34 37 38 90 34 26 27 39 41 35 38 70 77 59 63 79 83 84 76 78 84 93 93 90 100 74 92 100 100 98
89 100 100 64 77 58 94 57 60 60 100 100 94 69 49 39 41 94 46 28 28 43 42 65 55 51 42 46 46 46 59 64 64 66 62 63 81 81 88 100 100 100 100 100
96 100 100 100 92 71 80 51 68 57 99 100 100 91 59 48 46 87 61 31 26 37 41 50 61 65 55 41 39 44 30 41 52 52 53 54 61 70 78 89 94 89 100 100
100 100 100 100 100 86 82 88 64 66 97 100 100 100 72 53 48 76 83 42 30 28 36 41 54 63 78 83 70 57 46 44 32 38 46 67 88 96 91 92 98 100 100 100
100 100 100 100 100 100 93 78 51 93 96 100 100 100 78 63 54 51 98 85 43 26 29 34 35 38 54 72 71 76 70 66 66 70 70 94 100 97 97 100 100 100 100 100
100 100 100 100 100 99 99 100 100 99 66 88 100 100 74 81 58 50 53 100 54 31 29 30 36 38 37 34 33 51 71 70 80 79 78 96 100 93 85 83 80 81 84 97
84 92 100 100 100 93 70 90 94 82 63 95 100 100 100 87 66 63 54 75 80 40 39 31 34 34 31 30 29 26 30 66 83 78 85 92 85 82 75 79 74 64 60 61
100 100 100 100 100 100 100 90 92 99 72 100 100 100 100 92 80 64 80 61 100 69 41 46 44 38 34 30 29 29 30 36 51 64 80 81 69 66 78 75 69 73 69 66
100 100 100 97 100 100 100 95 100 77 59 70 76 100 100 100 95 72 87 99 100 89 50 47 47 40 39 30 29 31 30 35 54 59 62 51 61 65 67 66 61 63 64 68
99 100 100 100 100 97 98 100 98 72 68 58 100 100 100 100 100 71 66 88 100 100 79 50 57 59 42 35 35 37 35 37 35 34 33 31 30 32 34 35 38 48 51 60
84 74 87 100 100 100 76 79 100 100 100 100 100 100 100 100 100 100 71 59 87 100 100 86 72 90 65 45 50 47 50 42 39 41 44 45 45 47 51 52 52 54 66 77
82 80 63 67 93 100 100 100 100 100 100 100 100 100 100 100 94 94 73 42 51 94 100 100 98 100 90 77 81 52 63 77 64 54 49 48 50 54 53 52 52 59 64 72
60 76 72 72 100 100 100 100 100 100 100 100 100 100 100 100 98 90 85 58 58 91 100 100 100 100 100 97 100 97 70 71 94 78 70 64 55 45 46 48 47 50 55 60
25 43 65 68 77 74 97 100 100 100 100 100 100 100 100 100 100 93 73 74 57 88 100 100 100 100 100 100 100 100 86 72 96 87 80 76 67 65 52 53 51 61 63 55
16 17 20 31 48 57 68 88 100 99 99 85 80 99 100 100 99 94 74 67 58 67 100 100 100 91 61 100 100 100 73 52 51 56 54 65 62 69 71 72 66 71 72 73
20 22 19 19 22 29 43 50 73 93 91 94 99 100 100 96 100 91 79 64 81 73 100 100 100 100 100 91 87 78 68 64 54 47 62 70 72 60 61 66 68 70 79 79
17 19 19 23 17 16 26 33 42 48 52 63 64 72 82 89 85 81 78 77 78 100 88 100 100 100 100 95 100 90 100 85 46 36 46 52 62 46 47 51 54 61 68 71
17 16 20 17 17 20 23 22 25 28 37 47 42 53 63 55 59 74 71 77 79 100 100 100 100 100 100 94 88 91 79 75 68 66 52 55 60 62 72 67 67 69 72 66
12 13 16 19 23 20 18 24 26 26 30 33 30 43 61 59 78 82 78 77 98 100 100 88 100 100 100 100 100 99 72 54 56 43 50 56 53 62 64 64 78 91 77 68
14 14 12 13 18 21 16 20 22 22 27 27 35 46 68 73 77 70 78 98 100 100 100 98 100 100 100 100 100 100 92 58 70 81 67 66 66 71 67 67 81 79 68 63
13 15 17 18 23 16 14 13 16 26 25 27 35 50 82 79 72 76 77 100 100 100 100 100 92 100 100 100 100 92 70 72 86 77 85 81 92 94 76 75 71 84 70 62
14 14 15 16 18 15 16 14 16 44 34 30 40 59 80 81 82 66 88 100 100 100 93 87 74 82 89 81 54 58 52 63 70 100 100 100 99 94 89 78 91 77 72 76
32 27 35 30 23 23 18 23 15 36 44 41 55 75 88 95 95 77 99 100 100 100 100 98 100 96 89 61 71 98 99 79 92 100 100 98 89 78 79 94 82 80 89 77

GFSCGP_250_rhum_087.txt.gz
RH
98 78 100 100 100 92 93 100 92 86 87 76 88 66 67 44 39 33 31 55 31 23 27 43 52 73 89 100 100 100 100 100 100 100 100 100 100 82 100 88 93 83 95 100
63 96 100 100 100 98 99 100 100 76 73 68 83 48 97 68 51 35 35 70 32 23 24 32 33 51 69 80 97 100 100 100 100 100 100 100 100 100 100 96 99 100 92 76
81 93 100 100 100 100 92 100 100 68 59 73 68 66 100 77 59 51 35 72 39 26 27 34 31 34 50 67 76 87 89 95 100 100 100 100 100 96 93 100 100 86 93 100
100 100 100 100 100 100 100 100 79 63 64 79 72 80 97 87 69 57 38 81 39 28 25 35 29 28 38 69 69 69 90 83 84 94 100 100 100 100 80 100 96 100 100 100
100 100 100 100 100 100 100 100 80 73 93 80 73 90 99 99 78 58 39 93 64 46 26 38 37 49 59 53 46 52 77 76 74 75 87 100 95 99 94 100 100 100 100 100
94 100 100 100 100 100 100 100 98 95 85 61 76 97 100 100 90 69 58 68 81 76 38 28 41 52 66 65 63 61 53 51 60 61 62 73 79 79 90 91 95 96 100 100
99 100 100 100 100 100 100 100 100 68 62 69 67 87 100 100 95 94 74 57 88 81 50 25 27 34 46 56 58 62 60 53 53 59 58 56 63 75 77 87 91 91 98 100
99 99 100 100 100 100 100 100 96 68 65 56 65 96 100 100 92 100 90 65 65 95 71 34 26 27 30 30 30 36 50 55 59 63 77 66 77 87 93 97 90 100 100 100
96 100 100 100 100 100 100 100 100 88 70 63 72 100 100 100 83 99 99 75 51 97 88 55 31 29 32 34 32 31 29 31 50 45 56 76 94 100 100 100 100 100 100 100
100 98 99 100 100 100 100 100 99 79 81 89 100 100 100 100 100 100 100 82 60 86 92 85 42 34 33 32 29 28 26 26 29 69 92 90 93 95 92 88 89 87 86 84
79 100 100 100 100 100 72 70 78 68 70 73 85 100 100 100 95 88 100 86 63 57 100 97 61 38 41 39 35 33 25 26 29 43 72 95 95 81 82 77 77 81 74 79
100 73 96 100 100 100 100 100 100 62 56 50 73 100 100 100 89 100 100 89 74 62 59 100 82 46 48 53 49 39 32 26 28 35 47 44 55 62 72 80 75 76 78 81
100 96 100 98 91 79 79 72 56 55 52 45 52 94 100 100 96 100 100 99 86 92 83 58 74 95 59 65 68 63 38 30 30 33 35 37 40 41 47 46 42 40 44 38
94 100 100 100 100 100 100 98 96 90 65 66 53 83 100 100 94 98 100 100 100 74 71 72 67 54 100 68 100 79 69 50 43 43 40 36 33 33 37 39 41 38 37 38
100 94 100 100 100 100 100 100 100 72 61 63 86 74 96 100 100 68 100 100 100 99 100 86 73 77 58 97 91 100 99 87 69 72 78 61 41 38 40 44 44 46 49 51
99 100 90 95 100 100 100 100 100 93 82 60 59 69 99 100 100 99 73 100 100 100 100 100 78 95 100 66 100 100 100 100 97 76 82 75 62 61 50 49 56 63 58 60
79 85 88 90 71 64 80 100 100 98 100 90 53 69 100 100 100 100 95 69 100 100 100 100 92 88 100 100 77 100 100 100 100 82 74 64 64 50 52 60 67 74 57 53
25 32 44 65 59 47 58 72 74 86 78 67 97 96 100 100 100 100 100 100 100 100 100 100 100 89 100 100 100 90 90 100 100 100 92 69 58 56 56 60 71 71 56 49
22 15 16 22 31 30 36 47 56 69 98 74 67 78 100 100 100 100 100 100 99 97 100 99 99 90 100 100 100 100 77 86 100 100 100 98 89 87 61 74 73 86 84 66
27 22 13 12 13 20 35 32 37 46 70 58 47 47 69 99 100 100 100 100 100 100 96 94 93 82 100 100 100 100 100 100 100 100 97 100 100 78 56 58 54 75 81 70
19 19 20 20 17 22 23 21 22 31 43 52 51 50 54 56 59 82 100 100 100 100 97 96 99 86 94 100 100 100 100 100 100 100 100 100 88 76 55 50 44 44 60 66
17 18 18 16 15 20 22 21 20 23 26 30 36 35 38 52 59 66 81 99 98 99 100 98 92 90 78 100 100 100 67 100 100 100 100 100 99 89 78 50 40 57 80 82
13 14 15 15 16 16 16 18 19 25 28 26 24 24 28 36 50 60 69 71 83 85 86 89 100 100 81 81 100 100 100 89 100 100 100 100 96 58 53 51 46 53 72 94
15 14 14 13 14 15 16 17 20 24 32 26 24 25 23 26 35 44 63 70 77 85 98 99 100 100 88 79 100 100 100 100 96 100 100 91 79 85 75 50 58 78 79 97
19 17 16 13 16 12 12 13 18 22 25 24 21 22 28 30 33 49 64 82 99 98 100 90 96 100 96 83 100 100 100 100 100 100 100 98 92 97 75 100 100 98 100 100
23 27 32 16 17 23 18 16 14 16 18 16 18 22 24 30 34 45 67 81 92 100 100 99 100 100 97 99 100 100 100 100 100 100 98 95 95 100 100 100 100 100 100 100

GFSCGP_250_rhum_093.txt.gz
RH
32 33 60 87 72 70 98 92 100 100 100 100 100 100 100 55 90 100 48 49 48 42 41 41 26 23 36 72 90 86 85 100 100 100 80 100 100 100 100 100 100 100 100 100
27 37 97 99 95 67 57 98 100 100 94 96 100 100 100 96 100 81 48 46 53 47 40 37 27 27 24 64 62 98 96 92 98 100 100 95 100 100 97 91 84 78 82 74
28 76 95 96 100 86 63 100 100 100 100 77 100 100 100 100 100 73 55 48 65 55 39 50 33 23 28 32 70 69 98 100 81 94 98 100 100 94 100 98 100 99 83 98
27 60 85 99 90 87 60 86 100 93 100 67 92 100 100 98 96 78 63 53 74 55 43 44 37 24 28 26 40 70 73 100 85 98 100 100 98 100 100 100 99 84 80 95
29 79 82 98 99 71 66 73 94 99 100 64 89 100 100 100 78 92 72 57 87 58 47 44 47 29 24 32 26 48 61 73 100 80 100 100 100 100 84 93 100 100 95 87
60 96 91 100 93 89 74 78 96 100 100 63 79 100 100 100 79 100 84 74 81 66 41 71 58 43 25 35 44 35 62 62 83 100 100 100 100 100 97 100 100 100 100 100
88 84 97 87 89 91 86 92 98 98 89 83 92 100 100 100 75 89 88 84 86 80 40 75 56 50 34 25 27 42 44 65 69 62 72 97 100 100 100 100 100 100 100 100
78 93 90 87 79 81 79 95 100 100 100 88 95 100 100 100 75 71 95 98 100 77 35 71 65 42 51 30 24 24 29 41 57 65 75 80 85 92 99 100 100 100 100 100
91 100 91 82 75 62 65 88 100 100 100 100 96 100 100 100 66 86 100 100 100 89 60 66 69 65 38 46 30 27 25 24 22 24 44 58 66 74 90 98 100 100 100 100
85 97 95 79 80 72 73 92 99 100 86 82 94 100 100 100 98 98 100 92 100 100 97 46 81 68 60 61 39 35 29 28 27 21 23 29 46 58 63 77 96 100 100 100
82 94 100 98 85 84 89 95 98 100 80 86 99 100 97 100 100 96 94 89 97 100 100 44 91 67 60 93 51 42 40 30 32 24 20 24 29 38 39 44 60 78 95 100
88 96 95 90 95 99 100 100 100 100 76 100 100 100 76 100 100 100 98 80 73 100 100 69 66 78 66 80 95 59 54 51 41 33 24 22 25 28 38 52 66 86 94 99
89 100 92 100 100 100 100 100 100 100 90 87 99 100 99 100 100 100 100 87 82 76 97 78 61 100 72 44 58 100 93 86 73 51 41 30 25 24 29 42 62 70 69 78
77 95 96 95 90 100 100 100 100 100 100 98 94 78 99 100 100 100 100 86 73 86 100 91 46 95 90 83 82 78 81 100 100 98 84 56 40 31 28 28 28 29 31 35
80 99 96 92 94 100 100 100 100 100 100 85 100 92 100 100 100 100 100 100 89 61 58 100 100 62 100 87 98 80 78 98 73 74 100 100 78 59 46 38 36 34 36 34
95 95 92 93 91 94 100 100 100 95 84 100 99 100 100 100 100 100 100 100 100 93 63 71 87 100 100 100 80 61 49 63 90 51 51 60 100 100 99 88 82 72 55 42
90 84 83 96 99 92 100 100 100 100 89 72 75 98 99 98 100 94 100 100 100 100 74 45 62 72 44 70 100 98 75 46 58 46 38 68 50 48 89 100 100 100 100 93
81 83 88 80 96 98 94 100 98 86 100 100 100 73 83 100 100 100 97 100 98 89 92 90 68 61 72 64 50 70 95 100 71 74 66 57 58 73 75 84 95 100 100 100
78 77 84 91 96 100 100 91 99 100 100 97 98 100 67 99 99 73 73 75 79 74 69 100 93 90 59 67 59 70 62 70 98 91 93 87 80 73 68 75 71 95 90 99
79 75 74 73 80 96 97 99 100 100 86 98 100 100 72 75 79 73 61 60 58 100 100 100 84 76 92 81 92 100 100 100 100 100 97 79 97 80 76 68 69 73 90 100
76 71 69 66 63 79 83 73 80 92 89 85 67 74 91 95 100 100 100 99 66 65 94 92 82 69 81 77 69 70 94 100 100 100 100 99 100 100 100 93 94 93 84 86
42 51 52 48 53 51 51 54 64 67 65 63 59 62 59 58 54 88 100 100 100 100 81 84 81 56 82 100 98 66 44 48 55 71 98 100 100 100 100 100 92 100 100 100
28 28 26 26 32 42 51 41 38 32 34 32 37 38 47 56 51 47 47 78 100 100 100 100 100 100 96 85 94 100 100 99 100 100 100 100 100 100 100 100 100 100 86 99
26 26 28 30 35 29 26 25 19 17 17 15 18 22 22 26 30 35 38 43 44 48 72 79 100 100 100 100 100 100 100 100 100 100 100 100 100 100 94 94 100 100 98 100
31 32 35 32 27 26 27 21 18 18 16 16 18 17 14 13 13 15 16 20 25 32 38 46 54 73 81 77 75 80 84 94 96 98 99 98 90 83 91 97 99 100 97 89
32 32 32 30 29 28 24 26 24 20 17 21 18 17 17 19 20 21 18 12 18 24 27 34 39 44 49 52 55 58 58 59 61 67 75 80 83 85 96 97 98 98 98 99

GFSCGP_250_rhum_096.txt.gz
RH
85 57 81 88 56 52 45 36 38 48 50 99 77 100 100 93 91 98 100 45 100 63 42 24 26 25 24 19 60 96 95 75 75 91 100 100 100 100 100 100 100 99 100 100
73 65 86 63 49 48 36 34 41 54 50 98 80 96 100 100 100 100 100 99 100 46 44 28 22 23 24 21 22 96 71 90 85 66 88 90 95 95 99 100 100 100 100 95
52 57 55 52 37 33 30 33 55 66 63 79 77 94 100 100 100 99 100 100 94 54 53 37 25 25 24 21 23 65 93 71 88 99 74 84 100 97 98 96 100 100 100 100
59 47 44 40 33 32 26 61 71 83 86 74 90 84 100 100 100 88 100 100 96 73 60 43 31 24 26 23 26 28 68 100 77 86 80 95 68 95 100 100 100 100 99 100
53 49 39 29 29 26 27 77 76 90 96 70 82 60 76 100 100 93 100 100 84 64 66 53 40 25 22 27 27 27 47 76 100 100 96 100 95 94 100 100 100 96 100 100
42 47 33 27 22 25 39 78 79 93 94 71 95 67 68 100 95 90 88 100 90 77 73 66 48 26 27 32 22 24 29 58 73 94 100 100 100 100 100 100 100 100 100 100
48 40 29 21 21 31 38 100 88 89 75 77 92 64 63 100 95 92 89 100 100 86 66 73 55 26 34 34 30 23 22 28 65 89 100 100 100 100 100 93 98 100 100 97
47 31 26 22 27 34 38 90 98 96 84 75 73 62 64 100 100 95 82 100 100 54 68 66 63 26 39 48 41 27 23 29 36 52 73 95 100 100 100 100 93 100 100 100
32 29 26 22 32 30 52 88 100 87 87 82 80 86 75 100 100 100 100 100 100 49 74 100 100 38 36 54 38 42 26 26 24 42 67 66 78 100 100 100 100 100 100 100
28 24 28 31 43 56 80 100 92 74 86 80 97 91 95 100 100 100 100 100 100 69 100 100 100 91 32 43 57 43 37 25 27 28 23 26 53 77 86 98 100 100 100 100
28 30 31 38 42 77 88 94 97 84 87 83 95 100 71 97 100 100 100 99 92 100 100 100 100 100 97 30 72 42 60 45 30 28 28 28 18 19 48 93 99 100 100 100
29 31 36 51 65 86 100 100 88 80 80 81 89 100 100 100 100 100 100 93 56 100 100 94 100 100 100 40 80 59 53 73 57 48 35 29 39 22 24 36 54 94 99 100
34 34 36 58 88 100 100 93 78 76 78 72 83 100 100 89 100 100 100 74 59 99 100 52 88 100 100 75 66 78 56 39 95 84 82 37 49 56 26 27 31 36 39 41
31 32 44 68 71 94 99 83 92 93 97 96 93 100 100 100 100 100 100 92 100 80 100 90 49 77 100 66 59 91 76 78 77 75 91 80 57 68 65 56 32 24 25 26
28 30 44 68 80 88 100 100 92 90 99 100 100 96 100 99 94 100 100 99 100 100 100 94 61 64 79 59 41 50 92 74 61 54 57 46 36 45 90 94 73 67 67 61
25 31 47 77 86 100 91 100 100 95 98 99 100 100 100 100 100 100 100 100 100 100 100 100 62 56 77 100 100 76 100 100 75 100 77 48 42 33 33 39 80 100 100 100
30 44 55 86 69 81 100 100 100 95 91 97 99 100 100 100 99 100 100 100 100 100 100 100 97 100 64 54 69 98 100 100 100 84 71 82 48 46 48 46 45 43 42 47
29 33 59 92 84 94 97 93 99 100 100 89 100 100 100 89 87 88 96 100 100 100 100 99 94 79 93 88 45 56 73 57 71 93 100 100 94 89 87 74 75 73 65 58
32 35 70 96 93 89 99 94 90 100 100 100 85 72 92 100 100 98 100 100 100 100 100 100 100 98 93 61 51 52 48 67 41 42 58 99 100 100 100 100 100 99 92 81
29 43 66 100 92 88 77 90 95 89 88 100 100 100 82 66 94 100 100 100 100 100 100 100 100 99 100 99 81 60 51 41 48 58 69 65 85 83 97 100 99 99 100 100
28 34 72 93 93 97 80 84 95 80 79 84 99 100 100 100 97 95 80 96 100 100 100 100 100 100 96 75 65 58 76 99 78 54 68 61 59 68 81 92 98 93 96 98
28 29 47 71 83 99 82 96 96 87 92 83 79 70 85 89 100 100 100 91 58 82 98 100 100 100 95 86 98 88 100 98 75 72 72 69 62 55 52 65 61 49 61 77
29 28 41 55 68 77 73 85 94 90 89 80 75 68 66 70 76 68 77 100 100 95 78 77 98 100 95 70 64 81 100 100 99 69 100 100 99 95 73 78 97 97 100 100
27 25 30 40 53 58 64 62 68 75 78 83 70 60 44 43 40 48 51 56 58 81 89 97 91 83 77 100 100 100 80 70 60 76 61 86 100 100 100 100 100 100 100 100
27 25 28 30 37 42 46 57 49 48 48 46 50 39 41 29 23 25 29 34 44 52 51 48 48 78 100 100 100 100 100 100 100 100 100 84 89 78 84 100 100 100 100 100
28 28 29 29 26 29 33 34 36 30 27 24 19 18 19 17 16 16 16 15 16 18 26 33 44 51 53 58 72 98 100 100 100 100 100 100 100 100 94 85 81 82 85 90

GFSCGP_250_rhum_102.txt.gz
RH
47 57 56 74 92 93 87 82 94 98 84 66 62 58 61 65 68 43 43 47 52 67 100 92 72 100 100 68 40 24 20 18 17 30 65 100 100 94 100 100 100 79 100 100
46 42 62 57 61 76 74 81 80 77 99 73 77 69 87 81 54 44 39 56 80 87 100 77 63 100 100 80 41 24 19 20 17 24 55 100 100 93 100 100 100 100 100 100
59 46 46 50 56 65 71 81 85 91 99 74 63 72 100 72 53 42 47 81 98 97 100 100 69 100 100 77 38 24 22 21 18 18 59 97 100 100 81 100 100 100 100 100
49 58 50 51 44 53 67 82 83 100 100 100 100 74 76 54 50 36 50 96 85 100 100 100 85 100 100 72 37 24 24 23 20 20 61 91 100 100 100 100 100 100 100 100
50 72 54 52 50 52 59 52 49 49 45 45 52 60 61 52 47 33 55 100 97 100 100 100 98 87 92 65 35 26 27 29 22 20 37 87 100 100 100 100 100 100 100 100
77 83 76 64 65 61 62 56 52 48 49 50 81 58 55 62 38 30 53 98 100 83 100 100 100 84 76 61 32 25 33 36 24 19 24 84 96 100 100 100 100 100 100 100
75 62 57 59 59 67 67 62 58 51 55 73 92 45 58 66 29 34 87 85 100 87 67 99 100 85 82 57 29 27 37 38 28 22 21 53 95 87 100 100 100 100 100 100
52 48 48 54 57 76 69 62 55 52 62 80 60 52 76 42 30 58 100 99 100 100 75 54 100 74 93 77 31 39 34 42 35 26 23 21 60 75 99 100 100 100 100 100
27 26 36 41 52 64 71 50 74 69 59 58 57 72 61 35 44 90 100 77 100 100 99 64 87 76 89 85 39 91 47 45 44 31 28 34 33 65 100 100 100 100 100 100
20 26 36 47 44 47 49 73 68 62 76 78 67 69 41 30 56 100 100 80 93 87 96 87 80 75 78 89 34 100 58 36 45 44 31 31 42 53 60 96 100 100 100 100
20 23 28 29 32 47 50 56 61 65 60 62 69 69 37 30 87 100 100 73 67 80 84 70 74 68 84 93 42 72 100 97 63 44 35 29 30 34 46 62 89 100 100 100
14 20 25 24 34 39 39 54 66 52 58 62 59 59 35 46 100 100 100 98 62 63 86 100 99 71 86 100 68 83 86 100 100 47 45 39 37 33 26 33 45 63 69 80
11 15 20 24 24 29 24 29 41 47 57 58 55 41 40 71 100 100 100 100 79 83 79 100 100 81 55 99 62 81 56 82 100 100 43 34 34 42 61 30 23 24 19 22
13 15 18 23 26 31 30 35 46 44 39 45 42 45 53 91 100 100 100 100 95 98 100 57 97 100 100 74 63 40 52 65 71 100 92 47 39 41 39 30 26 28 34 36
14 13 20 30 33 23 26 27 28 32 42 45 63 56 77 98 100 100 100 100 100 83 82 60 74 94 100 92 100 100 69 61 79 100 93 52 39 44 65 54 29 27 27 33
14 13 26 37 34 26 32 31 37 42 43 56 86 90 79 100 100 100 96 100 100 100 100 79 85 82 100 100 100 100 100 100 100 80 66 62 74 42 44 96 61 34 40 34
12 15 26 34 37 31 37 40 36 39 42 58 79 88 100 100 100 100 100 100 100 100 100 69 71 70 100 99 84 96 81 100 100 100 100 66 69 85 44 88 100 68 65 93
10 14 24 31 35 31 38 39 36 77 69 56 80 93 96 97 100 100 100 86 100 99 82 64 54 75 74 100 100 100 84 82 100 100 100 100 75 67 99 96 95 87 83 76
14 15 22 28 34 39 30 36 42 87 72 100 100 100 100 100 100 100 100 100 100 100 100 94 71 58 73 61 66 64 86 99 95 100 100 100 97 59 68 79 77 81 96 90
16 16 22 25 28 35 22 40 35 63 67 69 100 100 100 88 86 91 100 100 100 100 88 90 79 66 71 83 60 62 99 100 100 100 81 100 100 100 100 86 56 41 56 47
14 16 20 27 30 28 24 39 76 63 72 67 84 100 100 98 93 100 100 100 100 97 100 100 100 100 100 95 65 52 52 56 73 98 100 100 100 100 100 100 100 100 95 98
15 18 21 25 29 28 32 41 45 58 82 83 99 100 100 100 94 100 100 100 100 100 100 100 97 94 99 96 92 70 70 70 69 68 63 60 69 97 100 100 100 100 100 100
19 23 21 24 31 24 30 33 31 44 68 81 99 100 100 100 85 86 94 100 100 100 100 100 100 100 100 100 100 100 100 100 93 68 68 65 79 65 80 100 100 100 100 100
19 20 22 27 23 26 28 30 33 40 70 83 100 99 94 99 100 100 100 97 98 100 100 100 100 100 100 99 100 88 71 67 80 97 100 100 100 100 100 89 99 100 100 100
16 19 23 26 26 25 30 32 36 47 67 97 100 95 87 98 100 100 100 100 100 100 98 96 99 99 99 95 88 86 90 92 86 77 68 65 79 95 100 91 74 80 88 96
17 18 22 25 29 28 27 33 37 55 82 79 72 80 100 100 97 96 90 89 95 96 88 88 82 71 78 87 87 88 83 75 73 69 79 90 96 97 94 98 100 100 100 100

GFSCGP_250_rhum_105.txt.gz
RH
69 48 39 46 50 50 43 41 50 76 85 87 83 62 62 56 51 49 41 76 100 100 77 49 39 38 100 100 97 96 70 41 24 19 15 21 96 100 100 100 100 100 100 100
56 54 51 51 46 42 39 38 43 59 63 67 68 61 67 62 62 52 39 64 100 94 49 48 45 32 89 75 86 100 83 38 24 18 15 19 73 100 100 85 100 100 100 100
66 61 54 56 55 46 47 44 49 52 58 50 58 54 62 67 58 51 62 93 100 92 66 47 78 44 69 67 68 97 76 34 24 19 16 18 45 100 100 100 97 94 100 92
57 55 60 81 88 74 44 69 72 60 48 42 42 36 43 50 85 77 98 92 74 68 69 46 47 52 76 84 92 96 63 33 28 20 17 18 48 100 100 100 100 100 86 98
53 67 72 75 79 77 55 47 47 53 56 50 50 41 59 65 78 90 60 53 52 65 64 79 86 70 100 100 90 89 53 38 29 22 19 18 50 92 100 100 100 100 100 100
66 74 94 81 99 100 98 69 58 65 64 57 58 48 65 76 71 53 52 55 79 47 45 67 100 100 85 78 77 87 46 35 28 24 22 18 31 90 100 100 100 100 100 100
88 94 100 100 93 94 80 89 88 78 67 58 69 58 58 53 59 56 62 76 68 43 44 100 100 100 100 85 80 79 42 28 26 28 26 20 22 70 100 100 100 100 100 100
32 37 53 85 97 100 100 100 98 65 66 75 66 43 54 58 75 67 70 76 64 34 73 100 100 98 100 95 77 65 36 31 30 32 32 22 22 29 98 100 100 100 100 100
18 22 39 59 94 95 100 100 100 82 76 68 52 46 58 72 81 74 74 72 47 30 93 100 100 65 100 97 65 65 45 40 49 33 40 31 24 28 77 100 100 100 100 100
17 22 27 37 41 48 68 88 78 58 58 59 58 57 70 85 93 76 72 57 38 52 100 100 98 64 71 82 82 81 66 68 58 30 43 42 31 31 48 88 100 100 100 100
10 14 23 27 27 43 59 58 47 49 50 54 62 76 98 93 87 72 70 51 40 94 100 100 99 86 67 64 80 77 61 66 72 51 52 43 35 37 35 47 77 100 100 100
9 9 18 22 25 29 30 35 36 36 45 56 74 94 100 74 69 77 70 38 48 100 100 100 100 66 100 89 81 70 81 52 100 100 99 54 45 45 36 32 41 50 88 100
10 12 14 14 15 20 24 29 35 36 44 54 76 80 98 70 77 89 67 47 98 100 100 96 76 78 100 100 77 75 100 57 71 75 78 100 54 52 48 45 45 34 39 41
11 14 14 12 12 15 20 25 31 32 34 41 62 77 79 78 71 74 56 97 100 100 100 85 66 79 95 98 79 87 100 100 100 100 85 70 85 68 48 58 48 43 40 31
12 15 16 13 13 14 20 26 30 35 39 43 52 48 55 61 71 60 63 100 100 100 100 98 84 86 100 100 68 76 100 100 94 86 97 90 80 79 75 51 49 51 57 50
15 15 15 14 15 17 22 24 28 31 34 38 40 45 48 68 59 53 96 100 100 100 100 100 82 91 100 100 81 64 75 91 100 100 100 100 100 100 91 78 67 49 41 50
15 15 14 11 13 17 24 26 27 30 32 32 31 40 46 58 74 79 100 100 100 100 100 90 98 72 95 100 100 100 100 100 100 94 99 99 100 100 100 76 64 72 80 59
13 12 10 11 14 21 23 25 29 30 34 35 34 41 50 69 93 100 98 100 100 100 100 98 75 92 100 98 100 100 100 100 100 100 100 100 100 100 100 98 93 75 90 83
12 10 11 12 17 15 19 26 30 33 38 40 40 39 40 67 95 100 100 100 100 100 100 100 100 82 55 65 98 94 80 93 77 98 99 100 83 100 100 84 100 100 91 64
12 12 13 16 24 22 22 38 37 41 48 52 49 48 58 96 100 100 100 100 100 78 100 100 87 58 55 53 57 100 100 100 90 100 100 100 100 98 100 100 100 100 90 98
13 15 17 21 26 21 26 40 42 44 50 46 45 51 73 94 100 100 100 100 100 85 100 100 100 100 88 75 86 79 99 100 100 100 100 100 100 100 100 100 100 100 100 98
15 16 18 22 21 26 28 38 44 42 55 44 53 63 84 98 100 100 100 100 100 86 100 100 100 100 99 88 67 69 84 96 97 94 91 85 99 100 100 100 100 100 100 100
13 14 15 18 27 22 25 33 40 43 52 64 53 56 58 86 100 100 100 100 100 100 100 78 75 86 94 92 76 59 53 60 72 97 89 76 58 80 96 100 100 100 100 100
15 16 18 20 20 24 27 30 41 48 57 72 84 74 63 64 78 75 93 100 100 100 100 100 100 85 85 90 93 90 80 67 60 61 59 56 60 74 72 76 86 100 100 100
14 16 18 20 25 23 28 35 39 47 61 79 82 85 85 83 72 76 88 98 99 100 97 100 100 100 100 97 90 83 78 75 75 75 78 86 79 72 60 57 58 57 71 84
13 18 21 24 26 26 30 36 40 41 58 84 79 77 98 99 96 85 75 69 75 87 99 100 100 100 100 99 94 97 98 94 100 100 100 100 98 94 94 100 100 99 87 92

GFSCGP_250_rhum_108.txt.gz
RH
76 79 54 62 70 89 95 81 74 88 83 91 100 85 60 46 70 57 65 61 63 49 54 51 49 51 35 40 39 70 99 96 89 71 55 20 15 20 100 100 100 100 100 100
64 59 62 64 56 57 71 78 65 57 55 46 61 66 46 37 45 48 46 57 67 62 59 55 48 42 45 48 42 57 95 100 100 92 47 24 16 17 100 100 100 100 100 100
62 54 56 57 57 47 47 51 61 65 62 51 43 37 37 38 38 47 56 56 53 51 44 44 49 58 57 39 42 52 95 99 100 91 40 27 18 17 100 100 100 100 100 100
88 88 70 52 46 78 77 90 88 64 55 51 47 35 35 40 48 53 59 62 52 51 49 45 56 80 58 43 43 86 76 95 96 71 37 30 20 17 100 100 100 100 100 99
56 57 72 81 85 80 84 98 100 97 75 54 46 41 43 53 56 66 64 62 55 54 58 61 75 80 54 44 44 100 100 95 94 49 38 32 20 17 64 100 100 100 96 100
58 52 62 69 74 86 97 92 91 85 78 58 63 66 59 73 76 75 61 64 52 59 68 67 68 98 62 45 53 100 100 86 84 42 36 32 18 19 29 100 100 90 100 100
50 50 53 80 87 87 92 91 90 90 83 72 96 95 60 88 82 76 69 61 54 70 72 71 85 84 50 42 59 100 92 94 58 38 33 28 19 20 29 100 100 100 100 96
25 32 32 50 72 97 100 100 89 92 83 89 88 86 65 82 65 68 67 56 55 67 65 60 83 64 41 39 100 100 80 92 50 42 34 27 19 20 25 83 100 100 100 100
21 21 38 41 66 87 100 77 100 100 92 72 64 65 75 82 86 82 74 58 61 72 72 79 67 51 35 52 100 100 75 81 47 44 35 36 23 20 24 64 100 100 100 100
15 18 23 44 51 55 53 92 100 92 69 58 76 99 100 100 99 66 66 62 67 87 76 82 75 50 40 100 100 100 98 73 51 42 42 42 26 23 26 41 100 100 100 100
9 11 17 25 31 44 61 63 60 62 65 68 94 100 100 100 100 76 71 62 80 84 91 82 53 43 88 100 93 100 100 100 73 53 58 42 32 28 22 39 72 100 100 100
10 8 10 17 22 26 29 41 53 58 69 64 80 100 100 100 100 98 68 63 78 93 79 65 45 98 100 100 83 71 85 100 98 98 53 59 46 43 26 24 43 79 100 100
9 10 10 11 12 18 22 25 29 30 39 53 88 99 92 98 100 71 58 60 74 100 77 51 74 100 100 100 99 61 75 76 92 95 100 100 100 67 43 39 31 32 55 78
8 9 11 10 10 10 11 16 23 26 27 37 42 54 66 71 65 61 68 79 77 100 68 55 100 100 100 100 100 81 87 96 95 100 82 99 99 100 66 50 48 40 37 33
7 8 11 11 10 10 10 13 19 26 26 27 34 39 43 45 50 64 77 81 76 99 64 84 100 100 100 100 99 86 63 98 93 100 100 99 98 100 99 86 61 44 37 43
8 8 10 11 12 13 13 14 14 16 19 24 28 35 42 50 53 74 74 74 91 97 67 100 100 100 100 100 100 99 80 92 100 100 100 100 100 100 97 100 100 91 76 48
9 10 11 11 11 13 13 14 12 14 18 24 31 34 36 42 45 48 56 63 93 89 99 100 100 100 100 100 100 100 96 73 98 100 100 100 100 100 99 85 73 85 74 66
10 13 14 12 11 13 14 15 17 17 22 26 30 33 35 34 39 48 58 64 88 97 85 100 100 100 100 100 100 100 99 84 87 100 100 100 100 94 85 71 82 86 86 92
11 13 12 12 10 14 19 19 16 17 24 26 28 29 33 37 38 45 51 63 71 100 100 100 100 82 100 100 100 100 100 100 100 94 100 100 100 62 37 37 56 63 63 57
9 11 11 11 11 17 20 19 17 20 24 27 30 33 37 36 42 41 43 58 63 97 100 99 100 100 100 100 100 88 100 100 100 100 63 100 99 83 78 99 81 65 71 69
10 10 10 9 13 17 21 21 21 28 32 35 36 39 35 38 39 45 48 57 70 75 100 100 99 100 98 92 77 83 96 100 100 100 100 100 100 100 99 100 100 99 83 57
10 10 10 11 18 22 25 22 28 32 41 42 41 35 39 46 56 62 61 69 98 100 100 100 100 100 100 100 84 77 99 100 100 100 100 93 100 100 100 100 100 100 100 100
9 9 11 17 24 22 30 28 35 42 41 43 39 34 36 52 80 77 86 83 100 100 96 100 92 100 100 91 100 91 89 93 100 100 100 100 100 100 100 100 100 100 100 100
10 12 14 21 25 25 33 35 39 45 49 43 40 37 40 70 84 83 94 100 99 91 100 97 89 100 100 100 100 76 60 70 84 77 97 100 100 100 100 100 100 100 100 100
13 16 17 21 22 25 24 25 39 52 52 50 43 42 43 63 85 89 100 97 100 99 100 93 97 88 98 100 100 100 100 85 80 78 71 72 81 83 87 100 95 93 85 87
15 17 17 22 22 24 25 23 29 46 66 60 43 42 48 54 64 83 90 98 98 99 100 100 100 95 86 93 100 100 100 100 100 100 100 96 72 64 62 72 77 76 73 70

GFSCGP_250_rhum_111.txt.gz
RH
99 72 70 71 98 87 83 81 72 77 81 89 88 100 100 100 100 95 97 80 88 73 43 50 48 48 45 55 44 41 40 45 37 57 67 80 56 46 22 16 89 92 81 98
82 68 72 72 78 84 82 80 88 99 80 70 87 92 92 100 100 98 89 83 72 59 44 34 36 51 48 48 45 42 37 43 38 95 88 83 71 48 27 16 97 97 91 99
100 87 98 85 63 63 65 66 70 76 93 94 71 68 87 88 77 81 75 57 52 54 49 45 49 54 48 49 49 44 42 43 37 98 98 97 81 49 28 17 92 99 93 100
83 97 95 95 82 90 74 67 57 73 75 83 68 50 49 65 74 74 67 58 52 46 44 47 48 62 56 54 55 50 44 40 40 96 100 84 78 40 28 18 80 100 100 98
46 66 93 93 98 98 99 86 72 73 72 58 52 44 45 56 70 70 72 69 64 63 52 52 56 64 64 56 62 50 45 35 54 96 100 77 66 40 31 18 66 100 100 100
44 51 50 68 85 83 89 84 72 78 77 63 81 68 58 91 100 100 94 88 77 71 66 62 71 75 60 59 61 50 47 34 76 88 100 88 51 38 27 18 77 100 100 100
17 29 46 52 54 60 61 68 87 85 74 74 83 75 96 96 100 100 100 97 81 74 72 74 89 75 58 63 57 58 52 37 82 91 99 86 46 35 24 17 62 100 100 100
15 17 22 41 53 61 61 70 82 87 76 79 89 83 97 100 96 100 100 93 76 74 92 100 93 64 61 68 62 64 52 42 97 86 100 67 42 33 26 18 22 100 81 100
11 13 17 25 39 59 62 65 90 89 73 67 74 72 92 92 96 84 98 92 100 93 83 100 72 60 62 63 60 51 45 66 100 100 94 57 39 32 32 20 18 100 100 97
7 9 12 17 23 39 44 61 56 58 58 60 69 76 88 100 88 78 100 100 100 100 96 98 67 62 67 61 57 53 42 83 100 90 100 57 35 41 38 21 20 98 100 87
6 7 8 10 18 28 36 46 48 55 52 64 79 94 96 97 95 68 81 81 81 96 98 91 65 69 66 64 60 48 68 100 82 96 99 57 44 59 47 29 22 100 100 100
6 8 8 9 11 19 25 32 45 52 36 45 73 100 100 100 100 100 86 85 96 100 98 87 69 73 72 66 53 43 96 100 100 100 99 68 57 83 52 43 25 31 100 100
5 8 11 11 10 10 14 20 24 28 30 29 38 62 85 97 100 100 100 99 86 85 84 83 72 98 80 68 55 46 100 100 100 100 100 99 79 96 100 51 38 30 46 99
5 7 10 10 12 10 9 10 14 20 24 31 34 49 72 92 100 98 100 93 90 86 91 90 82 100 84 75 65 85 100 100 100 100 100 100 100 100 100 75 45 37 36 49
6 7 8 8 10 9 8 9 10 14 21 24 31 34 48 70 80 77 92 82 83 99 83 82 88 87 95 71 98 100 100 97 100 100 98 91 100 100 100 100 68 49 40 40
7 7 8 9 9 9 10 11 11 11 13 17 24 29 32 37 48 54 77 79 71 80 75 69 82 91 94 100 100 100 100 100 85 95 96 82 100 100 100 100 100 72 48 41
8 10 9 9 11 13 13 12 12 12 13 16 20 27 32 34 39 46 56 72 69 65 62 72 79 90 88 100 99 100 100 100 98 92 92 96 100 100 100 100 100 100 100 73
7 9 11 10 11 12 13 15 16 15 15 14 17 23 30 34 37 37 40 42 48 50 56 90 74 76 99 100 100 100 100 99 100 85 94 100 100 100 100 100 100 100 98 96
8 9 10 12 12 13 14 14 15 15 10 12 15 22 25 29 32 33 35 35 38 45 63 92 88 91 100 100 100 100 100 100 100 82 95 100 100 100 100 100 100 100 97 86
8 8 12 12 13 15 14 15 18 18 18 19 17 19 23 25 26 28 31 33 44 50 63 90 85 100 100 100 100 100 100 100 96 97 92 95 100 100 97 100 99 100 92 77
8 9 10 12 13 18 19 20 20 18 22 22 21 22 25 27 28 28 29 35 48 56 66 82 89 81 92 95 100 100 100 100 100 73 95 87 100 100 100 94 88 60 63 50
8 10 11 14 13 16 19 20 23 21 24 25 22 23 24 26 31 27 34 37 46 53 64 76 81 86 91 85 100 100 97 100 100 100 100 93 98 100 98 94 100 85 88 60
9 8 10 13 11 16 21 22 21 24 26 26 24 25 27 26 29 35 42 44 49 58 63 79 93 68 96 97 100 100 100 100 100 100 100 97 84 100 100 100 100 100 95 87
7 8 12 13 13 17 21 24 24 29 25 26 26 28 28 27 33 37 43 54 54 57 71 84 98 95 74 93 100 95 100 100 100 100 100 100 100 100 100 100 100 100 100 100
9 12 12 15 16 20 26 29 28 39 28 31 33 33 34 33 37 38 46 56 61 71 74 83 98 100 100 100 75 92 100 100 97 98 94 85 96 100 100 100 100 100 99 100
11 11 10 12 17 20 27 29 26 37 38 34 35 37 39 38 43 47 48 61 62 69 82 91 95 100 97 100 100 98 76 95 97 65 61 68 79 94 99 100 100 97 100 100

GFSCGP_250_rhum_114.txt.gz
RH
59 53 62 88 100 100 100 100 89 100 98 96 99 97 100 100 100 100 100 100 99 95 100 99 92 93 91 71 50 43 44 41 43 38 37 31 30 63 54 40 33 21 17 79
67 68 98 100 92 99 100 100 97 100 100 97 100 97 92 88 99 100 96 99 100 100 100 100 100 100 78 66 55 42 43 47 51 40 39 31 30 34 57 46 34 25 18 73
85 94 100 88 76 96 99 100 86 77 93 88 97 95 100 93 77 78 80 83 70 78 100 100 100 95 85 73 54 47 50 52 52 44 38 30 33 65 65 48 38 25 19 95
45 88 90 91 100 98 99 100 98 84 85 87 89 86 90 90 86 84 78 72 78 99 100 100 100 87 69 56 51 50 48 49 55 39 39 31 39 91 74 42 39 26 19 99
22 24 50 92 100 96 100 85 88 99 100 97 89 71 95 87 92 91 82 77 74 74 89 100 100 88 71 63 59 55 54 63 56 42 39 34 42 91 78 50 40 32 18 100
17 24 18 44 78 100 100 83 81 76 84 73 90 70 70 82 69 85 94 89 78 67 66 100 100 99 87 82 70 65 71 67 50 46 38 35 45 92 76 56 42 23 17 100
11 15 15 20 36 66 77 90 94 87 71 85 99 91 94 80 78 87 100 94 78 62 71 100 100 100 99 92 86 86 84 70 54 48 40 40 84 91 71 58 40 17 17 95
8 9 14 16 20 33 52 74 90 96 86 97 93 86 93 84 78 85 96 99 89 75 75 83 91 99 100 96 96 100 92 74 52 45 42 55 96 81 72 50 30 19 19 94
6 7 7 12 18 22 27 35 68 93 85 73 80 93 96 97 76 68 72 83 92 92 84 87 90 100 100 100 100 100 86 63 47 47 46 82 89 85 80 45 29 26 21 91
5 6 6 7 12 19 20 34 41 39 57 71 83 82 84 83 87 86 87 86 88 100 90 85 95 100 97 100 100 96 62 51 46 49 49 94 81 100 66 40 32 29 19 90
4 5 6 7 7 11 17 24 28 34 44 52 76 86 83 74 89 89 93 86 95 100 100 100 99 88 96 100 100 93 58 46 48 49 72 96 96 100 58 39 35 31 22 100
4 4 5 7 7 8 11 18 23 22 26 37 66 85 75 88 92 88 74 84 94 100 100 100 99 89 100 100 100 93 56 47 45 57 94 100 100 100 71 39 38 36 32 100
4 4 4 6 8 9 10 12 18 23 26 25 31 56 62 90 93 100 86 95 99 100 99 94 84 82 99 100 100 70 56 47 57 65 95 100 100 100 89 45 44 54 32 100
4 4 4 6 7 8 10 10 10 14 17 25 33 46 44 64 80 98 97 99 100 100 92 86 88 80 82 80 95 69 56 48 60 70 100 92 100 100 94 57 56 72 47 52
5 5 4 6 8 10 10 9 10 9 13 16 26 32 34 62 78 94 99 100 100 100 96 99 100 83 78 76 99 67 66 64 64 100 98 92 100 100 98 64 71 72 66 36
6 5 5 5 8 10 11 12 12 9 11 13 20 26 29 45 57 76 75 90 94 94 93 93 100 100 72 75 93 94 75 65 89 100 100 100 100 100 100 100 90 74 68 58
6 6 6 6 8 10 12 12 12 11 13 12 13 16 24 30 45 63 62 61 80 74 76 74 97 98 86 78 93 88 72 87 99 100 100 100 100 100 100 100 100 91 100 97
7 6 7 8 11 11 12 13 14 15 15 15 14 15 18 24 32 42 46 49 63 78 69 65 73 68 75 76 92 97 67 90 97 100 100 100 100 100 100 96 100 100 100 100
8 8 8 11 14 14 13 14 16 18 20 19 17 18 20 22 28 30 32 34 40 48 52 51 64 70 76 77 89 89 85 100 100 100 100 99 98 99 98 100 100 100 100 100
9 9 9 11 15 16 16 15 17 19 20 18 19 18 15 17 22 23 24 26 29 34 38 42 47 54 68 81 85 90 94 100 100 100 100 97 96 96 77 96 100 100 100 100
8 8 10 12 14 17 17 17 20 20 20 20 22 20 17 18 18 21 23 27 32 34 39 44 49 57 63 67 86 94 100 100 96 93 99 97 95 100 100 100 100 100 90 99
10 11 12 12 17 19 20 19 19 19 20 23 25 27 24 21 20 22 27 29 33 35 36 36 39 43 49 64 78 99 99 100 100 70 100 99 100 100 100 97 100 100 100 100
10 11 13 12 20 28 30 32 24 25 27 32 32 27 23 24 24 27 20 24 26 27 30 33 36 42 49 70 71 94 100 83 100 100 99 100 100 100 100 96 97 98 100 100
7 10 12 13 20 34 33 35 34 36 41 32 31 26 24 23 24 22 21 20 29 34 39 42 45 48 59 80 88 86 94 90 100 100 100 95 100 100 96 82 82 96 100 100
9 11 13 14 20 27 37 27 30 31 28 25 30 26 24 23 24 22 23 23 33 38 41 43 48 55 66 86 85 96 91 100 89 100 100 89 100 100 100 100 91 100 100 100
9 11 10 14 18 22 26 27 25 25 23 24 30 26 26 25 22 21 23 34 36 39 45 49 50 57 63 70 79 81 95 88 100 100 100 100 93 97 99 91 100 100 100 100

GFSCGP_250_rhum_117.txt.gz
RH
17 18 25 33 32 35 39 44 54 66 100 100 93 100 100 100 100 100 100 97 86 82 78 83 73 68 66 70 89 63 74 80 80 56 46 37 32 33 30 30 50 55 41 33
19 17 57 28 35 34 38 47 58 94 100 94 94 99 100 100 100 100 100 100 100 100 100 95 96 94 88 94 100 95 91 97 88 63 47 44 34 34 32 32 38 60 46 39
16 21 18 31 31 41 43 52 75 72 80 92 100 84 87 100 100 100 100 91 100 100 100 100 100 100 100 100 100 100 100 95 84 66 49 50 40 36 32 32 34 58 57 39
16 20 16 17 20 55 40 74 84 89 100 84 92 84 100 99 99 100 100 98 96 74 88 91 98 97 100 100 100 100 100 97 82 71 52 52 46 41 33 32 46 43 64 41
18 16 18 13 16 37 29 71 46 76 100 100 100 95 100 100 98 86 95 100 100 93 78 68 68 72 86 90 100 100 100 100 88 70 59 58 54 48 35 34 63 78 72 39
13 17 14 16 19 17 32 43 44 52 64 91 99 96 100 100 100 100 83 82 100 100 100 95 88 83 80 69 82 95 100 99 94 80 76 67 62 47 40 36 64 91 64 46
8 10 10 9 16 17 19 21 24 39 52 52 100 100 100 100 100 100 97 100 100 100 100 100 99 93 84 70 70 76 100 100 100 100 85 81 61 45 43 39 52 80 59 44
8 7 8 6 7 13 14 16 19 34 39 69 88 81 100 100 100 100 100 100 98 94 96 100 93 91 84 79 67 64 100 100 100 99 97 92 68 49 47 41 82 75 64 45
6 6 7 6 6 6 15 15 16 22 49 100 100 84 99 100 100 92 95 94 96 90 91 98 96 81 87 77 69 62 100 100 100 95 98 98 61 53 50 44 94 76 62 39
5 5 5 6 7 6 8 14 19 20 26 40 92 100 100 99 92 95 94 96 100 97 82 74 75 84 80 88 77 65 86 100 100 99 100 80 61 51 52 58 87 76 62 36
4 4 4 5 6 6 6 7 12 21 23 24 61 100 100 100 100 100 100 100 100 100 98 90 87 81 83 86 85 87 100 100 98 100 96 72 58 47 56 73 91 77 61 36
4 4 4 4 5 6 7 8 8 12 20 25 33 69 100 100 94 100 96 100 100 100 100 100 93 89 84 87 100 100 100 100 100 100 90 66 62 53 69 86 100 88 59 38
4 5 5 5 5 5 8 8 8 10 15 21 29 56 60 55 67 88 98 90 96 100 100 95 86 78 80 99 100 100 100 100 100 100 76 60 54 74 92 98 100 92 54 39
5 5 5 6 6 5 8 10 10 10 11 17 26 37 39 35 49 75 100 82 91 89 84 94 96 83 82 100 100 100 100 100 100 99 70 52 56 71 98 100 100 88 52 42
5 6 6 6 6 6 6 9 11 11 12 12 19 31 37 29 52 71 81 90 97 99 96 98 100 99 94 100 100 100 98 100 98 88 66 43 57 75 100 100 100 100 70 44
6 6 6 7 8 7 8 9 10 13 12 13 14 20 23 22 68 50 87 94 100 100 100 100 100 100 100 91 94 95 96 100 97 86 48 51 69 99 97 100 100 100 91 46
6 6 7 8 9 9 9 8 11 14 12 15 16 19 19 26 47 89 86 95 98 84 87 94 99 100 100 100 88 86 100 96 97 59 49 71 100 100 100 100 100 100 100 66
7 6 7 9 9 10 8 9 10 12 13 17 20 16 25 24 92 100 91 73 98 78 67 85 91 98 100 100 90 84 84 82 82 59 71 100 100 100 100 100 100 100 100 100
6 7 9 10 10 12 11 12 12 15 18 18 20 23 26 22 38 92 81 54 69 73 58 70 71 84 100 100 100 72 70 70 74 64 97 100 100 100 100 100 100 100 100 100
7 7 10 12 11 11 11 13 16 20 24 23 24 25 22 19 20 27 34 42 52 50 40 45 64 69 80 94 96 93 66 71 64 69 98 99 100 100 100 100 100 100 100 100
8 7 10 15 14 15 16 16 20 26 26 26 30 41 29 19 17 18 19 21 26 29 32 37 44 55 57 69 76 90 68 70 64 100 100 100 100 97 100 100 100 100 100 98
8 7 9 13 16 17 19 22 25 29 44 65 80 38 33 19 18 16 16 20 22 26 30 33 38 46 49 50 54 63 58 71 62 100 100 100 100 100 99 90 91 100 100 100
7 7 9 13 14 19 21 25 32 29 38 52 60 32 26 23 24 24 22 23 24 25 27 28 28 29 30 32 36 44 45 60 54 100 100 100 100 99 100 100 84 86 88 100
8 8 10 12 16 22 24 27 35 34 37 38 30 25 27 33 30 22 26 25 25 25 26 27 29 30 32 34 35 41 45 55 54 100 100 100 100 100 100 100 100 100 100 100
8 9 9 11 17 22 28 30 35 37 35 37 34 37 29 29 32 28 34 30 26 23 26 29 30 33 35 37 40 47 57 58 60 68 98 100 100 100 100 100 97 78 97 100
9 9 11 11 12 17 30 40 41 38 47 55 34 32 29 31 31 29 36 34 27 17 22 25 27 28 29 32 36 41 54 57 61 70 99 100 100 100 100 100 100 100 100 100

GFSCGP_250_rhum_120.txt.gz
RH
32 26 25 22 22 19 18 18 20 25 29 38 45 42 45 52 93 100 100 100 100 100 100 100 83 83 65 59 71 71 62 70 49 54 63 58 68 69 53 43 36 36 30 28
28 24 21 21 23 18 18 19 21 27 31 34 42 40 52 53 54 93 100 100 100 100 100 100 100 100 85 87 84 95 72 71 65 64 84 82 86 82 61 47 39 39 38 30
30 26 23 21 15 20 17 16 18 23 32 32 34 34 48 55 55 78 100 100 100 100 100 100 100 100 100 100 99 100 99 100 92 91 100 100 100 100 73 50 44 41 44 31
27 29 26 17 14 15 12 18 17 18 27 27 32 29 38 48 54 92 100 100 100 100 100 100 100 100 100 100 100 100 100 100 100 96 100 100 100 100 83 56 50 45 48 35
28 24 16 13 12 12 13 19 14 16 18 25 29 27 48 48 51 66 100 100 100 100 100 100 100 83 99 100 100 100 100 100 100 100 100 100 100 100 91 69 53 50 53 37
23 14 12 10 8 9 11 15 17 17 18 16 27 50 100 81 69 92 100 100 100 99 94 99 100 100 99 84 69 73 95 98 70 73 84 98 96 100 92 81 67 54 48 38
19 15 9 6 7 6 6 8 13 15 15 10 72 45 100 100 98 96 94 98 100 100 100 99 82 80 93 100 100 88 74 57 67 81 70 68 74 99 98 85 78 66 47 41
8 15 9 7 5 6 7 6 7 12 16 15 52 31 100 100 100 100 100 84 92 93 100 100 99 99 97 79 95 100 100 78 81 84 67 69 73 98 100 99 87 62 46 43
10 10 7 6 5 5 6 6 7 8 11 13 43 34 93 100 100 100 100 98 100 100 100 100 100 100 100 88 81 93 92 99 88 75 69 66 82 98 100 93 74 59 50 46
11 8 5 5 5 5 5 6 6 6 8 11 34 37 85 91 100 100 96 99 100 100 100 100 100 100 100 82 79 74 77 87 97 79 91 76 81 100 100 88 69 59 52 45
8 6 6 5 4 4 5 5 6 7 8 11 23 36 100 100 100 100 100 100 100 100 100 100 100 100 100 100 95 79 90 86 93 85 88 80 70 89 93 78 73 52 50 46
8 7 6 5 5 5 6 6 6 7 8 8 16 24 100 84 78 75 62 82 100 99 100 100 100 100 100 99 96 90 93 85 78 83 94 91 80 90 87 76 62 51 51 47
7 7 6 6 5 5 6 5 6 6 10 7 12 24 44 100 98 98 100 100 97 92 89 100 100 99 100 100 100 98 99 95 93 88 97 92 100 100 88 76 64 55 51 59
7 8 8 6 6 5 7 6 6 7 8 12 11 25 38 49 100 100 100 100 100 100 100 100 100 100 100 100 100 100 99 79 93 100 100 100 100 100 86 69 64 59 58 77
8 8 8 7 7 5 6 6 6 7 9 12 18 23 32 29 69 100 100 100 100 100 100 100 100 94 92 100 100 100 91 84 90 100 100 100 100 100 74 69 58 63 93 91
7 9 8 7 7 7 8 8 7 8 9 12 15 18 16 26 53 100 100 82 73 100 95 80 100 100 100 79 78 83 75 81 100 100 100 100 100 99 79 58 53 76 100 88
8 10 8 8 9 10 10 11 8 14 13 13 17 15 18 29 40 89 100 100 100 100 98 100 100 100 95 89 100 93 87 85 100 100 100 100 100 100 90 58 50 98 100 78
9 10 8 9 9 8 6 13 11 10 16 15 16 15 20 20 35 99 100 100 100 89 100 100 100 100 92 96 100 100 100 100 100 100 100 99 96 98 68 53 66 100 100 84
10 10 9 9 10 8 6 7 10 12 14 15 17 19 21 24 29 74 100 100 100 100 99 91 72 70 80 90 100 100 92 100 100 96 90 100 100 82 59 71 100 100 100 100
11 11 10 10 9 8 10 9 12 15 17 17 21 26 24 21 23 33 85 92 100 100 90 66 70 59 71 72 87 100 100 96 100 100 94 99 95 65 67 100 100 100 100 100
11 11 10 9 10 9 12 15 17 20 24 23 22 25 28 66 29 28 41 74 77 76 68 63 56 68 67 65 80 95 100 100 96 90 100 92 73 66 91 100 100 100 97 100
11 10 9 10 10 10 13 17 20 35 38 29 39 42 48 34 43 33 32 32 40 47 55 50 56 57 42 56 68 80 97 100 100 97 94 74 61 80 100 100 100 100 100 100
10 10 8 11 10 15 15 18 24 49 50 45 51 42 60 54 37 21 23 24 28 37 41 46 49 34 36 43 57 70 77 82 91 85 90 65 75 100 100 100 100 97 100 100
11 11 12 12 12 14 14 27 29 32 56 45 55 50 54 40 28 26 24 22 27 29 38 40 29 24 25 30 37 47 52 54 62 67 59 79 100 100 100 100 100 100 100 82
12 12 12 12 12 11 14 26 33 35 32 67 76 81 32 31 32 27 32 24 26 27 25 23 22 22 24 26 30 34 37 40 46 53 56 78 100 100 100 100 100 100 100 100
10 10 9 12 15 12 16 23 37 40 41 79 52 56 46 30 30 28 23 28 28 24 24 22 20 20 23 24 26 28 29 32 36 46 54 59 99 100 100 100 100 100 100 100

GFSCGP_250_rhum_126.txt.gz
RH
54 58 55 47 44 41 36 31 25 21 21 16 17 16 17 19 18 17 19 19 20 19 22 29 38 60 64 98 100 100 100 100 100 100 100 100 100 100 93 88 82 69 48 56
48 46 41 34 36 35 28 19 17 14 16 17 15 14 13 15 20 16 15 16 16 21 22 28 45 52 66 82 99 100 100 100 100 100 100 86 93 86 80 82 87 70 53 68
38 35 35 34 32 32 32 24 18 16 16 16 15 9 8 12 16 16 13 16 17 21 26 29 36 68 58 65 96 100 100 100 100 100 97 80 74 71 63 66 88 64 54 71
34 31 33 35 38 33 27 23 17 16 15 11 15 5 7 10 14 10 16 14 18 21 28 34 40 65 80 66 81 100 100 100 100 100 90 66 61 63 77 78 87 76 85 90
32 32 38 39 41 33 24 17 17 16 11 6 11 5 12 6 7 9 16 14 20 22 31 37 41 80 85 81 85 99 90 97 96 77 93 100 90 81 79 97 100 85 86 100
40 44 34 37 34 22 16 14 15 13 9 7 6 4 8 5 8 13 16 12 14 21 26 32 40 60 70 59 60 82 86 77 99 100 100 100 100 93 79 92 98 100 100 100
47 49 37 39 40 31 17 15 10 12 6 5 4 5 6 5 9 11 8 7 14 22 30 32 35 55 61 68 60 100 100 100 100 100 100 100 100 97 100 100 97 100 100 98
36 46 35 41 33 23 16 14 10 6 4 5 4 5 7 5 10 9 6 8 15 22 30 37 45 55 67 77 62 78 100 100 100 100 100 100 99 98 100 100 100 99 87 86
39 42 41 31 28 19 15 14 7 4 4 4 5 8 9 5 8 7 6 8 15 25 29 43 44 53 72 81 77 77 88 100 100 100 100 100 100 100 100 100 100 100 95 91
40 41 47 30 24 17 15 9 6 6 5 4 6 7 9 6 7 7 9 15 97 100 71 44 41 51 65 73 79 95 99 83 100 100 100 100 100 89 100 100 89 77 72 64
40 45 46 29 22 20 13 6 4 6 6 5 7 7 6 6 9 10 22 47 100 89 100 98 95 66 69 100 74 91 100 100 100 100 100 100 100 100 100 75 70 81 64 63
44 44 42 30 25 22 10 7 6 7 7 6 6 8 10 9 11 29 47 56 89 100 100 100 100 100 100 97 85 88 79 85 100 100 100 100 100 100 76 78 100 100 86 85
48 42 36 36 28 16 10 7 7 7 8 5 6 9 10 11 13 38 78 100 100 100 100 100 100 100 100 100 99 71 81 94 86 87 98 99 85 70 87 95 100 100 100 96
43 36 35 37 24 14 10 8 7 7 8 6 7 11 13 12 16 60 100 100 100 100 92 98 100 100 100 100 100 100 100 82 77 77 74 84 99 100 100 100 100 86 91 84
42 40 41 37 20 12 9 9 8 7 9 6 9 12 14 12 23 77 100 100 100 100 100 100 100 100 100 100 100 100 100 100 100 100 100 100 100 100 100 94 95 96 73 78
45 50 43 31 14 11 11 10 9 8 8 9 9 11 15 14 38 79 100 100 100 100 100 100 100 100 100 100 100 100 97 76 90 100 100 100 100 100 100 100 87 77 78 89
52 47 43 17 13 12 12 10 9 9 8 9 12 14 17 22 40 99 100 100 100 100 100 100 100 100 98 99 100 100 89 100 100 100 100 100 100 93 91 88 72 87 98 90
52 52 26 16 14 13 12 9 9 10 11 9 9 14 20 20 32 96 100 100 100 100 100 100 100 100 100 96 89 94 99 100 100 83 80 92 100 94 89 89 99 100 100 100
52 34 18 18 14 13 11 12 10 10 12 12 10 13 20 22 24 83 100 100 100 100 100 94 98 100 100 100 100 100 87 74 74 77 100 100 100 84 100 100 100 100 98 89
37 18 19 17 14 12 14 11 11 12 14 12 13 14 17 19 28 43 100 100 100 100 100 97 84 73 95 97 100 99 78 94 70 63 67 77 73 83 66 70 67 68 70 76
20 18 19 17 14 12 16 16 15 15 16 18 15 13 19 18 22 57 84 100 100 100 100 100 100 75 66 55 66 59 82 96 100 98 91 76 84 88 81 76 83 89 96 100
19 19 16 17 15 14 19 18 18 20 22 24 29 15 17 22 28 59 100 100 100 100 100 100 100 96 60 56 65 69 79 98 80 100 100 93 81 89 89 79 78 92 100 100
19 18 16 14 16 15 17 19 19 26 27 26 25 17 20 23 27 32 67 100 100 100 100 100 100 100 80 76 48 43 47 62 66 77 82 94 100 99 87 87 100 94 99 93
18 16 15 14 16 15 15 16 18 32 38 27 23 21 19 26 30 35 35 62 94 100 100 100 100 88 89 72 62 48 40 52 67 82 89 77 76 85 89 100 100 94 95 94
16 14 15 14 15 15 15 14 16 29 38 29 24 18 18 21 29 33 40 65 81 93 92 93 85 81 77 63 58 48 50 39 48 55 52 70 72 68 90 87 89 94 81 83
14 14 12 12 14 14 14 12 13 25 41 38 32 24 20 19 24 30 36 42 56 89 82 85 94 84 64 54 51 47 43 41 43 52 47 52 58 76 63 82 88 96 99 74

GFSCGP_250_rhum_129.txt.gz
RH
100 100 93 78 55 41 37 32 30 28 27 22 23 17 19 21 19 20 21 22 24 22 21 21 17 17 20 30 55 100 100 100 100 100 100 83 100 100 100 100 100 100 100 100
100 84 48 42 38 33 29 25 24 22 26 19 14 10 15 18 19 18 17 16 20 25 20 20 20 17 18 25 38 98 100 100 100 100 100 96 77 87 99 100 100 100 100 99
60 52 37 41 39 36 38 30 24 20 19 23 18 13 12 14 11 10 13 15 14 16 16 16 14 18 16 21 30 64 100 100 100 100 100 100 85 70 73 100 100 100 100 100
53 60 59 61 42 33 33 29 28 29 26 15 23 9 13 12 9 9 7 10 12 13 12 12 12 14 16 19 25 39 95 100 100 100 100 100 86 77 100 100 100 100 100 83
82 67 77 71 55 38 30 31 37 33 26 15 20 9 11 7 6 5 5 6 7 8 8 11 10 12 16 18 22 26 73 100 100 100 100 100 100 100 99 98 99 83 78 87
73 86 80 71 58 42 32 28 33 33 21 14 13 7 8 5 3 4 4 5 6 7 8 8 8 12 14 18 23 29 57 100 100 100 100 100 100 91 78 91 70 60 86 88
92 88 81 54 47 51 44 33 29 23 15 19 13 8 5 4 3 3 4 5 5 5 5 6 8 12 14 24 25 29 64 99 100 100 100 100 100 100 98 63 64 74 97 96
100 100 87 58 51 45 42 34 27 13 13 17 11 5 4 3 3 4 4 3 4 6 9 12 13 16 17 23 30 36 69 92 94 100 100 100 100 81 95 64 64 97 92 98
99 97 90 36 34 40 43 38 26 15 17 13 6 4 4 4 4 4 5 7 10 12 15 14 16 17 22 29 37 40 77 88 91 100 84 88 76 82 100 88 83 100 93 99
70 64 70 48 57 44 47 27 20 17 14 9 5 4 4 4 4 7 10 27 26 33 29 26 27 27 32 37 40 48 81 87 76 100 100 100 100 100 97 69 67 73 93 100
83 83 93 72 69 54 43 26 19 16 10 6 6 5 5 5 6 9 80 94 90 100 94 100 100 72 41 43 45 62 69 85 70 73 100 100 87 99 100 100 100 100 100 100
99 98 82 70 54 46 30 25 21 14 9 7 7 6 6 7 9 13 87 96 100 98 100 100 100 100 100 99 91 82 100 100 88 80 76 75 100 100 100 100 100 100 100 100
93 87 74 66 47 40 29 19 21 9 8 9 7 7 8 11 12 30 100 97 100 100 100 100 100 100 100 100 100 86 86 100 100 100 100 100 100 96 92 97 100 100 100 100
90 78 67 54 44 41 29 24 13 9 9 8 8 7 11 15 18 34 100 92 100 100 100 100 100 100 100 100 100 94 83 80 98 100 100 98 99 100 86 78 100 98 100 98
85 80 62 49 37 32 28 24 10 10 10 9 9 8 12 17 19 36 100 100 100 100 100 100 100 100 100 100 100 100 100 86 98 90 100 100 100 100 92 92 95 100 100 100
79 66 53 37 34 31 30 20 12 11 10 10 10 11 13 21 30 41 95 100 100 100 100 100 100 100 100 100 100 100 100 95 100 100 96 100 100 100 100 100 100 100 100 89
60 53 57 40 41 36 26 17 13 13 11 11 11 13 16 26 53 81 78 100 100 100 100 100 100 100 100 100 100 100 100 100 95 100 100 100 100 100 100 98 100 100 97 87
53 59 52 42 41 35 22 16 13 13 12 12 12 14 20 24 42 96 100 86 85 99 92 100 100 100 95 98 100 100 100 100 100 100 100 94 90 99 97 100 100 100 96 90
63 54 54 56 40 32 18 16 14 12 13 12 17 13 18 25 36 85 100 91 100 100 100 100 100 100 78 99 100 100 100 100 100 100 100 100 100 100 100 100 100 83 83 91
67 54 56 47 44 21 16 16 16 12 14 13 18 18 22 25 36 80 100 100 100 99 88 98 100 100 78 74 98 100 100 100 100 100 80 81 79 85 84 88 96 92 70 90
71 62 48 48 30 19 16 17 16 11 14 14 15 18 19 36 36 76 100 100 100 100 100 91 83 99 91 71 61 88 95 99 87 99 100 100 95 93 86 94 68 58 68 67
70 50 44 35 20 20 16 16 16 12 13 14 20 20 20 21 49 93 100 100 100 100 100 93 98 96 100 100 67 56 58 59 62 61 59 61 73 65 61 76 68 62 71 67
66 56 44 21 19 20 15 16 18 13 13 12 20 18 24 19 24 93 100 100 98 100 89 92 98 99 97 88 99 70 57 54 58 58 51 53 63 62 82 94 88 79 76 82
63 44 23 19 19 19 15 14 16 14 12 10 18 21 22 22 23 27 82 100 100 100 98 100 95 94 89 77 69 70 74 62 61 50 53 48 51 66 66 80 81 81 82 73
40 22 19 20 18 15 14 14 13 13 13 10 10 25 25 25 22 24 28 84 100 100 100 100 100 97 94 92 83 62 62 58 57 55 62 58 66 75 60 69 85 96 95 98
22 19 18 18 14 12 13 13 11 12 14 11 10 16 25 27 26 23 27 30 41 48 100 100 100 100 94 90 86 69 63 67 69 59 49 50 51 46 46 50 58 86 81 79

GFSCGP_250_rhum_132.txt.gz
RH
41 43 61 82 100 100 100 100 100 84 63 45 30 27 23 25 26 24 21 18 18 14 16 18 20 24 20 15 15 22 40 89 100 100 100 100 100 98 100 100 100 100 100 100
50 63 91 100 100 100 99 82 54 37 37 28 23 18 22 24 21 15 12 11 12 13 12 16 15 16 18 18 13 18 25 48 87 98 100 100 100 97 100 100 100 100 100 100
75 97 100 96 90 59 40 36 29 33 29 39 29 19 18 22 16 8 8 6 6 8 12 10 13 14 14 14 14 13 23 27 42 72 100 100 100 86 99 100 100 100 100 100
96 95 90 84 63 42 35 38 42 35 29 28 48 22 19 15 10 10 10 6 4 6 9 10 10 13 14 13 14 13 17 24 27 46 86 100 100 100 95 100 100 100 100 100
64 64 58 48 43 53 65 50 38 36 43 28 30 26 13 7 8 8 7 6 5 5 7 8 9 10 11 12 11 13 15 20 24 35 71 96 100 100 98 100 100 100 100 100
63 62 55 58 68 75 57 52 54 54 34 26 33 26 14 8 8 7 5 4 4 4 4 6 7 7 7 8 9 11 14 19 23 40 78 100 100 100 94 99 99 100 100 100
74 79 90 86 78 65 69 50 41 37 30 26 35 22 12 9 8 5 3 3 4 4 4 5 7 8 7 7 11 11 16 24 26 44 74 100 100 100 78 76 89 95 100 99
100 100 96 74 64 77 60 48 40 28 25 16 43 17 10 10 6 4 4 4 4 5 5 6 8 12 12 12 13 14 19 26 30 44 76 100 100 100 97 74 93 96 92 92
100 100 98 79 68 68 58 48 42 39 31 22 28 17 15 7 4 4 5 6 6 7 7 9 13 16 17 17 15 15 22 27 30 40 76 100 100 100 99 61 58 71 82 86
100 100 98 69 86 71 52 54 62 51 28 18 31 17 10 6 5 8 8 7 7 10 10 13 14 15 18 16 17 20 26 30 35 46 63 74 100 100 90 77 69 76 89 80
100 100 100 73 59 68 66 65 56 42 27 18 19 17 7 6 7 12 11 12 13 19 22 25 36 23 21 20 23 26 30 35 48 54 64 75 100 98 87 86 96 86 78 79
100 96 89 90 87 89 74 68 55 35 32 22 22 11 7 7 19 37 29 31 39 62 44 60 83 51 36 30 29 34 50 100 89 76 90 100 100 100 78 85 97 97 98 80
100 100 100 100 81 84 82 61 53 38 26 23 18 9 8 8 23 54 34 40 70 100 92 100 100 100 66 43 48 63 49 85 64 93 100 100 100 100 88 86 100 100 100 88
100 100 100 98 75 78 86 66 45 42 23 26 12 9 9 9 22 98 73 62 100 100 100 100 100 100 100 97 96 99 83 78 73 95 100 100 100 100 100 100 100 100 98 97
100 87 96 88 78 73 73 70 54 35 22 19 12 10 11 11 36 100 99 100 100 100 100 100 100 100 100 100 100 100 100 82 61 89 100 100 100 100 100 100 100 95 100 100
100 94 88 90 83 88 74 56 45 28 25 14 13 11 12 12 48 100 100 100 100 100 100 100 100 100 100 100 100 100 100 100 71 80 100 100 100 100 100 100 100 100 100 100
93 93 85 85 76 74 53 41 28 36 21 14 13 11 12 14 36 88 100 100 100 100 100 100 100 100 100 100 100 99 96 82 86 94 97 100 100 100 100 100 100 100 97 97
100 87 72 78 62 51 44 33 34 38 18 14 14 11 12 15 25 100 100 100 100 100 100 100 86 89 100 100 94 100 92 91 88 91 95 97 98 97 96 95 99 100 100 100
82 73 67 65 61 48 39 34 40 36 16 15 15 11 14 18 23 68 98 100 100 100 100 100 100 100 100 95 95 100 100 98 97 100 96 92 97 100 100 100 100 100 100 99
68 63 62 68 64 58 43 39 41 28 16 15 15 13 15 19 22 25 100 100 100 100 96 100 100 100 100 99 100 100 100 100 100 98 83 88 90 89 94 100 100 100 100 100
62 69 71 69 63 58 48 34 36 24 16 15 16 12 16 21 25 26 31 100 100 100 100 98 100 100 100 100 91 89 96 100 100 100 92 100 100 100 100 100 100 100 99 92
75 79 76 68 67 62 50 36 26 20 16 13 15 14 14 22 25 37 39 49 90 100 100 100 97 96 98 99 100 83 72 86 97 98 90 89 100 100 100 100 100 100 100 100
83 70 78 77 65 50 44 31 18 18 16 12 13 16 13 20 24 38 51 86 92 76 84 99 95 96 86 92 97 89 77 66 76 86 100 100 100 100 100 100 100 96 88 73
88 81 88 70 56 41 30 19 17 16 17 11 12 15 15 15 24 28 42 78 100 100 86 77 93 89 82 78 90 81 68 56 62 69 78 83 86 92 77 83 94 93 84 76
84 97 81 72 55 38 20 18 16 14 15 12 12 13 14 18 23 35 60 74 100 100 100 90 92 78 72 79 86 97 100 93 67 57 65 64 68 67 61 60 57 60 56 65
84 80 61 68 37 23 18 16 15 12 13 12 12 10 15 13 26 39 68 93 99 100 100 100 97 97 92 74 67 67 67 83 83 86 63 60 59 57 53 55 58 59 66 67

GFSCGP_250_rhum_135.txt.gz
RH
38 43 42 44 55 56 47 41 54 87 97 90 100 100 100 95 69 48 32 28 24 22 22 28 31 31 15 19 17 11 15 18 21 21 32 88 98 98 78 100 100 100 80 65
42 45 50 47 50 50 41 49 84 88 98 96 94 91 58 36 31 26 21 19 21 19 16 14 13 13 14 10 12 13 11 15 19 20 25 59 96 100 72 85 100 100 95 76
50 44 45 46 50 49 50 81 100 88 82 79 66 52 37 33 25 19 23 31 18 8 6 8 10 10 11 12 11 11 10 12 16 22 22 36 65 73 66 66 99 100 100 100
50 48 47 45 50 54 51 54 61 60 54 46 39 27 29 28 25 31 30 19 12 9 8 6 7 7 8 7 7 8 9 9 13 22 22 27 49 76 98 89 98 100 100 100
51 56 53 44 47 46 54 51 48 44 43 46 43 38 25 26 22 23 18 10 8 7 7 6 6 6 7 6 6 7 9 8 11 18 21 27 41 81 100 97 80 90 100 100
74 58 51 47 46 47 50 46 48 54 56 69 56 36 28 21 15 12 10 8 8 7 5 4 4 4 4 4 5 7 8 9 9 15 21 26 36 82 100 100 82 90 100 100
80 74 64 58 58 50 52 63 59 66 82 78 54 42 29 24 19 12 10 9 6 4 3 3 3 3 3 4 6 8 8 11 11 14 20 27 37 57 100 100 90 88 99 100
95 89 85 70 71 76 71 74 88 71 68 61 60 40 30 29 20 15 11 7 5 4 4 3 3 3 3 4 6 7 10 14 15 17 22 27 36 38 70 89 81 76 84 100
100 98 95 100 100 97 98 83 80 67 64 58 47 44 38 40 21 16 10 7 6 5 5 5 4 4 4 5 8 11 16 20 19 18 22 25 30 33 36 58 73 83 72 92
93 98 95 88 86 83 96 87 72 74 70 42 43 42 31 34 22 16 9 9 7 6 7 5 5 6 5 6 7 12 16 18 20 21 25 28 28 31 32 45 51 80 68 89
98 98 92 73 82 86 90 76 88 74 60 45 27 39 32 25 23 13 10 9 8 9 10 10 7 8 8 10 13 13 17 23 29 27 27 25 28 31 32 51 58 72 62 71
100 100 97 91 80 82 90 84 83 78 58 49 27 44 25 27 18 14 18 18 10 14 10 19 17 17 14 13 14 16 21 24 51 35 34 27 30 56 67 64 65 79 92 68
100 100 100 100 98 96 96 84 78 65 58 51 30 41 24 26 16 23 40 25 25 30 26 24 40 40 46 30 15 20 21 23 25 32 35 36 41 100 100 100 89 92 51 73
94 93 95 92 90 99 99 89 76 62 61 50 32 33 26 20 16 34 55 54 40 41 61 86 99 100 100 72 25 24 28 32 34 44 100 100 100 100 100 100 100 96 76 84
92 100 99 100 99 96 100 92 76 60 59 50 34 28 30 16 19 57 76 82 56 74 91 100 89 100 100 95 57 50 43 52 78 100 100 100 100 100 100 100 100 100 100 100
100 100 100 97 92 84 99 91 80 84 61 48 32 30 27 14 19 74 93 90 77 88 92 100 100 100 100 100 100 67 58 90 100 100 100 100 100 100 100 100 100 100 100 100
99 100 92 88 93 85 94 89 82 68 53 38 32 36 22 16 23 67 99 96 94 76 100 100 100 100 100 100 100 100 89 100 100 100 100 100 100 100 100 100 100 100 100 100
89 90 88 95 96 87 89 77 65 60 44 36 40 36 18 16 19 70 100 99 95 94 94 100 100 100 100 100 100 100 100 100 97 97 100 100 100 100 100 100 100 100 100 100
86 91 100 100 100 93 88 70 61 47 40 38 41 32 19 16 15 78 100 99 99 85 84 100 100 100 100 95 100 100 96 100 94 100 100 100 100 100 100 100 100 100 100 100
95 100 99 97 100 88 70 62 51 44 42 42 43 28 19 16 16 54 100 96 91 97 97 90 100 99 100 91 89 89 86 84 92 100 100 100 86 100 100 100 100 100 100 100
97 91 100 99 88 73 66 62 56 50 45 45 37 23 20 16 17 16 100 99 88 94 90 97 94 100 100 100 94 71 74 77 80 84 90 95 90 99 100 100 100 100 100 100
90 98 100 92 74 67 68 58 57 50 47 38 28 19 19 17 17 15 47 100 95 94 91 88 96 82 92 98 88 77 59 70 89 96 99 98 100 92 94 99 100 100 100 100
99 96 86 74 74 76 70 68 55 51 38 26 24 19 17 18 16 16 15 80 96 87 95 81 89 98 84 85 97 90 67 77 88 96 95 94 93 90 92 91 98 98 97 95
97 83 81 85 78 67 61 50 50 40 23 18 19 19 16 18 16 15 14 20 86 96 97 93 88 84 99 92 95 100 100 93 88 77 74 75 76 74 79 80 77 79 78 81
75 82 86 75 66 60 52 45 37 26 18 17 16 17 14 15 15 13 15 14 22 67 99 99 94 98 97 96 96 90 88 87 83 70 77 74 73 74 66 62 66 73 85 86
87 95 82 76 78 66 53 39 26 20 17 16 14 13 12 13 15 14 15 14 18 23 38 97 96 88 92 98 90 87 90 90 92 85 86 79 72 70 82 98 98 94 99 100

GFSCGP_250_rhum_138.txt.gz
RH
76 95 100 100 97 86 73 53 41 35 38 45 49 53 64 88 89 81 75 68 66 66 67 68 67 42 34 34 36 36 29 20 18 23 21 22 23 28 69 79 79 60 70 100
81 90 82 78 68 63 60 50 42 43 41 42 47 52 59 68 65 64 68 61 51 48 47 42 34 32 30 28 27 24 25 14 8 9 14 17 22 26 28 70 57 75 57 100
93 93 73 62 60 50 43 44 43 42 42 39 42 49 58 71 60 59 55 44 34 28 27 25 23 22 16 12 12 12 12 15 10 7 9 16 18 19 19 34 40 100 71 78
77 81 74 67 56 48 43 42 43 52 50 42 44 47 49 44 40 36 30 29 27 28 26 17 9 8 8 8 8 8 7 8 8 7 6 10 14 18 34 28 41 95 85 58
59 57 56 54 55 52 45 51 53 44 48 43 44 42 41 32 33 32 30 30 36 40 27 13 8 7 6 5 5 6 6 6 5 6 6 8 12 22 100 100 90 42 81 58
72 71 61 64 68 64 56 62 64 54 61 56 53 49 47 36 32 29 32 32 34 23 12 8 6 6 6 4 4 3 4 4 5 6 7 10 14 16 80 95 100 33 64 67
78 74 75 78 73 62 63 62 61 62 72 69 65 63 53 36 30 24 23 26 20 12 9 7 5 4 3 2 3 3 3 4 6 7 9 14 14 17 22 63 39 32 45 73
86 75 76 69 57 57 61 60 75 75 76 79 81 74 55 39 28 27 28 27 12 12 8 5 4 3 3 3 3 3 3 4 6 9 12 15 17 20 24 28 34 41 38 68
86 66 57 55 64 57 53 76 77 76 79 76 70 64 53 41 36 32 36 22 17 11 7 6 4 5 5 4 4 4 4 6 8 10 12 17 23 25 25 30 30 29 31 54
91 73 67 66 58 54 64 77 76 96 100 87 75 52 51 38 43 41 34 20 17 9 9 8 7 8 7 6 5 5 6 8 11 12 14 21 23 24 25 25 27 24 30 48
93 70 72 74 55 58 81 97 94 83 81 81 78 60 47 37 32 37 23 21 15 14 16 13 10 9 9 8 6 8 10 11 13 29 20 40 38 27 26 25 25 25 29 41
86 67 67 56 70 84 83 84 78 78 85 87 72 61 45 28 33 34 29 21 19 30 38 24 15 13 9 14 11 13 13 22 36 19 31 24 31 40 40 22 20 19 27 39
84 82 66 68 96 94 85 81 84 75 88 76 69 62 38 27 30 32 30 30 46 51 42 36 29 18 19 26 17 17 21 25 43 39 56 44 37 55 42 22 20 27 33 52
97 81 70 76 98 91 96 96 88 81 74 74 69 60 44 33 34 37 32 42 64 75 63 51 45 72 50 67 40 22 22 23 25 31 41 40 36 45 43 68 57 33 45 80
94 91 76 88 79 87 99 86 87 78 79 76 64 46 39 35 37 40 31 52 95 92 72 69 81 75 97 96 41 26 27 44 39 35 24 22 28 34 32 75 88 89 100 100
100 100 96 70 72 83 81 76 75 77 75 68 50 49 47 39 37 37 26 61 100 97 86 81 91 96 100 100 77 38 36 50 55 41 34 31 58 98 46 100 100 100 100 100
99 100 78 73 82 92 94 89 72 74 84 71 52 53 47 40 37 34 21 66 100 98 99 91 80 96 100 100 100 93 98 92 100 100 98 97 100 100 100 100 100 100 100 100
90 86 69 98 100 100 93 88 74 89 88 69 58 59 47 39 43 30 22 68 100 99 94 78 82 64 98 100 100 100 100 100 100 100 100 100 100 100 100 100 100 100 98 100
84 92 100 100 100 100 88 71 80 90 94 67 61 54 46 46 44 29 25 80 100 100 94 81 88 79 100 100 100 100 100 100 100 100 100 100 100 100 100 100 100 100 100 100
100 100 100 100 100 96 77 77 86 89 76 65 61 47 43 54 44 30 23 89 98 95 94 94 96 79 100 86 100 100 100 100 100 100 100 100 100 99 100 100 100 100 100 100
100 100 100 100 96 80 83 88 83 76 71 71 56 42 44 50 44 26 21 37 92 96 86 96 93 96 99 88 86 100 100 100 92 100 100 100 100 99 100 100 100 99 100 100
100 100 100 86 83 86 95 92 81 82 73 58 47 38 46 45 36 22 17 22 69 93 83 90 99 90 96 100 72 87 100 100 100 93 95 95 100 100 100 100 100 100 100 100
100 95 96 90 94 95 93 84 77 77 67 52 40 40 44 41 27 19 16 18 25 79 95 84 92 98 94 98 90 81 84 100 97 100 99 94 95 94 100 100 100 100 100 100
99 89 92 90 94 91 81 80 78 68 53 48 43 38 36 24 19 17 15 15 19 28 86 94 85 90 98 96 93 72 83 90 83 68 77 88 88 97 93 100 100 100 100 100
91 95 92 90 88 80 79 77 66 52 51 48 39 25 17 16 16 14 13 13 15 18 37 84 90 97 98 100 95 88 96 81 82 69 65 68 71 89 96 92 99 100 98 91
96 95 83 76 77 78 71 63 54 50 45 32 19 15 14 14 13 12 12 11 13 16 16 57 86 95 98 94 99 99 89 98 93 85 62 68 76 76 79 86 88 91 90 96

GFSCGP_250_rhum_141.txt.gz
RH
100 100 96 97 96 79 73 77 97 99 94 80 72 60 50 44 47 38 36 36 40 38 44 83 100 100 96 100 100 100 74 79 65 54 70 64 53 44 63 44 38 42 36 26
100 100 93 75 84 63 65 91 97 99 88 76 65 56 50 46 39 36 37 34 31 33 34 35 37 36 40 45 51 63 81 67 49 42 27 38 34 27 26 53 31 32 38 24
100 99 100 68 47 64 60 52 76 86 84 73 65 59 47 40 41 39 39 36 36 33 36 38 38 36 36 38 34 28 23 20 16 16 17 11 12 12 17 34 73 33 43 27
83 96 100 97 82 90 86 73 71 67 60 57 50 52 51 34 30 33 32 35 35 38 36 32 32 30 29 28 21 17 15 12 14 13 15 12 8 8 14 30 65 96 46 35
82 83 93 96 89 90 69 64 55 45 43 60 62 50 53 34 32 33 38 36 38 37 34 29 29 25 18 15 14 11 8 6 6 6 7 9 7 5 9 16 34 82 99 36
77 81 80 80 84 82 68 59 56 47 46 54 50 46 40 39 37 37 38 36 35 33 34 35 29 17 12 9 7 6 6 7 6 5 5 6 6 6 7 10 20 72 100 38
84 85 98 96 98 87 80 68 67 52 52 48 41 43 44 35 44 39 36 36 40 38 40 37 22 14 8 6 7 6 4 3 3 3 3 4 5 6 7 9 15 38 98 83
95 92 92 100 99 83 80 70 61 56 47 43 42 44 42 42 50 42 40 35 35 40 35 21 12 8 8 7 4 3 3 3 3 3 3 3 5 7 7 17 44 67 100 100
90 82 75 83 85 64 68 56 49 48 46 41 43 45 51 49 43 44 44 42 39 33 20 14 10 9 6 6 5 4 4 4 3 3 3 4 5 6 6 27 64 79 99 100
67 61 69 64 70 66 58 58 49 50 51 45 52 56 56 52 50 49 44 41 36 32 17 14 12 8 7 7 10 6 6 5 4 4 4 5 5 6 8 34 79 90 79 85
73 87 78 91 71 71 59 70 52 52 52 48 58 63 53 49 59 52 44 38 43 23 16 14 15 14 19 14 12 10 7 7 8 6 6 7 8 6 20 93 100 100 100 96
100 96 82 97 99 78 84 81 76 54 53 54 80 90 62 54 58 52 46 42 41 22 18 16 14 43 31 24 20 13 10 12 12 9 9 11 12 26 67 100 100 100 94 100
100 100 100 100 100 100 89 82 79 77 58 65 76 84 66 54 53 47 40 41 36 20 23 19 32 69 39 24 17 16 14 14 16 18 34 40 53 55 52 54 96 98 89 97
100 100 100 100 100 100 84 72 72 59 60 76 78 70 64 59 55 49 39 38 31 27 26 34 72 53 46 34 20 20 30 17 17 26 42 53 55 56 66 71 69 73 63 45
100 100 100 98 100 100 80 70 57 64 72 77 78 59 53 57 55 49 35 39 36 32 58 55 67 54 56 37 31 24 34 36 23 25 25 48 70 91 82 88 81 41 49 70
100 100 100 100 90 82 100 64 65 74 74 71 69 59 66 68 58 47 36 39 45 35 92 91 70 79 56 63 70 60 39 50 55 46 45 34 45 62 65 74 50 78 100 62
100 100 100 100 89 80 80 98 78 82 69 84 100 84 69 69 57 42 39 40 54 36 83 100 83 90 85 67 100 78 62 75 67 50 41 44 39 39 44 45 56 43 49 65
100 100 95 83 100 88 88 88 77 73 85 100 100 76 71 72 51 44 37 44 53 38 58 100 89 98 85 100 90 83 82 97 100 97 95 83 72 56 46 52 68 81 72 73
100 100 100 75 72 89 94 85 76 93 100 97 86 77 83 67 44 45 39 43 50 37 64 94 88 99 79 100 82 92 92 100 100 100 100 100 100 100 80 98 99 78 71 84
100 100 100 100 99 86 90 91 100 100 87 84 87 88 71 56 48 40 42 48 51 42 30 87 90 97 89 81 72 85 90 97 100 100 100 100 100 100 100 100 100 98 92 100
100 99 98 99 100 98 91 98 93 86 85 85 93 79 63 48 45 44 41 46 50 43 26 71 82 98 99 81 86 85 100 100 100 100 100 100 100 100 100 100 100 100 100 100
99 100 100 100 97 95 87 85 79 87 96 96 87 76 56 44 42 45 44 48 48 40 28 32 78 94 95 94 89 98 88 100 100 100 100 100 100 100 100 100 100 100 100 100
89 93 92 89 99 96 100 100 97 97 87 89 78 60 47 45 42 45 45 43 46 34 28 22 70 81 100 90 92 86 86 100 100 100 100 100 100 100 100 100 100 100 100 100
93 89 98 84 97 99 92 96 93 97 89 75 59 48 48 43 42 44 41 36 34 30 22 21 28 56 91 94 87 85 94 87 94 99 100 100 100 100 100 100 100 100 100 100
94 94 96 91 94 95 100 98 95 89 76 62 53 54 45 44 46 42 33 23 18 19 17 17 17 37 78 94 100 91 82 92 87 78 92 93 92 100 100 100 84 93 100 100
100 96 94 97 99 92 91 84 76 66 60 63 52 45 47 44 36 21 16 13 12 12 12 13 15 14 35 92 88 100 88 73 94 90 77 96 88 82 90 100 100 95 86 91